GFSWCAN_sfc_dewp_000.txt.gz
Dewpoint
49 49 49 49 49 49 49 49 49 50 50 49 50 50 50 49 49 53 53 52 49 46 43 43 41 41 40 41 44 43 43 44 44 38 36 38 36 37 33 30 31 31 36 33 34 31 29 32 32 36 38 41 40 40
48 49 49 49 49 49 49 49 49 49 49 49 49 49 50 49 49 50 52 51 51 49 46 50 50 46 45 41 43 45 42 42 45 43 39 38 36 34 39 34 33 32 34 32 32 34 35 36 37 39 40 41 41 40
47 48 48 49 48 49 49 49 49 49 49 49 49 49 50 49 49 51 52 53 51 51 48 49 46 48 50 46 48 46 47 43 43 45 45 41 35 40 34 36 40 34 35 36 36 36 36 39 39 41 41 40 40 39
46 47 47 48 48 48 48 48 48 48 48 49 49 49 50 49 49 50 54 51 51 46 37 46 44 46 47 50 49 48 46 46 46 47 39 37 37 40 39 40 38 37 36 36 36 38 39 37 41 42 41 41 39 35
46 46 46 47 47 48 48 48 48 48 48 48 49 49 49 49 49 54 55 54 53 51 44 47 45 45 46 49 49 48 48 48 47 43 36 39 44 42 42 40 40 37 35 38 37 39 39 39 40 41 41 39 33 28
46 46 46 46 47 47 48 48 48 48 48 49 49 49 50 49 50 54 52 54 54 54 48 42 46 44 45 47 49 48 48 49 49 45 41 45 43 44 35 35 39 39 39 41 39 41 40 40 39 38 35 30 27 25
46 46 46 46 46 47 47 47 48 48 48 48 49 49 49 49 55 52 49 50 50 54 45 42 44 43 42 44 45 46 48 49 47 46 44 45 45 43 35 35 37 39 38 39 39 39 38 36 36 33 30 27 29 28
46 46 45 46 46 46 47 47 47 48 48 48 48 49 49 48 49 51 53 49 51 49 46 40 38 42 42 43 42 41 42 45 45 45 41 43 42 43 36 38 36 33 36 37 37 38 37 34 32 29 28 28 28 24
45 45 45 45 46 46 46 47 47 48 48 48 48 48 49 48 45 48 47 49 52 49 43 37 36 36 42 39 40 41 42 38 42 37 38 41 38 36 38 36 34 35 37 36 34 33 31 29 27 27 26 22 21 23
44 45 45 45 45 45 46 47 47 47 48 48 48 45 37 42 48 48 47 45 41 43 42 37 44 40 42 38 37 39 39 38 35 36 36 34 34 33 31 35 35 36 36 34 33 31 30 27 21 21 22 23 24 24
45 45 45 45 45 45 46 47 47 47 47 44 39 37 43 47 44 41 36 37 36 34 37 36 36 36 39 38 36 36 34 34 33 34 35 34 33 34 33 36 35 34 34 31 28 25 23 22 22 24 27 27 29 30
45 45 45 45 46 45 46 47 47 46 44 44 43 44 43 40 36 35 33 32 33 34 34 34 35 37 35 40 36 33 33 33 31 32 32 29 31 30 32 32 32 31 27 22 22 21 23 24 27 28 28 28 30 32
42 45 45 45 45 45 47 46 46 46 45 44 39 34 35 34 32 32 31 32 32 35 35 34 33 36 35 36 32 34 31 31 32 29 27 29 30 30 30 31 31 28 26 27 22 24 27 28 30 30 31 32 33 32
42 44 45 45 45 45 46 46 45 44 42 37 34 32 33 32 33 34 35 36 36 36 36 35 33 35 33 31 32 31 28 29 27 25 27 28 26 23 25 29 24 22 32 28 26 28 32 34 33 33 32 32 31 31
42 44 45 45 44 44 45 44 43 42 38 33 36 31 32 32 35 35 35 36 35 37 36 34 33 33 31 29 30 28 26 24 25 25 28 29 25 25 26 25 24 29 34 30 27 31 34 33 32 32 33 34 33 32
43 45 44 44 43 43 43 42 41 38 34 32 32 31 32 32 32 33 34 33 35 34 34 35 32 31 29 29 27 27 23 20 25 31 32 27 27 27 28 30 27 27 27 27 27 28 30 32 32 31 32 33 32 32
43 42 44 43 42 40 40 38 39 31 30 32 30 33 32 33 34 34 36 35 36 34 32 30 29 27 26 26 25 24 23 28 31 29 27 27 27 28 28 29 32 30 27 27 28 30 30 33 34 31 32 30 32 34
41 43 44 42 41 40 38 35 34 32 28 29 30 32 32 33 33 34 35 36 35 31 29 28 24 23 23 22 23 27 28 30 27 27 25 25 27 29 29 28 27 26 27 28 33 31 31 32 31 30 28 28 30 32
42 44 43 42 39 38 34 34 31 27 27 29 29 31 32 32 31 31 34 34 35 32 30 29 28 24 23 24 30 32 32 30 25 23 24 26 27 28 28 27 27 27 28 29 30 30 30 30 31 30 29 29 28 30
43 43 40 39 39 35 33 32 32 27 26 28 30 30 30 30 31 32 33 35 34 35 32 30 28 29 29 27 27 29 28 27 27 27 25 25 27 27 27 27 27 27 28 29 31 30 30 31 31 31 31 31 31 31
38 40 39 39 35 33 31 30 30 30 29 28 28 30 28 30 29 30 32 33 32 31 28 30 34 32 30 28 28 28 28 28 26 28 28 26 27 28 28 28 28 29 30 32 34 33 32 34 33 32 34 33 33 34
38 40 36 35 32 32 29 29 29 28 28 28 29 28 30 28 27 28 30 28 27 28 28 29 27 28 28 27 27 28 28 28 28 28 29 29 29 29 29 30 31 34 34 35 34 35 35 34 34 34 33 32 31 34
37 35 32 33 28 29 26 29 27 25 25 26 27 26 26 28 26 26 25 24 26 27 28 27 27 28 27 27 27 27 27 27 27 28 30 30 30 33 33 32 34 34 34 33 33 34 35 32 33 33 34 33 32 31
33 30 28 25 26 24 29 26 26 25 26 25 23 18 20 25 23 23 21 24 26 27 27 27 27 26 26 26 25 24 25 28 28 29 31 31 30 30 31 32 33 34 33 32 34 34 34 33 32 33 32 32 30 31
28 25 25 22 25 23 22 22 22 23 20 21 19 21 21 22 22 21 21 24 28 30 29 26 24 25 25 27 27 27 28 27 27 28 31 32 33 33 32 32 33 33 34 32 32 32 32 32 32 32 31 31 29 30
21 24 20 22 22 20 21 19 20 20 20 18 20 20 21 23 20 19 19 28 31 31 34 34 33 26 23 23 24 24 27 29 29 29 29 30 30 32 31 31 31 32 34 34 32 31 30 29 29 28 28 28 26 27
20 21 24 23 22 19 20 19 19 21 18 19 22 19 21 17 18 20 23 25 25 27 27 27 27 25 25 25 26 28 30 30 30 29 30 30 30 30 31 29 29 31 32 33 32 31 29 28 28 28 28 28 27 27
23 24 20 23 22 22 20 20 20 19 22 20 21 19 19 19 18 23 23 22 23 24 26 27 26 24 25 27 27 27 27 28 29 30 31 30 30 30 29 29 28 26 30 31 31 31 30 29 28 26 26 27 27 27
25 25 25 20 21 22 22 22 22 22 22 22 23 21 22 21 19 18 18 18 20 21 20 19 20 22 23 23 24 24 23 23 22 21 22 24 29 23 23 24 24 24 25 26 25 27 28 28 26 26 26 26 25 25
24 26 24 21 20 21 27 27 28 27 24 26 25 23 21 17 15 16 16 15 15 15 16 16 17 17 17 17 18 20 21 20 19 17 17 17 17 19 19 19 19 20 21 22 23 25 24 24 23 24 22 21 20 19
26 25 24 23 23 28 26 21 22 22 24 26 26 27 25 14 14 13 12 14 14 14 13 13 14 16 16 15 14 15 15 17 15 15 15 17 17 17 16 15 16 16 18 19 20 21 20 20 19 18 15 13 11 12
25 23 23 21 23 23 21 22 23 24 25 23 24 20 17 17 10 10 10 12 11 9 8 10 11 13 14 15 15 15 12 13 12 11 10 12 12 12 12 12 12 14 15 16 16 15 14 14 13 12 11 9 7 6
20 20 19 20 21 22 20 18 16 16 18 18 17 16 12 11 4 7 10 11 10 9 9 10 11 13 14 12 12 12 11 12 10 9 7 7 6 6 7 9 9 10 11 12 11 11 9 8 8 6 4 3 2 1

GFSWCAN_sfc_dewp_003.txt.gz
Dewpoint
49 49 50 50 50 50 50 50 50 50 50 50 50 50 50 49 49 53 53 54 52 48 44 43 42 43 42 40 45 44 43 45 47 39 40 41 39 36 33 28 32 33 36 34 35 33 29 32 32 36 38 39 41 40
48 49 49 49 49 49 49 49 49 49 50 49 50 50 50 49 49 50 52 51 53 50 48 50 49 48 47 43 42 46 40 43 44 45 43 43 39 37 39 34 30 31 34 34 33 33 33 37 41 41 40 40 41 41
47 47 48 49 48 48 49 49 49 49 49 50 49 50 50 50 50 51 53 54 52 55 49 47 45 49 46 48 49 46 49 42 45 47 47 44 35 42 36 37 40 33 32 37 37 34 33 37 39 40 42 41 41 41
46 46 47 47 48 48 48 48 48 49 49 49 50 49 50 50 50 50 53 53 51 49 40 49 46 47 49 50 48 48 46 49 48 48 43 38 38 41 42 38 37 36 35 36 37 35 35 37 41 41 40 41 41 38
46 46 46 46 47 48 48 48 48 48 49 49 50 49 50 50 50 54 55 54 54 52 47 49 46 46 47 50 48 48 48 47 49 45 38 40 46 44 44 43 39 35 35 38 38 38 40 40 42 41 39 39 38 32
46 46 46 46 46 47 48 48 48 48 48 47 49 50 50 50 50 54 50 54 55 55 52 45 48 45 46 48 49 48 47 47 46 46 41 45 43 43 37 38 35 35 36 37 39 41 42 41 39 39 36 33 30 28
46 46 46 46 46 46 47 47 48 48 48 49 49 50 50 49 55 52 49 52 50 55 51 45 47 45 45 46 48 47 49 48 47 47 46 46 45 43 39 37 34 35 37 38 40 40 39 40 38 35 33 30 30 28
46 46 45 45 46 46 46 47 47 48 48 48 49 49 49 49 50 52 54 51 52 52 52 44 41 44 44 46 45 45 46 47 47 46 45 44 44 45 39 37 36 36 36 37 38 41 39 36 33 30 28 26 23 20
44 44 45 45 45 45 46 46 47 48 48 48 48 49 51 51 50 53 48 51 55 52 46 38 38 37 44 42 43 43 44 40 45 40 42 43 40 37 38 36 37 36 37 38 36 33 32 29 27 24 21 19 19 20
44 44 45 45 45 45 45 46 47 47 48 48 49 46 39 44 48 49 52 50 48 49 48 39 44 40 41 41 38 39 41 38 36 38 37 34 36 39 37 37 37 36 36 35 34 32 30 27 21 19 19 20 21 21
44 45 45 45 46 45 46 47 47 47 48 45 40 37 44 47 46 44 38 40 41 36 40 43 43 41 43 38 37 39 35 36 34 36 36 36 34 36 36 36 35 35 34 33 30 27 21 19 20 21 24 27 28 27
45 45 45 45 45 46 47 47 47 47 45 44 44 45 44 41 37 38 34 34 35 36 37 35 38 41 39 41 35 33 33 34 33 36 34 31 33 34 35 36 34 33 31 25 21 19 19 19 23 28 29 28 28 31
42 44 45 45 45 45 47 46 45 46 47 44 38 34 35 33 31 32 30 33 33 34 34 34 33 35 36 37 33 34 32 33 35 32 28 31 32 31 34 33 31 28 26 25 18 19 22 23 28 31 32 32 35 32
41 44 45 45 45 46 46 46 45 45 43 35 33 32 33 32 33 34 35 34 36 36 35 34 33 34 34 34 34 32 32 32 30 27 30 31 31 30 32 32 31 27 33 28 24 25 29 36 35 36 35 35 34 32
41 44 45 45 45 46 44 44 44 44 40 35 35 31 32 34 34 34 35 36 36 38 37 37 37 37 34 32 34 31 28 27 28 29 31 31 30 28 29 27 25 27 35 31 25 28 36 36 35 33 35 36 34 35
42 44 44 44 44 44 43 43 43 40 37 34 34 32 34 34 33 33 33 33 37 37 38 38 34 33 32 33 29 30 29 25 29 34 34 29 27 27 27 28 28 27 26 25 24 25 29 35 34 32 34 35 34 34
42 42 44 43 42 41 41 41 41 33 35 34 32 36 35 35 34 34 36 36 38 37 33 35 31 30 30 30 28 28 29 32 34 33 28 28 27 27 29 30 34 31 28 27 27 28 30 33 36 35 33 31 32 34
40 42 44 42 43 42 40 39 37 35 31 32 34 33 35 36 35 35 36 37 37 34 32 31 28 28 28 26 27 32 30 32 30 27 25 26 26 27 27 28 29 28 27 27 32 31 32 35 33 31 28 28 30 32
41 43 43 42 41 39 37 36 36 32 32 32 32 33 34 34 34 34 36 35 36 36 33 32 31 26 27 27 32 35 35 31 27 25 26 27 27 27 27 27 28 28 28 28 28 29 28 29 31 30 30 31 32 33
43 43 41 40 39 37 35 34 35 30 30 30 32 32 32 32 33 34 35 36 35 35 33 32 29 30 31 29 29 31 28 30 28 28 26 24 25 27 28 29 28 28 28 28 29 30 31 32 31 30 32 32 34 33
40 41 40 41 39 35 33 32 32 31 30 29 30 31 30 31 31 32 33 35 34 32 27 29 35 34 32 31 30 30 30 29 25 27 27 26 26 27 27 28 29 29 30 31 36 35 35 36 34 34 36 34 34 35
39 39 36 37 36 34 32 33 30 32 30 30 30 31 30 29 29 30 31 31 28 29 28 30 29 29 29 30 29 29 29 29 29 28 29 29 28 29 29 29 30 34 35 38 36 38 38 36 37 38 36 33 34 35
38 37 34 34 32 33 29 32 31 27 28 28 29 28 28 28 28 28 28 27 28 29 29 28 28 30 30 28 27 28 28 28 27 26 28 30 29 33 34 33 36 37 37 35 34 36 37 35 36 34 34 34 34 33
36 33 31 30 31 27 31 28 28 27 29 27 27 25 24 28 26 27 25 28 27 27 27 26 28 26 26 27 23 21 23 24 27 28 30 31 30 30 30 31 34 37 36 35 36 36 36 34 33 34 33 32 32 32
30 27 29 25 28 26 25 25 25 25 23 25 24 24 25 27 25 23 24 25 31 33 32 28 27 25 24 26 25 25 27 27 27 26 30 31 34 35 34 32 33 34 38 36 33 33 33 33 33 32 32 32 30 29
24 26 25 26 25 24 25 22 23 23 24 23 24 25 27 26 22 21 19 30 34 32 31 32 32 28 25 24 25 26 28 30 30 29 29 31 32 34 34 31 30 34 37 36 33 32 32 33 32 31 30 31 30 30
22 23 26 25 24 24 25 25 25 25 22 21 24 23 24 18 19 21 26 26 27 27 28 28 28 27 26 26 27 27 27 27 28 28 28 29 30 29 30 31 30 32 31 33 32 32 31 31 30 30 30 31 30 30
27 26 22 26 26 26 23 23 23 22 24 23 25 22 19 19 20 25 23 22 24 24 25 25 25 23 24 23 24 25 23 23 24 27 28 29 31 26 26 27 28 27 29 30 30 30 30 30 30 30 29 28 29 30
27 28 27 22 24 26 26 24 25 24 24 26 26 24 26 23 21 21 19 20 22 23 21 21 22 23 23 22 23 24 21 20 18 16 16 18 20 21 22 23 23 24 24 25 25 27 28 28 27 26 27 27 26 26
26 29 26 23 22 23 30 32 32 32 28 31 30 25 21 19 17 18 18 19 18 18 19 19 19 19 18 18 18 20 21 19 17 15 14 14 16 19 20 19 19 20 21 22 23 23 26 26 25 27 23 22 20 19
28 28 26 26 26 31 30 29 30 29 30 30 33 30 24 17 16 15 15 16 16 16 16 15 16 16 15 15 15 14 14 17 15 14 13 14 15 16 16 15 17 18 18 19 20 21 20 21 21 20 17 15 13 13
27 27 26 22 26 28 29 28 29 28 29 28 28 24 21 20 14 12 13 15 14 13 11 13 13 13 15 16 16 16 13 14 14 12 12 10 12 12 11 12 14 14 15 16 18 17 16 17 16 14 14 10 9 8
23 23 23 23 23 22 26 25 23 22 24 23 21 20 16 17 9 12 13 14 13 11 11 11 13 14 15 16 14 14 12 13 13 12 11 8 7 8 8 9 8 8 11 14 14 14 12 11 10 9 7 5 3 1

GFSWCAN_sfc_dewp_006.txt.gz
Dewpoint
50 50 50 50 50 50 50 50 50 50 50 51 50 50 50 49 49 53 56 56 55 51 45 45 43 42 41 43 47 44 44 47 50 38 40 42 39 40 37 30 34 33 34 33 34 32 28 33 31 34 40 42 40 39
48 49 49 49 49 50 50 50 50 50 50 50 50 50 50 50 50 51 53 53 56 53 49 52 50 50 48 46 45 48 42 45 47 45 44 45 38 38 39 36 28 33 38 37 35 35 38 37 38 40 43 42 41 41
47 47 48 48 49 49 49 49 49 49 50 50 50 50 50 50 50 51 55 55 56 58 49 48 45 48 48 50 54 48 53 44 46 48 46 43 34 43 35 38 39 31 31 41 39 34 33 36 38 42 42 41 40 39
47 47 47 47 48 48 49 49 48 49 49 50 50 50 51 50 50 51 54 55 54 51 39 50 48 47 49 49 48 51 50 52 52 49 41 38 36 42 42 39 40 38 35 36 37 35 36 37 41 41 41 41 40 39
46 46 46 47 47 48 48 48 48 48 49 49 50 49 50 52 51 54 55 55 54 54 45 51 47 47 47 49 47 49 51 50 51 45 37 39 47 47 48 45 42 37 33 38 38 38 40 41 41 40 40 39 38 35
46 46 46 46 46 47 47 48 48 48 48 48 49 49 50 50 50 55 49 54 54 55 50 43 49 46 47 48 48 47 49 49 49 47 42 45 46 47 38 38 38 35 33 36 37 41 42 42 40 39 37 33 31 29
46 46 46 46 46 46 47 47 47 48 48 47 49 49 49 50 55 52 49 51 50 56 50 43 47 45 45 47 48 48 49 49 48 49 47 46 47 44 38 38 35 33 34 35 39 41 39 39 38 38 33 30 30 27
45 45 45 45 45 45 46 47 47 48 48 48 49 49 49 49 50 52 53 52 52 52 51 44 42 45 45 49 47 46 47 47 48 46 46 45 45 45 40 39 37 36 36 38 38 39 39 37 38 31 29 25 21 18
44 43 45 44 45 45 45 46 47 48 48 48 49 49 53 52 52 53 48 50 56 52 47 37 37 37 45 43 43 44 45 39 45 39 42 43 41 37 39 37 35 36 37 36 38 36 34 31 28 25 22 19 19 20
44 44 45 45 45 45 46 46 47 47 48 48 49 47 39 45 48 49 51 50 50 52 49 39 44 41 42 41 39 39 39 38 36 39 39 35 37 38 36 37 38 38 38 38 37 34 31 29 24 20 20 21 22 25
45 45 45 45 45 46 47 47 47 47 48 46 40 38 44 47 49 46 40 41 42 39 43 42 44 40 43 38 36 40 35 36 33 36 36 34 34 36 39 38 38 37 37 35 34 32 26 22 20 22 28 32 31 30
45 45 45 45 45 46 46 47 47 47 45 44 44 45 44 41 36 38 35 35 36 38 39 36 39 42 41 43 39 35 34 33 32 37 33 32 34 35 38 36 36 35 34 29 25 21 21 20 23 31 32 32 31 32
43 45 45 45 45 47 46 45 46 46 45 43 38 35 36 33 32 32 31 32 33 34 35 35 34 36 37 38 34 33 32 32 36 33 30 33 34 34 36 36 33 29 29 28 21 21 24 24 28 32 32 32 32 32
41 44 45 45 46 46 46 44 44 45 42 35 33 32 32 32 33 32 33 32 34 34 34 34 33 34 33 33 32 32 33 34 30 29 29 35 32 33 34 35 30 27 28 28 29 30 29 34 34 33 33 33 31 31
42 44 45 45 44 44 44 43 42 44 41 36 35 31 32 33 34 33 33 34 34 36 35 34 34 35 32 32 33 32 29 28 30 31 33 35 34 33 33 32 29 30 30 32 30 29 30 31 32 32 33 34 34 33
42 43 44 44 44 43 43 44 43 42 38 35 35 33 34 33 32 32 32 33 37 35 37 37 33 32 32 32 30 30 29 28 33 36 36 32 32 32 31 30 31 30 29 30 30 29 29 31 31 32 33 34 33 32
41 42 44 43 42 42 41 42 41 35 35 34 33 37 35 35 34 34 36 36 39 35 32 34 32 28 31 30 29 32 31 34 37 36 33 32 30 31 31 31 33 32 32 31 30 30 30 31 33 33 32 32 33 33
40 44 44 43 44 41 40 40 39 36 32 33 34 34 36 36 34 35 36 38 38 34 35 32 32 29 29 27 29 34 34 37 35 34 32 31 31 31 30 31 31 32 31 30 31 31 31 32 32 32 33 32 32 32
43 44 43 43 42 40 36 37 38 32 32 32 33 34 34 34 35 36 36 36 37 37 36 34 31 28 30 32 35 37 38 37 32 31 31 31 31 30 30 30 30 31 30 30 30 30 31 31 31 32 32 32 32 33
43 43 43 41 39 38 34 34 37 34 31 32 33 32 32 32 33 33 34 35 35 36 32 31 32 35 34 34 36 37 36 36 33 32 30 30 31 31 32 32 32 32 31 31 31 31 32 32 32 32 32 32 34 35
41 41 40 41 39 37 34 32 32 32 30 30 31 32 29 32 32 33 34 36 33 33 30 32 39 37 35 36 36 36 34 34 31 33 31 29 32 33 31 31 32 32 32 33 36 34 34 34 34 34 35 34 34 33
39 39 36 37 34 35 32 34 32 32 32 30 31 33 29 29 29 31 32 31 30 30 30 33 32 33 34 34 34 34 33 32 33 32 30 30 30 31 32 33 33 34 34 35 33 34 34 34 36 36 35 34 33 34
38 36 34 33 32 32 30 33 32 29 27 27 29 27 27 27 28 28 27 27 29 30 31 30 30 34 33 34 30 31 31 31 29 30 32 32 32 34 35 33 34 34 33 33 33 33 34 34 35 34 33 33 33 33
37 32 32 31 32 28 31 28 28 27 29 27 25 23 24 26 27 26 24 27 27 29 28 27 29 27 30 29 26 27 30 29 29 30 32 31 30 30 31 31 32 33 32 32 33 34 35 33 33 33 33 32 32 31
30 28 30 26 31 28 25 25 26 25 23 25 24 24 25 27 25 23 23 27 32 31 33 33 29 27 26 29 29 29 30 31 31 30 31 31 32 32 32 32 32 33 33 33 33 33 33 33 32 32 32 32 30 29
25 28 28 28 27 27 25 23 23 24 23 22 23 25 27 25 21 20 21 30 30 28 29 30 30 29 27 27 26 27 27 27 26 25 26 27 27 27 26 27 27 28 28 29 29 29 30 31 32 31 31 29 29 30
24 25 26 25 26 26 26 27 26 25 22 21 24 23 23 18 18 23 25 25 26 26 25 27 25 24 24 24 24 24 26 25 23 22 23 25 28 26 25 22 22 23 26 27 28 28 27 28 29 29 29 30 30 29
26 26 22 27 26 26 23 24 23 22 23 23 24 21 20 19 22 24 22 22 23 24 24 25 23 22 22 21 23 24 21 22 22 22 23 28 29 23 21 22 22 21 23 24 25 25 26 26 27 27 27 26 27 28
25 28 26 23 25 26 25 24 24 23 24 27 25 23 25 21 21 21 20 21 23 22 21 20 21 23 22 21 24 23 20 18 15 12 12 14 16 16 18 19 19 19 20 20 20 22 23 25 26 25 25 26 25 24
25 30 25 24 23 23 28 32 31 31 30 31 31 24 21 18 18 20 20 19 18 18 20 20 20 18 18 17 17 17 21 18 15 12 10 10 11 14 16 16 14 16 17 17 18 19 21 21 24 25 21 19 18 19
27 27 25 25 25 29 29 29 29 29 31 30 31 29 20 16 16 16 17 19 18 17 16 16 16 17 15 14 14 12 12 15 16 14 13 13 13 13 12 12 12 14 14 15 15 17 18 18 19 19 16 14 13 12
26 25 26 23 27 28 28 27 26 26 28 26 27 24 22 21 15 14 14 16 15 13 12 12 11 12 14 14 17 16 14 14 14 14 12 12 11 10 10 9 11 11 10 10 13 16 14 14 14 12 12 9 7 5
24 24 23 23 22 21 25 25 21 20 23 21 23 21 17 17 11 13 15 15 14 12 11 12 12 14 15 15 11 16 13 12 11 13 12 11 9 8 8 8 9 6 5 6 12 13 10 9 7 7 5 3 0 -2

GFSWCAN_sfc_dewp_009.txt.gz
Dewpoint
50 50 49 49 49 50 50 50 50 50 51 50 50 50 50 50 50 54 54 54 54 46 45 48 49 43 43 45 38 42 39 40 36 33 31 32 30 31 30 33 31 28 26 28 28 21 21 35 33 28 34 41 41 38
49 49 49 49 49 50 50 49 50 50 50 50 50 50 50 50 50 51 54 53 55 52 49 51 50 49 46 46 46 44 38 45 43 38 34 36 31 35 31 26 35 29 33 30 30 29 34 36 35 39 41 41 40 40
48 49 49 49 49 50 49 49 49 49 50 50 50 50 50 50 50 51 54 54 56 48 47 47 47 49 50 49 51 43 45 46 46 47 40 40 32 36 29 32 29 33 37 32 33 36 35 37 41 42 42 41 40 39
47 47 48 48 49 50 49 49 49 49 50 50 50 50 50 50 50 51 54 55 53 47 36 45 47 48 49 50 49 50 48 50 49 44 38 36 32 40 33 33 32 34 36 33 33 36 37 41 42 42 40 41 41 40
46 46 47 47 48 48 49 49 48 48 49 48 48 49 49 50 50 52 56 54 54 50 38 40 47 48 48 49 48 50 49 48 45 39 35 34 34 36 33 34 33 38 34 32 31 38 38 41 41 42 41 40 41 39
46 46 46 46 47 47 48 48 48 48 47 48 48 49 49 49 49 54 50 54 52 55 44 37 47 46 47 47 47 47 48 48 47 40 35 41 45 38 34 32 38 39 38 37 37 42 43 42 40 39 39 35 32 30
45 45 46 46 46 47 47 48 48 48 46 47 48 49 50 49 52 49 48 50 49 53 41 37 38 45 45 47 48 48 49 47 46 41 36 36 39 42 33 34 38 38 36 39 43 41 39 39 39 39 34 32 32 27
45 45 45 45 45 46 46 47 48 48 48 47 48 49 49 49 49 50 52 50 50 50 45 37 38 37 45 38 39 45 40 43 44 42 41 37 39 35 32 39 39 39 39 40 40 40 39 41 38 33 31 25 21 22
44 45 45 45 45 46 46 46 47 48 48 48 49 49 52 50 45 49 48 49 54 49 38 34 35 34 44 40 39 38 43 36 42 36 37 40 36 36 39 40 39 38 37 39 39 39 39 36 29 25 22 22 23 25
45 45 45 45 46 46 46 46 47 48 48 48 49 47 39 43 47 48 49 44 41 41 41 36 39 37 42 36 35 36 35 34 34 36 39 33 36 38 39 38 38 38 39 39 38 36 33 29 24 23 24 26 27 27
45 45 45 46 46 46 46 47 48 48 48 45 40 37 43 47 48 42 38 36 38 36 39 39 39 37 40 35 34 35 33 34 32 31 34 31 32 36 38 39 38 39 38 36 31 30 28 25 25 27 28 28 27 27
45 45 45 46 45 46 46 46 47 46 44 44 43 44 43 39 36 36 35 34 35 35 35 35 37 39 37 41 35 34 34 33 30 35 32 28 31 37 37 37 37 32 29 26 26 25 26 28 29 28 27 27 28 29
44 45 45 46 46 45 45 45 45 45 44 42 38 35 37 32 31 32 30 32 32 33 34 34 33 34 35 37 33 33 32 31 34 32 29 29 34 36 36 27 26 27 28 27 26 28 27 26 27 25 26 28 26 29
43 45 45 46 46 45 44 43 44 44 41 35 34 31 32 31 31 30 31 32 32 33 33 33 32 33 32 33 32 30 31 31 28 25 22 33 36 37 33 28 25 25 26 25 25 25 25 27 28 27 28 28 24 28
43 44 45 44 44 43 43 43 43 43 39 33 34 30 30 32 32 32 32 32 33 35 34 33 33 34 32 30 31 30 27 26 28 28 31 33 34 33 30 29 26 25 27 28 27 25 25 26 27 28 29 29 30 26
42 43 44 44 43 43 43 44 42 40 33 32 32 30 32 32 32 32 32 32 35 33 34 33 32 32 29 30 28 28 27 26 29 31 32 32 30 29 28 29 28 29 28 27 28 27 27 26 24 28 28 29 26 29
42 42 44 42 42 42 42 41 38 33 32 31 31 34 33 32 32 33 33 33 37 34 32 32 29 27 30 27 27 30 28 31 33 32 32 30 29 29 29 29 29 29 28 29 29 28 28 28 26 27 28 30 30 30
41 43 44 44 44 42 39 39 34 32 28 29 31 32 33 33 33 33 34 34 34 32 31 29 31 27 27 25 27 30 31 31 31 30 29 28 28 28 28 27 29 28 28 28 27 28 28 26 28 29 30 31 30 29
43 44 43 42 41 39 34 34 36 29 30 32 32 32 32 32 33 33 33 34 34 34 32 29 27 25 26 28 30 30 30 29 29 28 28 28 28 28 28 27 27 27 28 28 28 29 29 29 30 30 30 29 29 29
42 42 42 42 41 35 32 32 35 30 30 31 32 31 31 30 32 32 33 33 33 33 30 25 26 28 29 30 31 31 31 31 30 28 29 28 28 28 28 28 29 30 30 29 29 27 29 29 29 30 29 27 24 28
41 40 40 40 36 37 33 32 32 33 29 29 31 31 28 30 30 31 32 33 32 32 30 27 28 30 31 30 30 30 30 29 28 28 28 27 29 28 28 29 29 29 28 27 26 28 26 28 31 30 30 29 32 32
39 39 35 36 33 32 32 33 31 30 30 29 30 30 26 27 28 29 31 30 29 27 30 28 29 29 30 30 30 30 30 27 27 28 27 27 27 27 27 28 27 25 25 25 27 28 28 29 28 27 32 32 32 31
37 36 33 32 31 30 28 32 30 30 23 26 29 27 26 27 28 29 25 26 26 29 29 30 31 30 29 28 27 27 27 27 27 27 28 28 27 27 27 28 26 24 27 28 28 28 28 28 31 29 27 31 30 31
37 33 30 30 30 27 31 27 30 28 27 26 26 23 26 26 24 23 21 21 27 30 30 29 28 28 28 26 28 28 29 29 28 28 28 28 27 28 28 28 28 27 28 29 28 28 29 31 27 28 30 29 29 30
29 23 25 25 30 25 18 25 26 23 22 23 23 23 20 20 17 14 15 23 27 27 28 28 29 28 27 27 27 26 26 24 23 23 24 25 22 22 22 23 24 24 24 24 24 25 24 26 27 27 27 27 27 23
25 24 20 26 27 24 22 23 23 22 20 23 22 24 20 17 12 11 24 27 26 26 26 25 23 23 24 25 23 23 23 23 21 19 21 22 23 23 20 18 17 17 19 22 21 20 19 19 21 23 25 27 26 26
23 24 28 29 30 28 27 27 26 23 21 20 23 21 14 9 9 22 25 24 25 26 27 26 24 23 23 22 22 25 21 19 18 18 21 23 21 19 17 15 14 16 17 19 17 17 18 19 19 19 22 23 25 26
28 28 23 27 27 28 23 22 21 20 20 25 22 14 11 11 17 22 22 23 24 26 26 23 22 21 23 22 24 17 12 12 13 13 15 22 17 13 12 13 14 15 12 15 14 15 16 17 18 19 21 22 23 20
26 28 25 20 21 23 20 18 19 24 27 23 16 15 19 18 19 21 21 22 23 22 19 17 15 18 17 15 18 16 7 5 5 1 -2 -2 4 5 10 11 10 9 10 12 12 14 14 17 18 18 21 19 17 13
25 28 20 17 15 19 26 28 28 29 26 27 25 21 18 16 17 17 17 16 13 13 16 17 11 6 4 2 3 5 14 8 1 1 -2 -2 5 8 8 7 7 6 8 9 8 9 12 15 16 19 13 13 13 9
27 27 23 22 25 27 27 27 28 27 28 28 27 19 13 12 12 13 12 15 13 8 7 4 4 5 -0 1 5 -0 -1 -0 3 8 4 0 3 -1 1 5 4 5 7 4 4 5 8 12 14 12 7 7 7 4
27 24 25 21 24 27 26 25 24 24 24 23 23 21 17 12 4 7 5 9 4 2 2 0 -0 3 1 4 6 3 12 7 4 0 1 4 2 -0 -0 1 3 5 0 1 3 3 9 9 7 6 5 2 1 -0
20 18 18 14 13 12 21 14 13 11 12 12 16 13 8 6 1 5 10 9 3 -1 -1 -1 -2 -1 7 1 -3 4 -1 -4 -1 10 8 9 4 1 -3 -0 4 3 -3 0 1 6 6 5 2 0 -1 -3 -5 -6

GFSWCAN_sfc_dewp_012.txt.gz
Dewpoint
50 49 49 49 49 49 50 50 50 50 49 49 49 49 49 49 50 52 51 53 49 43 44 49 48 42 44 42 37 41 38 37 35 28 26 31 30 30 29 32 29 27 25 24 23 16 19 33 34 28 31 39 40 39
49 49 48 48 48 49 49 49 49 50 49 49 49 49 50 50 50 53 49 54 54 47 45 49 49 47 48 44 44 42 36 40 39 35 34 35 31 34 28 27 34 26 28 28 29 29 31 34 34 36 41 40 39 38
48 48 48 48 48 49 49 49 49 49 50 49 49 49 50 50 50 53 52 52 51 43 43 45 45 48 48 49 48 41 42 46 45 41 37 33 26 32 30 32 31 32 37 32 32 33 35 36 39 41 41 40 40 40
48 48 48 48 48 49 48 48 48 49 49 48 48 48 48 49 50 52 52 53 48 43 35 42 48 47 48 49 49 47 47 49 45 41 36 36 29 37 29 30 31 32 35 33 32 34 39 40 41 41 40 40 40 39
47 47 48 48 48 49 49 48 48 48 47 48 48 49 49 49 50 53 53 52 52 44 37 39 46 47 47 49 49 49 48 47 42 37 33 33 31 35 32 32 32 37 32 32 31 34 34 38 41 41 40 41 42 39
46 46 47 47 47 48 48 48 47 46 47 48 48 49 50 49 50 53 48 52 50 52 41 34 44 45 46 47 47 48 48 47 44 38 35 38 43 34 34 35 38 40 39 37 36 40 41 42 41 41 40 39 35 31
46 46 46 46 47 47 48 48 48 47 47 48 49 49 50 48 50 48 43 49 49 49 39 37 36 43 45 47 45 45 47 46 44 39 35 36 37 39 34 32 37 38 39 38 41 42 39 39 38 39 32 32 29 24
45 45 46 46 46 47 47 47 48 47 47 48 49 49 49 49 50 49 50 48 49 47 41 35 33 35 43 37 38 42 39 42 42 40 39 37 37 34 34 39 40 39 39 40 42 40 40 40 38 32 30 23 24 23
45 45 45 45 45 45 46 47 48 48 48 48 49 49 48 47 45 49 47 47 51 45 38 33 34 32 41 39 37 36 39 34 40 36 36 38 35 35 37 38 39 40 40 40 40 39 40 36 30 23 24 26 25 25
45 45 45 45 45 46 45 47 48 48 48 48 47 43 40 43 47 48 45 41 41 42 39 34 38 36 41 34 34 34 34 33 34 36 39 34 35 38 39 41 39 39 38 40 38 35 30 28 27 28 27 27 26 25
45 45 45 46 46 47 47 47 48 48 47 46 41 38 43 46 45 41 37 35 37 35 38 37 37 36 38 35 34 34 33 33 32 31 34 30 31 34 37 38 38 37 35 34 34 33 32 32 31 30 29 28 27 26
45 46 45 45 45 45 45 46 46 45 44 44 43 44 42 39 36 36 34 34 34 34 34 35 36 39 36 38 35 34 33 33 29 34 32 30 32 35 36 32 30 32 33 33 33 34 34 31 30 27 24 24 26 28
45 45 46 45 44 44 45 45 45 45 44 42 38 35 37 33 33 34 32 32 32 32 34 34 34 34 35 37 33 33 32 31 33 31 30 31 36 28 29 30 30 32 33 34 33 31 29 26 25 23 24 25 25 28
45 44 45 45 44 43 43 43 44 43 40 35 34 30 32 30 30 30 31 32 32 32 33 33 32 33 32 33 32 31 31 31 28 26 24 33 36 33 34 33 30 27 29 27 27 25 24 26 27 26 25 25 24 26
42 44 44 43 43 43 44 43 43 41 35 33 31 29 28 31 32 32 32 32 33 34 33 32 32 33 31 30 31 29 27 25 27 27 30 32 35 33 29 27 26 25 28 27 26 25 25 25 26 26 27 27 28 24
42 43 43 42 42 43 43 42 40 38 32 32 31 30 32 32 32 32 32 32 34 33 33 33 31 30 28 29 27 27 26 24 28 31 32 33 32 30 31 29 28 29 28 27 27 27 26 24 22 26 27 27 24 23
41 39 43 43 43 43 42 38 34 32 31 29 30 33 32 32 32 32 33 33 36 33 31 31 25 25 29 27 26 30 27 29 32 32 32 30 29 29 29 30 29 29 29 29 29 29 27 28 25 26 26 28 28 29
40 43 43 43 43 41 37 37 33 29 28 31 30 31 32 32 32 32 33 33 33 29 30 28 29 27 26 24 26 30 31 32 32 31 30 29 28 27 27 26 28 27 27 27 27 27 27 25 27 28 29 29 29 29
42 43 43 43 41 34 32 33 33 25 27 31 31 31 31 32 32 32 32 33 33 32 29 24 20 21 23 26 25 29 27 28 28 27 28 27 28 28 28 27 27 27 27 27 28 28 29 29 29 29 29 28 27 26
41 41 41 41 40 30 29 29 34 29 27 28 31 30 30 30 31 32 32 32 32 31 30 21 22 24 25 27 28 27 27 27 27 25 27 28 28 28 28 28 28 29 29 29 29 25 28 28 29 29 28 26 27 30
39 39 39 36 35 34 32 30 31 32 31 30 30 30 28 30 29 30 32 31 32 30 24 26 24 28 28 28 27 27 28 28 27 25 25 25 26 26 27 28 28 27 26 25 22 25 23 25 28 29 25 30 30 27
38 39 34 36 32 32 31 32 31 30 29 29 29 29 27 26 27 28 30 27 25 25 28 26 28 28 29 29 29 29 29 27 27 27 26 25 27 26 27 27 27 23 24 23 26 25 26 27 28 29 30 31 29 30
37 35 33 32 27 27 21 33 29 28 25 26 29 26 25 25 27 29 25 25 26 28 28 28 29 30 29 29 28 28 28 28 27 26 27 25 26 24 23 24 22 20 22 23 25 24 24 23 26 27 28 29 30 30
36 32 28 27 28 20 27 27 29 28 27 25 25 23 24 25 25 24 15 21 29 27 27 27 27 28 27 26 24 23 24 24 24 23 24 21 20 21 22 22 22 20 20 21 20 19 19 20 19 20 22 23 24 26
28 20 24 12 20 16 14 19 24 24 19 19 19 20 17 20 13 9 11 23 26 26 23 23 25 26 26 25 23 22 22 20 19 19 20 21 16 16 18 18 19 17 16 14 15 14 14 14 15 16 18 19 20 23
22 19 23 15 18 18 20 21 18 19 18 23 22 21 20 17 16 9 21 24 24 24 23 24 18 21 21 22 20 19 18 19 19 17 19 19 16 13 11 10 10 10 12 12 13 10 10 11 12 13 13 15 18 21
19 15 24 29 28 27 26 26 27 24 22 21 18 21 19 13 7 20 23 23 23 25 24 24 23 22 21 21 20 16 15 14 13 13 18 15 13 12 10 8 7 9 10 8 10 9 9 9 10 10 12 14 16 19
23 24 20 24 27 27 23 23 23 22 23 25 22 16 15 9 14 19 20 23 24 22 21 21 21 20 19 18 15 11 9 8 8 10 16 12 10 6 4 2 3 10 4 4 7 8 7 8 9 10 13 13 14 12
26 28 26 22 22 22 21 21 20 25 28 22 15 14 16 15 16 19 19 19 20 20 16 14 12 13 13 12 9 6 2 1 -1 -6 -10 -11 -9 -3 2 -3 -5 -2 2 3 6 7 6 9 10 13 15 11 9 8
22 24 16 14 17 20 24 26 27 27 25 24 20 18 15 14 14 16 14 14 13 11 13 10 5 3 -6 -4 -6 -1 2 -7 -6 -6 -11 -10 -4 3 -4 -2 0 0 1 3 1 0 4 3 7 12 10 9 6 4
26 26 23 21 22 25 25 27 27 27 27 27 19 14 7 9 10 11 11 8 5 3 3 -2 -2 -10 -5 -2 -4 -8 -6 0 -1 -2 -6 -5 -4 -9 -9 -6 -5 -5 -0 0 -2 -2 0 1 5 4 2 2 1 -0
24 22 20 16 15 19 26 23 24 23 23 22 19 13 9 2 -4 1 4 2 -1 -5 -9 -12 -9 -3 -4 -3 -2 -5 -4 -7 -8 -7 -0 -2 -6 -9 -8 -6 -6 -5 -2 -9 -9 -3 1 -1 -1 -3 -3 -4 -4 -5
7 4 8 -0 8 11 12 6 3 4 12 16 13 9 2 1 -2 3 4 -4 -4 -7 -9 -9 -11 -12 -7 -8 -9 -10 -8 -11 -10 1 1 3 -4 -5 -7 -10 -11 -14 -16 -14 -12 -7 -7 -7 -7 -7 -7 -7 -8 -8

GFSWCAN_sfc_dewp_015.txt.gz
Dewpoint
49 49 49 48 48 49 49 49 49 49 50 49 49 49 49 50 51 50 51 52 47 41 45 48 46 43 42 41 36 39 37 36 31 27 24 26 26 29 28 30 30 29 27 23 24 17 17 31 32 29 31 35 39 39
48 48 48 48 48 49 49 49 49 48 48 50 49 49 50 50 50 51 50 53 51 46 45 48 48 48 47 42 43 40 37 38 37 32 29 32 30 33 27 25 32 26 27 27 27 27 30 33 33 35 38 39 39 39
48 48 48 48 48 48 48 49 49 49 48 47 47 47 48 50 51 51 51 51 47 42 43 44 45 48 48 48 46 40 40 43 41 39 37 31 24 30 29 30 29 32 34 30 30 30 32 33 35 38 40 40 40 40
48 48 48 48 48 48 48 48 48 48 47 47 48 48 48 49 51 52 51 50 45 40 35 41 48 46 48 50 49 45 46 45 43 39 34 32 27 35 29 30 31 32 35 32 32 33 37 39 39 40 41 41 40 40
48 48 48 48 48 48 48 48 47 47 48 48 49 49 50 50 51 52 50 50 50 42 36 38 45 47 47 49 49 48 46 44 40 36 33 32 30 33 33 31 32 36 32 30 29 33 36 34 40 41 40 40 39 38
48 48 48 48 48 48 47 46 47 47 48 48 49 49 49 49 52 48 42 50 50 48 39 34 43 44 45 48 48 47 47 45 42 38 34 36 38 34 34 34 37 38 38 34 32 35 36 38 41 41 40 40 40 29
47 47 47 47 47 48 48 47 46 47 48 48 48 49 48 49 50 44 37 47 48 47 39 36 34 41 44 45 43 45 45 44 43 39 35 36 36 38 33 32 35 38 39 39 40 41 38 40 40 41 37 32 29 24
46 46 46 46 47 47 47 47 47 47 48 48 49 49 49 49 49 48 49 47 48 43 39 34 33 35 43 37 38 42 39 41 41 39 38 36 36 35 33 38 39 38 38 38 40 41 40 40 38 32 25 23 24 25
45 45 45 45 46 47 47 47 48 47 47 49 49 48 47 47 46 48 47 47 48 43 36 33 31 30 40 38 37 37 39 34 39 36 36 37 34 34 38 38 38 39 39 39 41 40 40 38 32 24 26 30 30 30
45 45 45 45 45 45 47 47 48 46 48 48 46 41 39 44 47 47 44 39 39 41 38 32 37 35 41 34 34 34 34 33 33 35 39 34 35 37 37 37 39 40 40 40 37 36 30 27 29 33 33 34 32 26
45 45 45 46 46 46 47 47 48 48 47 43 43 38 44 45 43 40 36 35 37 36 38 37 36 36 39 35 35 33 33 33 32 30 35 32 31 33 35 31 32 33 36 35 34 33 33 34 34 33 33 30 26 26
45 45 44 45 45 46 46 46 45 45 44 43 42 43 39 36 35 35 34 34 34 33 34 35 35 39 36 37 35 34 33 32 31 33 32 29 30 28 31 33 34 34 35 35 35 36 36 36 36 34 28 26 27 28
45 45 45 44 44 45 45 45 45 45 43 42 39 36 38 34 34 33 32 32 32 32 34 34 34 34 35 36 33 33 32 31 33 31 30 31 31 33 33 33 34 36 36 36 36 37 34 29 27 24 26 25 27 28
44 44 44 44 43 44 44 44 44 42 41 36 34 32 32 30 30 30 31 32 32 32 33 33 32 33 32 33 32 31 31 31 29 25 23 31 34 35 35 34 32 32 30 30 29 27 27 29 28 27 27 26 25 26
44 43 43 43 43 43 43 43 43 40 36 33 32 27 26 30 32 32 32 32 32 34 33 32 32 33 31 31 31 29 25 24 25 22 30 32 33 33 32 32 30 28 28 27 26 26 26 26 26 26 27 27 28 24
43 42 42 43 44 43 43 41 38 35 30 32 31 30 32 31 32 32 32 32 34 33 33 32 31 30 28 29 27 26 22 18 24 29 33 33 32 32 33 33 29 29 28 28 28 28 27 25 24 27 27 26 22 21
42 41 43 43 43 41 41 36 32 30 27 30 30 32 32 32 32 32 33 33 36 33 30 30 23 23 28 26 25 29 25 29 31 32 32 32 33 33 32 30 30 30 30 29 28 27 27 27 25 25 25 28 28 28
41 41 43 43 42 38 35 35 29 28 28 31 30 31 31 32 32 32 33 33 29 30 30 29 29 25 23 22 25 30 32 32 32 32 32 30 29 28 28 26 27 26 26 26 26 27 27 25 27 28 28 29 28 27
40 40 41 42 39 32 29 33 31 25 29 31 31 31 31 31 31 32 32 33 29 27 26 22 17 19 21 26 25 29 27 26 28 27 27 27 27 27 27 27 27 27 27 28 29 28 28 29 28 28 28 28 27 26
41 41 40 40 39 29 28 27 32 27 27 29 31 30 30 30 30 31 32 32 32 29 23 19 21 23 24 25 26 25 25 26 26 24 25 26 27 27 27 27 27 27 27 27 27 24 27 26 27 28 27 26 26 28
37 38 38 35 34 33 32 30 30 31 31 29 30 29 28 30 29 30 31 31 26 28 25 25 22 25 27 27 26 26 27 27 26 24 24 24 26 27 27 27 26 26 24 25 25 24 24 24 25 26 26 26 27 28
36 38 33 35 31 31 30 32 31 31 29 29 29 29 26 26 26 28 29 27 24 24 27 25 27 27 29 30 29 28 28 28 27 26 26 25 24 23 23 24 23 20 22 22 21 20 20 21 22 20 21 22 24 25
37 35 33 31 27 26 18 32 29 28 25 26 29 26 25 25 27 29 25 26 28 28 27 28 29 30 28 26 25 23 25 25 23 23 23 24 23 20 20 21 19 17 16 17 18 18 15 14 15 14 16 18 18 19
35 29 27 26 27 19 23 18 27 25 23 24 24 23 24 25 26 24 20 23 28 28 26 26 28 27 26 24 22 20 20 21 22 20 21 20 20 20 19 18 16 13 12 12 13 11 10 9 9 11 12 12 12 13
24 16 26 15 25 24 10 6 17 18 13 13 21 20 19 22 16 19 13 23 25 24 24 24 26 25 23 23 22 19 18 19 19 18 18 17 13 12 13 13 14 12 9 5 4 6 6 6 7 7 8 8 9 10
20 18 22 19 13 21 11 8 8 12 14 20 22 21 20 20 18 16 20 23 23 23 23 22 23 22 21 21 19 16 14 16 17 15 14 12 10 5 2 2 3 4 8 3 3 2 3 3 4 4 5 6 7 9
14 12 20 28 26 25 25 25 24 20 20 21 19 16 20 18 16 18 21 21 22 22 24 24 23 21 20 16 13 12 11 11 10 14 12 11 9 8 3 -4 -1 3 6 3 -2 -1 1 1 1 1 3 5 9 9
18 21 19 22 25 27 23 23 22 22 23 25 23 19 18 16 14 17 19 22 21 21 19 18 18 17 14 12 10 7 7 7 12 11 10 7 5 -0 -2 -4 -3 7 -2 -5 -8 -2 -1 0 0 2 4 6 5 6
20 23 23 20 18 21 22 21 22 25 27 25 17 16 13 13 13 15 16 17 18 16 12 11 11 11 10 9 6 4 -1 -4 -5 -9 -13 -15 -13 -6 -0 -10 -11 -9 -10 -9 -0 4 4 4 5 6 8 6 1 -1
18 19 14 7 16 19 22 24 24 25 26 21 19 15 12 11 12 14 13 13 10 8 6 3 -1 0 -11 -10 -10 -4 -3 -9 -10 -9 -14 -14 -6 -3 -12 -11 -11 -11 -11 -13 -7 -5 -2 -6 -5 -7 -5 -4 -2 -2
25 25 23 21 19 22 24 23 27 27 27 21 18 12 7 7 6 9 9 4 4 2 -1 -7 -6 -15 -9 -11 -13 -14 -10 -11 -13 -8 -8 -10 -13 -15 -14 -11 -12 -13 -14 -13 -14 -15 -11 -12 -16 -16 -15 -14 -13 -9
23 21 16 12 13 16 13 17 22 21 21 21 14 8 3 -6 -8 -0 2 -4 -6 -9 -13 -18 -13 -9 -10 -9 -12 -13 -8 -12 -14 -15 -12 -10 -14 -16 -15 -14 -18 -19 -20 -20 -19 -18 -18 -19 -20 -20 -21 -19 -17 -12
5 3 7 -0 5 7 9 -0 -2 5 7 12 2 0 -3 -2 -4 0 2 -8 -7 -10 -11 -13 -14 -16 -13 -13 -13 -14 -13 -16 -16 -5 -5 -4 -9 -9 -16 -20 -22 -24 -23 -23 -22 -23 -20 -21 -23 -22 -22 -21 -19 -16

GFSWCAN_sfc_dewp_018.txt.gz
Dewpoint
49 49 48 48 48 49 49 49 49 49 49 49 49 49 50 51 50 52 50 51 45 42 44 46 45 41 41 39 36 39 37 36 31 27 25 25 23 28 28 28 31 29 27 21 21 13 16 28 32 27 30 32 37 37
48 48 48 48 48 48 48 48 49 50 49 47 47 48 49 50 50 52 50 53 50 46 45 48 48 47 46 41 42 39 37 37 37 31 26 27 29 29 26 24 32 26 27 25 25 25 28 30 33 34 34 33 38 38
48 48 48 48 48 48 48 48 48 48 47 48 48 48 49 51 51 52 52 49 45 42 43 44 44 48 48 48 45 39 38 41 38 37 32 29 23 29 26 28 28 32 32 28 28 28 31 32 33 35 36 37 38 40
48 48 48 48 48 48 48 47 46 47 48 48 48 49 50 50 51 51 50 49 42 39 35 41 47 46 48 50 48 44 44 42 40 38 32 32 26 33 28 29 29 32 33 30 30 32 33 34 37 36 37 40 40 40
48 47 47 48 48 48 47 47 47 47 48 48 48 49 51 50 50 51 50 49 48 39 35 37 44 45 47 49 47 46 43 42 39 34 33 31 29 32 33 32 30 34 31 29 28 30 30 31 34 40 40 40 41 40
47 47 47 47 47 47 47 47 47 47 48 48 48 48 49 50 49 42 40 48 50 46 40 35 42 43 45 47 47 46 46 43 41 37 33 35 37 33 33 32 34 35 35 33 30 32 35 35 39 40 40 40 39 33
47 48 47 47 47 46 46 47 47 47 48 48 48 48 48 48 49 41 36 45 47 45 38 35 34 40 42 44 43 43 44 43 41 38 33 34 36 36 30 28 34 35 37 38 39 39 37 39 39 41 40 32 28 24
47 47 47 47 47 47 46 46 46 47 48 49 48 48 48 49 48 47 48 48 47 41 37 32 32 35 42 37 38 42 38 41 41 39 37 34 36 35 33 37 38 39 39 39 39 40 39 39 36 29 27 24 25 30
45 46 46 46 47 47 47 46 46 47 49 48 47 47 47 46 46 47 47 47 46 42 34 32 30 30 41 38 37 37 39 34 39 35 35 38 34 34 36 35 36 37 38 39 40 40 39 32 25 26 28 32 34 34
45 45 45 45 46 46 47 47 46 48 48 46 46 41 39 44 46 46 43 39 39 38 39 34 37 35 41 34 34 34 34 34 34 33 39 34 34 35 31 32 33 34 36 39 35 32 28 32 34 34 35 35 35 33
45 45 46 46 46 46 47 47 47 47 46 44 39 38 44 44 42 37 34 34 37 34 37 36 36 35 39 35 35 32 34 33 32 32 34 32 31 29 33 34 34 35 35 34 34 35 35 35 35 35 34 33 31 29
45 44 45 45 46 47 46 46 46 44 42 43 42 42 39 37 35 34 33 34 34 33 34 35 35 39 35 36 35 34 32 32 30 34 32 29 28 31 33 34 35 35 35 34 34 35 35 36 36 34 32 30 29 29
43 44 44 44 44 45 45 45 44 44 43 41 37 33 35 34 33 26 31 32 32 32 33 33 34 33 35 36 33 33 32 31 33 30 30 31 35 36 35 36 35 36 34 32 32 32 32 31 30 28 28 28 28 28
43 43 44 44 43 44 44 44 43 42 41 36 34 33 32 31 30 30 31 32 32 32 32 33 32 33 32 33 32 32 31 31 28 25 25 31 33 33 34 35 34 31 29 30 29 28 28 30 29 28 27 27 26 27
43 43 42 43 43 43 43 42 42 40 37 33 32 28 28 30 31 32 32 32 32 34 33 33 33 34 32 31 30 29 22 18 21 19 29 32 33 33 33 32 28 27 25 26 26 27 26 25 26 27 27 27 27 26
42 42 41 43 43 42 41 39 38 36 33 32 31 30 31 31 31 32 32 32 34 34 33 33 31 29 28 29 26 23 21 16 19 29 32 33 32 32 33 32 28 29 30 29 29 29 28 25 23 26 26 25 21 21
42 40 43 43 42 40 40 35 32 30 28 29 31 33 32 32 32 32 33 33 35 33 31 30 22 23 28 24 24 27 23 26 31 32 33 33 32 33 33 32 30 30 29 28 27 27 27 27 23 24 26 28 28 27
38 39 41 42 40 36 34 32 28 28 29 31 30 30 31 32 32 32 32 32 29 31 29 27 28 20 18 17 19 27 30 31 31 31 32 34 33 31 29 26 26 26 27 28 27 28 27 26 27 27 28 28 26 26
39 39 40 41 37 31 30 31 30 25 29 31 30 30 31 30 31 32 32 32 26 26 25 20 16 18 20 23 23 28 30 27 32 31 28 27 27 27 27 28 28 28 28 28 27 26 26 27 26 26 25 25 24 25
39 40 39 39 37 30 28 27 30 28 27 30 30 29 29 29 30 31 32 32 28 24 22 20 21 22 22 24 25 25 27 26 26 24 24 26 27 27 26 26 26 26 26 25 24 22 21 21 21 21 20 20 22 22
37 37 37 34 32 31 29 29 29 31 30 29 30 29 27 29 29 29 30 31 30 27 25 24 20 25 27 26 26 26 27 26 25 24 24 25 26 25 24 24 23 22 21 19 18 19 19 17 17 18 14 14 16 19
35 37 30 30 29 26 28 32 30 30 29 29 28 28 26 25 26 27 29 27 27 26 28 25 27 29 29 27 27 27 27 26 26 25 23 22 21 21 20 19 18 17 17 15 16 14 12 14 14 12 11 11 13 15
35 32 25 25 18 18 24 31 21 25 20 25 27 25 24 25 27 28 24 27 28 28 28 29 28 28 26 26 23 22 23 21 20 21 21 21 21 20 17 15 13 8 9 10 12 13 10 7 8 6 8 8 9 8
31 24 26 25 25 22 24 16 27 24 19 17 19 20 21 22 23 22 22 23 27 27 27 28 27 25 25 22 18 17 19 21 19 18 19 19 17 16 16 13 11 9 8 6 6 3 4 0 1 4 3 3 3 4
16 16 21 21 25 22 17 15 20 23 11 9 15 12 19 17 16 18 19 23 23 23 23 26 26 25 22 21 19 16 16 19 18 15 14 13 10 10 10 10 10 8 7 -0 -1 -3 -3 -2 -3 -2 -1 -1 2 3
15 17 21 18 15 21 9 8 15 17 13 14 15 19 16 15 13 17 19 20 22 22 21 22 21 20 19 20 17 15 12 14 17 12 10 9 7 2 -2 -3 -3 -0 5 -6 -10 -10 -5 -4 -3 -5 -4 -2 0 3
10 9 18 26 25 23 19 19 23 23 21 20 20 19 20 17 16 17 21 21 21 21 21 21 23 20 16 13 10 10 10 11 12 11 10 9 7 6 -2 -9 -7 -0 3 -2 -12 -16 -12 -6 -5 -5 -4 -1 -0 1
17 20 14 16 19 23 19 15 16 19 22 24 23 17 17 15 12 16 17 21 19 18 16 16 14 12 10 9 8 7 7 10 9 8 5 4 4 -2 -6 -8 -7 3 -8 -13 -16 -12 -11 -6 -3 -2 -1 -1 -5 -9
18 20 19 13 13 15 16 16 18 23 25 23 16 13 12 11 11 12 15 16 16 14 11 10 9 9 8 6 3 1 -1 -6 -8 -10 -13 -16 -15 -8 -7 -15 -16 -14 -17 -15 -7 0 0 1 -1 -4 -11 -7 -5 -10
14 17 10 3 9 12 17 21 16 22 21 19 17 13 11 9 11 13 12 11 8 4 3 1 1 -1 -9 -11 -12 -8 -11 -17 -14 -12 -16 -17 -11 -8 -18 -18 -16 -14 -17 -23 -19 -16 -8 -15 -13 -18 -17 -18 -19 -21
25 24 22 19 19 18 21 22 26 24 23 15 14 8 7 5 6 8 5 2 2 -1 -4 -12 -12 -20 -14 -15 -17 -17 -13 -15 -18 -13 -13 -16 -16 -20 -20 -17 -19 -23 -26 -26 -27 -26 -25 -24 -27 -27 -25 -22 -22 -23
19 8 7 9 11 10 9 10 5 17 18 18 6 3 -4 -4 -8 -1 -1 -4 -10 -10 -14 -21 -15 -11 -13 -15 -19 -20 -12 -16 -16 -17 -17 -16 -15 -15 -19 -19 -25 -27 -26 -26 -27 -27 -27 -27 -28 -28 -28 -27 -26 -25
5 6 8 8 10 14 6 -3 -6 -1 9 8 -3 -5 -7 -4 -5 -2 -0 -6 -8 -11 -13 -15 -14 -18 -17 -16 -16 -17 -17 -19 -17 -7 -7 -7 -13 -13 -20 -24 -27 -27 -25 -27 -28 -29 -26 -25 -27 -28 -28 -29 -28 -27

GFSWCAN_sfc_dewp_021.txt.gz
Dewpoint
49 49 48 48 48 49 49 49 49 49 49 49 49 49 49 49 50 52 51 52 47 43 46 48 44 41 41 41 39 41 39 39 35 33 34 30 32 30 28 28 31 29 30 29 24 24 23 28 32 32 35 34 34 38
48 48 48 48 48 48 49 49 49 47 47 48 49 50 49 49 50 52 51 53 50 47 46 49 49 49 48 42 42 41 40 39 39 35 32 32 33 32 29 29 32 28 31 31 28 30 31 31 36 36 35 34 36 39
48 47 48 48 48 48 48 48 47 47 47 48 49 50 49 49 50 51 52 51 46 44 45 46 46 49 49 49 47 42 40 42 39 38 35 34 33 33 32 31 32 32 32 32 31 31 30 32 33 34 35 37 37 39
47 48 48 48 48 47 46 47 48 47 48 49 49 50 50 50 50 51 50 50 44 42 37 43 46 47 48 50 49 46 43 42 41 39 36 34 35 34 32 32 33 33 33 32 32 33 33 33 35 37 37 37 38 39
47 47 47 48 47 46 47 47 48 48 48 50 50 49 50 50 50 51 51 50 48 41 38 40 45 45 48 48 46 44 43 42 41 37 35 35 33 35 34 34 33 34 33 34 33 33 34 33 33 37 39 39 40 40
47 47 47 46 46 47 47 47 47 48 48 48 49 50 50 50 48 48 43 48 48 46 42 37 42 43 45 46 46 46 46 43 41 39 36 36 38 36 34 33 34 34 35 34 33 35 35 36 36 39 40 40 40 39
47 47 46 46 46 47 47 47 48 48 48 48 48 49 50 49 50 41 38 46 46 45 40 36 37 40 42 44 44 44 46 43 42 40 36 37 39 36 34 33 37 38 38 39 39 39 39 39 40 41 34 28 29 29
47 47 47 46 46 46 46 47 48 48 48 48 48 48 49 48 48 48 48 47 47 40 38 34 33 37 42 40 38 42 40 42 42 39 37 36 38 37 35 36 34 34 35 40 39 41 40 35 29 26 28 32 34 35
46 46 46 47 47 46 46 47 48 48 47 47 47 48 48 47 46 47 47 46 46 42 35 31 32 33 42 38 37 39 39 36 39 36 37 40 34 33 32 32 33 34 34 35 36 29 30 31 32 34 35 35 34 33
45 46 46 46 46 46 46 47 48 47 47 46 46 42 39 45 46 45 42 39 39 39 40 33 36 35 41 36 35 35 35 35 35 37 39 35 34 31 34 35 35 34 34 35 35 32 34 35 34 35 34 35 34 33
46 46 46 46 46 46 47 46 46 46 47 44 41 40 44 44 42 38 35 35 36 34 37 36 37 36 39 37 35 35 35 34 33 34 35 33 30 29 33 35 35 35 36 36 37 37 36 35 34 34 34 33 34 33
45 45 46 46 46 45 45 45 46 44 43 44 43 43 41 38 35 35 33 34 34 33 34 35 35 39 36 38 37 35 33 33 32 35 33 30 30 34 34 34 33 33 33 33 34 34 34 33 33 33 33 32 30 30
44 44 44 45 45 45 44 44 44 44 42 41 37 34 36 34 32 26 31 33 32 33 33 34 34 34 36 36 34 35 33 32 34 32 30 30 34 34 35 35 33 32 32 32 31 32 31 30 30 30 29 30 30 30
42 43 44 44 44 44 44 44 43 42 40 34 33 32 29 32 31 31 32 33 32 33 33 34 33 34 33 33 33 33 31 32 30 27 27 32 33 33 35 35 33 32 30 30 28 28 28 30 29 29 28 28 28 29
42 42 42 43 43 43 42 42 42 41 38 33 33 27 28 31 32 32 32 33 32 34 33 33 33 34 32 32 31 30 26 24 25 24 29 32 33 34 33 32 28 27 26 28 28 28 26 26 26 27 28 28 28 26
42 41 40 42 42 41 40 39 38 37 34 33 32 30 31 31 31 32 32 32 34 33 33 33 32 30 29 31 28 27 25 21 24 30 32 32 33 33 33 31 30 31 30 30 29 28 28 27 27 28 28 29 27 28
40 36 40 42 41 39 39 35 35 31 31 31 31 33 32 32 32 32 33 32 35 33 32 31 28 26 30 27 26 29 26 28 32 32 33 33 33 33 34 34 31 29 28 28 29 29 28 28 26 27 26 26 26 26
36 37 40 41 38 36 35 32 30 30 30 31 30 30 32 32 32 32 32 32 32 32 31 29 29 26 24 20 24 28 30 32 33 32 34 34 34 34 32 28 28 29 28 28 27 26 26 25 24 23 22 21 21 22
38 38 39 39 36 32 30 30 30 28 30 31 31 31 31 30 31 32 32 32 30 28 28 24 21 23 25 26 27 29 30 31 32 31 29 28 29 28 28 28 28 28 26 24 23 22 22 21 20 19 16 16 17 18
38 38 37 38 35 30 27 27 30 29 28 30 31 29 29 29 30 32 32 32 30 27 24 22 23 24 25 26 27 29 32 30 29 27 26 27 26 25 25 24 24 23 20 20 20 18 17 16 16 15 14 13 14 13
35 35 35 33 30 31 30 28 28 31 30 29 30 29 28 29 29 29 30 31 31 27 25 28 26 28 28 28 28 28 28 28 26 27 26 25 24 22 21 21 20 17 16 16 16 14 13 13 12 11 12 12 12 13
34 35 29 29 25 26 29 31 29 28 29 28 25 27 23 24 26 28 30 28 28 27 29 28 30 30 27 26 25 26 26 26 25 24 23 23 21 19 16 15 14 14 12 12 12 12 10 10 9 9 8 9 9 10
32 28 24 23 20 21 24 30 22 25 21 20 27 22 24 26 27 28 24 28 28 28 29 29 28 28 25 25 23 22 21 21 21 21 21 20 19 17 14 12 10 9 8 7 7 7 6 4 5 5 6 6 6 6
29 24 20 15 17 19 21 21 26 24 21 17 18 14 18 19 22 21 21 24 26 27 27 28 27 24 23 21 19 20 20 18 17 17 18 17 15 14 13 11 9 7 5 4 3 2 2 1 -1 2 1 1 2 4
16 21 16 18 19 13 18 18 21 21 20 16 14 11 21 21 14 14 19 21 21 21 23 26 27 25 20 19 18 17 18 20 16 12 12 12 11 10 8 6 7 5 5 3 1 -0 -1 -1 -1 -1 -0 -0 1 2
14 21 20 20 20 20 17 6 14 16 12 9 15 17 18 19 15 14 15 17 20 19 20 22 21 18 16 18 16 15 13 15 14 10 8 7 5 5 3 1 1 1 4 2 -1 -2 -2 -3 -2 -3 -2 -0 -1 1
15 17 22 26 25 21 13 13 20 18 14 17 18 16 17 14 9 14 19 18 18 18 18 17 20 18 14 13 12 12 12 12 12 10 8 6 5 4 2 0 -1 1 3 1 -3 -5 -6 -5 -4 -3 -1 1 2 0
22 20 14 11 13 19 11 11 13 15 18 23 21 13 12 14 13 14 15 18 18 16 14 13 13 12 10 8 9 10 10 9 8 7 6 5 4 3 0 -1 -2 1 -4 -6 -5 -5 -4 -4 -2 -1 -0 -1 -1 -1
18 18 13 8 10 14 15 14 14 21 23 20 13 11 10 10 10 10 13 14 15 14 11 9 9 9 7 5 2 1 0 2 1 -4 -5 -3 -4 0 1 -3 -4 -5 -6 -7 -6 -1 2 3 2 -1 -6 -6 -6 -6
13 19 10 6 12 8 14 22 13 17 19 17 15 12 9 8 9 11 11 10 7 5 2 1 0 3 -2 -2 -2 -1 -3 -5 -3 -2 -3 -4 -3 -1 -3 -5 -6 -5 -9 -9 -10 -9 -5 -7 -6 -9 -10 -10 -10 -10
20 21 13 10 9 11 14 9 21 24 16 11 10 8 4 6 6 6 4 2 2 1 1 -3 -4 -10 -4 -6 -5 -6 -4 -4 -11 -7 -6 -6 -6 -5 -5 -6 -7 -10 -11 -11 -12 -12 -12 -10 -12 -13 -12 -13 -14 -15
8 5 10 7 9 8 6 6 3 15 15 12 2 3 0 -1 -5 3 2 -0 -3 -3 -9 -13 -9 -3 -7 -8 -11 -10 -11 -7 -6 -7 -9 -8 -5 -5 -5 -7 -11 -12 -11 -11 -12 -13 -14 -13 -13 -14 -14 -15 -16 -16
6 5 8 11 12 14 6 -3 -5 1 8 3 -2 -5 -4 -2 -4 1 1 -3 -1 -1 -4 -6 -6 -8 -10 -11 -8 -7 -13 -9 -12 -7 -4 -4 -6 -4 -5 -8 -12 -12 -12 -12 -12 -14 -13 -14 -13 -15 -15 -17 -18 -18

GFSWCAN_sfc_dewp_024.txt.gz
Dewpoint
46 46 44 47 48 48 49 49 49 49 49 49 49 49 49 49 50 55 55 55 51 49 45 47 44 43 43 43 44 42 41 41 42 44 44 38 41 33 29 26 31 32 35 37 32 35 30 26 31 30 33 35 35 34
45 47 48 48 48 48 49 49 48 48 48 48 48 49 49 49 50 53 52 54 54 49 49 51 50 50 48 44 45 44 43 41 42 43 43 42 38 36 35 33 32 30 33 34 30 31 29 32 33 35 37 36 36 37
48 48 48 48 48 48 48 48 48 48 48 48 48 49 49 49 50 52 53 54 54 52 48 48 47 50 51 51 49 44 46 44 42 44 43 44 38 40 37 36 34 33 33 34 31 27 29 31 32 32 33 35 35 35
48 48 48 48 47 47 47 47 47 47 48 48 48 49 49 49 50 52 52 53 52 50 43 47 48 48 50 51 49 48 47 46 43 44 47 42 43 38 40 35 36 34 34 32 33 32 31 31 32 34 35 37 38 38
47 47 47 47 47 47 48 47 47 48 48 49 49 48 49 50 50 53 53 53 51 45 46 48 48 47 48 47 46 46 46 44 45 45 43 44 40 41 40 39 37 34 32 35 34 34 34 34 35 38 38 39 40 41
46 46 46 46 46 47 47 47 48 49 49 49 49 50 49 50 50 55 49 52 49 50 50 46 46 46 47 48 48 48 46 46 44 45 44 40 38 42 39 38 38 38 39 39 37 40 41 40 39 41 41 36 36 35
46 46 46 46 46 47 47 47 48 49 49 49 49 48 48 49 53 46 44 49 47 49 50 44 46 44 45 47 46 47 48 47 46 44 42 43 42 40 39 39 36 36 35 37 39 41 40 39 37 34 34 35 36 36
46 46 46 46 47 47 47 47 47 48 49 49 49 49 49 49 50 51 50 47 47 44 47 43 41 46 45 45 43 44 45 48 44 41 41 41 41 42 40 35 35 35 35 39 35 37 37 33 33 35 36 36 35 34
46 46 46 46 46 46 47 46 46 47 47 48 48 49 52 51 52 51 46 46 50 47 44 38 42 39 43 41 41 43 44 39 42 41 42 43 39 36 33 33 34 35 35 36 35 35 35 36 36 36 35 34 34 34
46 46 46 46 46 46 46 46 46 47 46 47 50 48 47 49 46 46 46 47 46 46 44 37 40 39 41 42 39 41 41 38 37 40 41 40 32 33 34 35 35 35 36 37 35 35 35 34 34 34 35 35 33 32
46 46 46 46 46 46 46 46 46 47 49 50 48 45 49 45 46 44 41 41 41 38 40 39 41 39 41 40 38 40 37 38 36 37 38 36 30 31 35 35 35 36 37 37 37 36 34 34 35 34 32 33 34 34
46 45 45 45 44 45 45 45 46 48 48 47 48 46 45 42 42 37 36 37 38 36 38 39 39 41 40 41 39 38 36 36 35 38 36 33 31 34 34 34 34 34 34 33 33 32 32 32 32 33 32 30 30 30
44 44 44 44 44 44 44 44 44 44 44 47 43 39 41 38 35 36 33 35 35 35 35 36 35 39 40 41 37 38 35 35 37 34 33 31 33 34 34 32 31 30 31 30 28 27 27 28 30 30 31 30 34 30
43 43 43 44 44 44 43 43 43 44 45 40 38 34 35 34 33 34 35 35 34 34 36 38 36 39 37 35 36 35 32 33 32 31 30 31 33 34 33 33 30 28 32 28 28 28 29 29 29 33 33 33 33 30
42 42 42 43 43 43 42 42 42 42 39 35 37 30 31 32 33 33 33 34 34 35 36 36 36 39 35 34 34 33 31 30 31 30 30 33 34 35 35 32 30 28 32 31 30 29 32 32 31 30 31 29 29 31
41 40 39 42 41 41 40 41 40 40 36 35 34 32 33 33 32 33 33 32 35 34 35 35 34 34 32 34 32 32 31 28 31 33 33 34 34 35 32 29 31 32 31 29 30 30 31 31 31 28 29 26 27 27
39 37 39 41 40 39 39 38 38 34 34 34 32 33 33 33 32 32 33 34 35 35 32 35 33 30 33 31 30 32 32 33 34 34 34 34 34 35 34 35 33 31 30 31 30 28 28 27 26 23 21 19 19 21
37 39 39 40 38 38 37 36 36 33 30 32 32 32 34 33 34 33 34 34 36 35 34 33 32 32 31 29 31 33 32 33 34 34 35 35 35 35 35 29 30 30 29 28 27 24 22 23 21 19 16 16 16 17
37 38 38 39 38 37 34 34 33 30 31 33 33 33 34 34 34 34 34 34 34 35 35 33 32 30 32 33 35 31 33 34 33 32 30 32 33 30 30 30 29 27 25 22 21 20 20 18 18 16 15 14 15 16
36 37 37 37 38 35 32 32 34 30 29 31 32 30 31 31 33 33 34 35 34 34 32 31 30 31 32 31 32 35 35 35 32 29 27 28 28 28 28 27 25 22 21 20 18 17 17 17 14 13 14 13 16 15
37 37 35 38 36 34 31 31 30 31 31 29 31 30 30 32 32 32 32 33 35 30 28 29 30 30 30 30 31 32 33 31 29 30 28 26 25 24 23 21 19 18 19 20 19 16 16 15 13 12 15 16 16 16
35 34 35 34 33 33 31 32 31 32 30 31 31 30 31 32 31 32 33 33 29 28 30 30 31 31 28 26 26 28 28 28 28 27 26 25 24 23 19 18 19 18 16 16 14 15 14 10 11 12 13 14 13 14
33 33 34 33 28 29 27 31 30 28 26 28 29 27 29 30 30 30 29 28 28 28 30 29 28 29 27 27 25 24 24 24 24 24 23 21 19 18 17 15 15 15 14 9 9 10 11 7 9 10 12 12 12 13
31 28 26 26 26 24 27 25 25 25 27 26 26 23 25 27 28 27 23 24 23 24 25 28 27 25 25 23 21 21 22 23 22 22 23 21 19 17 15 12 11 10 8 7 8 10 9 10 7 9 9 9 10 10
25 24 25 22 25 23 21 22 22 22 21 23 23 24 25 27 25 22 20 19 22 22 23 25 25 24 21 21 20 19 20 21 19 16 16 17 15 13 10 8 8 7 8 10 9 8 8 7 7 7 7 8 6 6
20 24 23 23 23 22 22 21 21 22 22 21 23 25 27 26 18 15 16 19 21 20 21 21 23 20 17 18 17 15 15 19 18 14 11 10 9 11 9 8 9 9 8 8 7 5 5 5 5 4 6 6 4 5
20 22 24 26 25 24 25 26 26 25 21 21 24 23 23 16 14 16 18 18 18 19 18 18 19 17 15 14 14 14 15 15 15 12 9 8 7 7 8 7 5 5 6 6 5 4 3 3 3 4 5 7 6 5
23 24 21 24 25 26 22 22 21 20 23 24 25 19 17 17 15 16 16 19 19 17 16 15 14 13 12 12 14 15 14 12 11 10 10 9 8 9 7 7 5 4 4 4 3 3 3 4 4 5 5 3 3 3
24 26 25 17 21 23 23 22 22 24 24 24 23 18 14 12 14 14 15 16 19 18 16 14 14 14 12 10 10 10 11 11 7 3 3 6 7 8 7 7 6 5 5 3 2 2 3 5 4 3 1 1 1 2
24 26 22 18 19 20 25 26 26 26 22 21 18 14 11 12 12 14 15 15 14 12 11 10 11 13 10 11 10 8 8 8 7 6 4 3 5 6 6 6 5 5 3 3 2 1 1 1 1 1 -0 -1 0 -2
26 27 22 22 21 24 23 21 25 24 22 18 17 15 11 11 12 11 10 10 10 11 11 10 8 8 8 7 7 6 6 7 3 3 3 5 5 5 6 5 5 4 3 1 0 -0 -2 -1 -0 -2 -2 -4 -6 -6
21 19 20 17 21 21 20 21 21 23 20 18 12 12 10 11 7 9 9 11 11 8 2 6 7 8 7 7 5 6 -2 4 5 3 2 4 5 6 5 5 4 3 1 -1 -1 -2 -3 -4 -3 -4 -4 -5 -7 -8
19 19 18 19 19 18 17 16 12 14 15 13 9 9 8 9 4 8 9 8 9 8 7 7 8 8 5 2 4 5 0 4 1 1 0 -0 -1 1 3 4 3 1 -1 -1 -1 -2 -4 -5 -5 -6 -6 -9 -10 -10

GFSWCAN_sfc_dewp_027.txt.gz
Dewpoint
43 43 43 44 44 45 45 45 47 48 48 49 49 49 49 49 50 53 56 57 46 44 43 43 36 36 35 40 44 44 42 43 44 43 46 41 42 36 32 27 33 33 37 37 37 35 30 25 28 26 34 31 30 33
43 43 44 45 45 45 45 46 47 48 49 49 49 49 49 49 50 52 54 56 55 47 49 51 51 50 46 41 41 45 39 43 42 41 47 48 42 40 38 32 31 31 33 35 31 32 31 29 28 29 32 34 34 34
44 44 44 45 45 47 48 48 48 48 48 48 48 49 49 50 50 52 54 56 52 52 49 47 47 50 50 52 53 44 48 43 44 48 46 48 41 43 39 38 35 32 33 34 32 24 25 26 29 31 32 34 34 35
44 46 48 48 48 48 48 48 48 48 48 48 48 48 49 49 50 51 53 55 51 51 48 48 49 49 50 50 49 51 48 49 48 48 52 44 44 41 43 38 36 35 33 31 32 30 28 29 32 35 37 39 39 39
47 47 47 47 47 47 47 47 47 48 48 48 48 49 49 49 50 54 54 54 53 46 47 49 49 48 48 48 47 48 48 47 46 48 45 47 44 44 44 42 40 34 31 37 35 35 38 37 39 41 41 40 39 39
46 46 47 47 47 47 47 47 47 47 48 48 48 49 49 49 51 52 52 52 50 51 51 48 49 47 48 48 46 46 47 46 45 47 48 42 41 44 43 39 38 37 37 37 37 40 41 41 39 37 37 37 36 36
47 47 47 47 48 48 49 48 48 48 48 48 48 48 49 49 51 51 42 50 49 52 51 47 46 47 47 47 48 48 48 48 47 47 47 46 42 42 42 40 38 36 36 38 38 40 40 37 36 37 37 37 36 35
46 46 47 47 47 47 48 48 48 48 48 48 48 48 48 48 49 50 48 47 49 46 48 45 44 48 47 49 47 47 49 49 46 44 45 45 43 46 41 37 36 35 38 37 36 37 36 37 37 37 36 34 33 33
46 46 46 46 46 46 46 48 48 48 48 48 49 49 53 53 52 49 46 49 53 49 45 39 42 39 46 44 46 46 47 44 44 43 44 44 40 39 35 35 35 36 36 36 37 37 37 36 35 34 33 33 33 33
46 46 46 46 46 46 45 46 47 48 49 49 51 46 49 51 48 47 48 49 48 47 45 41 44 43 43 44 42 42 44 41 39 41 43 42 35 34 35 35 35 36 37 37 36 35 35 33 33 33 32 31 30 30
45 45 45 46 45 45 45 46 47 47 48 51 50 46 49 46 48 46 43 43 44 42 41 40 43 41 44 41 39 42 39 40 37 39 39 38 34 33 35 35 36 37 37 37 37 35 34 33 32 31 31 33 32 31
45 45 44 44 44 45 44 44 46 48 49 49 49 48 48 45 44 39 37 40 40 38 39 40 40 40 42 43 40 41 37 38 36 39 39 34 32 35 34 35 35 34 34 34 33 32 31 31 31 29 28 29 31 31
44 44 44 44 43 44 44 44 44 44 46 49 46 42 42 40 37 34 34 35 34 38 37 39 37 41 41 42 39 39 36 37 39 36 33 33 33 34 34 33 32 31 31 31 28 27 27 28 30 31 30 31 35 31
43 43 43 43 43 42 43 44 44 46 45 42 40 35 36 34 34 34 35 35 34 36 39 41 38 40 40 37 38 34 34 37 33 33 33 32 33 34 34 32 30 27 33 28 28 29 30 29 31 33 34 33 33 30
41 42 41 42 42 42 42 43 43 44 41 36 37 31 32 33 33 33 34 35 35 37 39 40 39 40 37 36 38 35 32 32 33 33 33 33 34 35 33 31 29 29 32 32 29 31 34 35 31 30 30 27 27 28
40 40 39 42 41 41 41 41 41 41 39 35 35 32 33 33 32 33 33 33 35 36 37 40 37 36 34 36 33 34 33 32 32 34 35 35 34 35 34 31 30 33 32 31 31 32 32 31 33 28 25 23 30 26
39 38 40 41 40 40 41 40 40 35 36 35 33 34 34 33 32 33 33 33 35 35 33 36 34 32 35 33 32 35 33 34 35 35 35 35 35 35 32 34 35 33 31 31 31 30 29 26 25 21 19 18 18 18
38 39 39 40 40 39 37 37 37 33 32 35 33 33 35 34 34 34 36 37 38 37 36 34 35 34 33 31 32 33 34 35 34 34 34 36 36 36 36 32 30 31 31 30 27 24 23 23 21 19 17 15 14 15
37 38 39 40 39 38 34 34 35 31 33 34 35 35 35 35 36 35 36 38 37 37 36 34 35 32 33 34 33 33 34 35 33 32 34 35 35 35 31 31 30 29 28 25 24 22 21 19 18 16 15 13 15 17
37 37 38 39 39 35 31 31 33 31 30 32 34 32 32 33 35 35 35 37 35 34 31 30 29 30 30 31 33 34 35 34 32 31 31 33 35 33 30 30 28 26 23 21 19 20 19 19 15 13 15 15 17 17
36 35 37 39 37 34 31 31 30 31 30 29 31 30 30 34 34 34 35 36 34 30 29 31 32 31 30 30 31 34 34 35 33 33 31 29 29 28 25 24 23 23 23 24 23 19 19 16 14 14 18 19 18 18
34 36 38 38 35 34 32 33 30 31 29 30 30 29 31 32 32 33 33 32 28 27 29 30 29 32 29 28 28 30 34 34 33 32 30 29 26 26 25 25 24 22 20 19 17 18 17 13 13 14 17 17 15 17
35 35 37 36 32 31 29 32 30 28 28 28 29 26 28 29 29 30 29 27 25 25 28 26 26 28 27 28 27 26 28 28 26 27 26 25 24 24 22 21 21 21 18 12 12 13 14 11 13 13 15 15 15 15
33 32 30 30 30 26 30 27 26 26 28 26 25 24 24 26 29 27 24 22 22 23 23 26 26 26 25 24 21 22 24 24 23 24 26 23 21 20 19 16 13 13 11 11 13 14 13 14 11 13 13 12 13 12
29 27 30 25 30 27 25 25 25 25 22 24 23 24 24 28 26 22 20 21 22 22 23 25 23 23 22 22 22 20 22 22 20 18 19 21 20 18 14 11 10 10 12 14 13 13 13 12 12 11 9 10 9 8
23 26 25 25 25 25 24 21 22 22 23 23 24 26 28 27 19 17 17 20 21 21 22 22 24 22 18 18 18 17 17 20 19 15 14 14 13 15 13 12 13 13 11 12 11 10 9 9 8 6 8 8 7 8
22 24 25 25 25 25 26 26 26 24 21 21 24 23 24 17 17 18 19 19 20 20 19 20 19 18 17 16 15 16 17 16 16 13 11 10 10 10 12 11 8 9 8 9 9 8 7 7 7 7 7 9 9 8
24 25 23 25 25 26 23 23 22 20 22 23 24 20 19 19 18 18 18 20 20 19 17 17 16 15 15 16 18 18 16 15 14 13 13 13 12 12 10 11 9 3 8 8 7 6 6 6 6 7 7 7 6 7
25 26 26 21 24 25 23 21 21 22 23 24 23 22 17 14 17 18 17 18 21 22 19 17 17 18 16 14 15 15 15 14 11 6 5 9 11 12 11 10 9 9 9 8 6 5 5 5 5 6 4 5 6 6
24 27 24 21 21 19 23 25 26 26 24 24 21 16 14 15 15 18 18 17 17 16 16 15 16 16 14 15 13 11 12 11 9 8 7 6 7 9 9 8 8 8 8 8 6 5 5 5 5 6 5 4 4 3
26 26 22 23 21 23 25 27 28 25 24 22 22 20 15 13 14 14 13 14 15 16 16 13 12 13 11 10 10 9 10 11 6 5 5 6 7 8 9 8 8 8 7 6 5 4 4 2 3 3 3 1 -0 -1
25 22 21 17 21 24 26 24 24 25 22 21 17 17 15 16 11 12 13 16 15 12 8 11 11 10 10 10 10 11 3 7 7 6 4 6 6 8 8 7 7 7 6 4 3 3 3 1 1 1 1 -1 -2 -4
22 23 21 20 21 18 22 22 19 17 18 16 14 15 13 14 7 11 13 13 12 11 10 11 12 12 9 6 8 8 6 7 4 4 4 3 1 3 4 6 6 6 4 3 3 3 1 -0 -1 -1 -3 -4 -5 -6

GFSWCAN_sfc_dewp_030.txt.gz
Dewpoint
41 41 41 42 43 43 44 45 45 45 46 47 47 46 47 47 46 46 50 54 54 51 44 43 39 38 40 44 45 45 43 44 49 45 47 46 44 40 34 29 36 36 39 37 40 35 31 26 27 27 37 38 35 34
41 41 41 42 43 44 44 45 45 46 46 46 47 47 46 46 47 50 49 52 54 54 50 53 51 50 47 45 48 47 44 43 45 44 49 50 40 40 42 36 29 34 36 39 37 37 36 30 31 31 35 35 36 38
42 43 43 43 43 44 45 45 45 44 45 47 48 48 49 49 50 51 50 52 55 52 49 47 48 51 51 53 56 48 50 45 46 50 51 50 39 47 39 42 40 32 34 39 36 27 27 29 29 30 35 38 37 38
42 43 43 42 44 44 44 44 44 44 47 48 48 48 49 49 49 50 50 53 57 50 46 49 50 49 50 50 51 53 51 53 54 53 54 43 43 44 47 41 42 36 35 32 33 31 32 32 39 41 40 41 40 40
42 42 42 43 43 44 44 44 45 47 47 48 49 49 49 49 50 52 53 56 57 46 46 48 49 48 48 49 48 50 52 51 51 50 42 49 47 48 48 46 45 35 33 41 41 39 40 40 39 40 38 37 37 37
43 44 44 44 44 45 47 47 47 47 48 48 48 49 49 49 50 52 52 53 54 52 52 48 48 47 47 47 47 49 49 50 49 50 49 46 44 48 42 43 37 38 38 38 38 40 40 40 38 38 37 37 36 36
47 47 47 47 47 47 47 47 47 47 47 48 48 49 49 49 52 52 47 50 48 54 52 45 45 47 48 48 49 47 48 49 48 49 50 47 44 45 42 43 38 36 36 38 38 39 38 38 37 37 36 35 35 34
47 47 47 47 47 47 47 47 47 47 48 48 48 49 49 49 51 52 51 48 49 49 52 44 40 47 48 50 47 49 50 49 47 45 47 48 44 49 44 38 36 36 38 37 36 37 38 37 36 35 35 34 33 33
46 45 46 47 48 48 47 47 48 48 48 48 48 48 51 51 53 49 49 49 56 50 48 39 41 38 46 45 46 47 47 43 45 44 46 44 41 40 38 36 36 37 37 37 37 37 36 35 34 33 33 32 32 32
45 44 44 45 46 47 48 48 48 48 48 48 49 48 46 53 49 47 48 48 50 49 46 42 45 43 44 44 41 43 44 41 38 42 43 41 36 34 35 36 36 36 37 38 36 34 34 33 32 31 30 31 32 31
45 45 44 45 44 45 46 47 48 48 48 54 51 46 50 48 50 46 43 43 43 42 40 42 44 42 45 41 38 43 39 40 37 39 39 37 34 34 35 35 36 37 38 37 36 35 34 32 31 33 32 31 30 31
44 44 43 44 45 45 45 46 47 49 50 51 49 51 50 47 45 38 38 40 40 38 39 40 41 41 43 43 40 41 36 39 35 39 37 35 34 34 35 35 35 35 34 33 33 33 32 31 31 29 29 31 32 33
43 43 43 43 44 45 45 45 45 45 46 51 46 42 43 39 36 36 33 36 34 36 37 39 36 41 41 41 39 38 35 37 40 36 32 33 34 34 35 34 33 32 33 32 31 30 29 31 32 32 32 33 33 32
42 42 42 42 43 43 44 44 45 45 46 43 38 33 34 33 32 32 34 34 34 34 36 39 38 39 38 36 38 33 34 37 33 31 33 33 34 35 35 34 31 29 33 29 28 30 31 32 32 32 31 31 28 26
41 41 41 41 42 43 43 44 43 43 41 36 36 31 31 32 33 33 33 34 34 37 38 39 40 40 36 35 37 34 32 31 33 33 33 33 35 36 33 31 30 32 33 32 30 32 33 32 31 29 27 26 26 26
41 41 40 42 42 43 42 43 44 43 38 35 34 32 33 33 32 33 33 33 35 35 39 41 37 34 33 35 34 34 33 31 32 34 34 34 35 36 34 32 32 32 33 32 32 32 31 30 29 26 24 23 26 24
40 37 40 41 41 40 42 41 41 36 36 34 32 33 33 32 32 32 33 33 36 35 33 36 33 32 35 34 31 34 31 33 33 33 34 35 35 36 35 34 34 33 32 33 32 31 29 27 26 23 21 18 19 21
37 38 41 42 41 38 38 40 37 35 32 33 31 32 33 33 33 33 35 37 37 35 35 33 36 33 32 31 32 34 33 33 34 34 34 36 36 35 34 34 32 32 31 31 28 26 25 26 23 21 18 15 16 17
36 38 40 41 39 37 34 36 36 31 33 34 34 35 36 35 36 36 36 39 39 39 38 36 31 29 29 31 31 33 33 33 32 33 33 35 36 36 34 33 31 30 29 28 27 25 21 19 18 16 16 15 16 18
37 37 39 39 38 36 31 33 36 32 31 33 34 32 32 33 36 34 36 38 34 33 29 28 27 28 28 30 31 33 34 34 33 31 32 33 35 33 33 33 30 27 23 22 21 23 21 20 15 15 16 16 18 17
35 35 38 38 37 34 33 32 30 32 31 30 32 32 31 35 34 34 35 35 31 29 27 29 30 30 31 29 30 32 32 34 34 34 32 32 33 33 30 28 28 29 28 27 24 20 20 16 15 15 19 20 19 19
33 37 39 39 36 34 32 34 31 32 30 30 30 30 31 32 32 33 34 28 24 26 29 27 27 28 26 26 27 29 32 31 31 31 32 32 29 28 27 28 26 24 22 21 19 19 17 13 14 15 16 17 16 18
36 36 38 37 31 31 28 32 29 27 25 26 28 25 27 28 29 31 27 24 25 27 29 29 27 27 26 26 25 26 27 27 26 26 26 25 24 24 22 21 23 23 19 14 14 15 15 13 14 14 16 16 16 16
34 32 31 31 31 26 34 27 26 25 26 24 24 22 24 26 29 25 21 23 23 23 24 25 25 29 23 21 19 20 25 25 23 24 25 22 20 20 20 19 17 15 14 14 15 15 15 15 12 13 14 12 13 13
29 27 30 26 32 27 24 24 25 23 22 24 25 24 25 28 24 22 20 22 22 22 22 25 22 22 23 22 21 20 22 22 20 17 20 23 21 19 16 13 12 11 13 15 13 13 13 13 13 11 9 10 9 9
22 25 23 24 24 24 22 20 21 22 22 23 22 25 29 26 21 19 18 21 21 20 21 22 23 20 17 17 16 16 17 21 19 15 14 13 15 16 15 14 14 12 11 13 11 9 9 9 9 7 8 8 7 9
21 23 25 26 25 25 25 25 26 25 22 22 24 25 24 20 18 18 19 20 19 21 19 20 19 18 17 16 16 16 15 14 14 11 11 11 11 11 12 10 8 7 8 9 8 7 6 6 7 7 7 9 10 9
24 25 22 25 25 26 22 22 22 23 24 22 24 21 20 18 15 19 19 21 22 19 18 17 16 16 16 16 17 18 18 17 16 15 15 14 13 13 12 12 11 8 9 10 7 8 6 6 5 6 7 6 6 8
23 26 26 22 23 23 23 23 24 24 23 22 23 21 17 15 17 19 18 21 24 23 20 18 19 20 18 15 15 14 13 12 11 8 7 9 12 12 11 10 10 10 10 9 9 9 8 7 6 6 5 5 5 7
22 26 23 22 22 21 24 26 26 26 23 23 20 16 14 15 17 19 18 18 17 16 17 17 17 16 14 15 13 13 12 10 8 7 5 5 6 9 10 10 10 9 10 8 7 6 8 7 6 6 7 7 6 5
24 25 22 22 21 24 25 26 28 26 24 22 22 20 15 14 15 15 15 18 16 16 17 15 12 13 11 10 9 9 10 11 8 6 5 6 7 8 10 10 9 9 8 7 6 5 5 4 3 3 3 2 2 2
23 21 21 18 23 25 24 24 24 26 24 22 18 18 16 18 11 12 13 16 15 13 11 12 12 11 10 10 11 11 5 8 9 8 5 5 5 6 7 7 8 8 8 6 5 4 4 3 2 2 1 1 0 -2
21 22 21 20 20 20 23 21 18 19 19 16 14 16 14 13 7 11 14 14 12 11 11 12 12 13 10 9 8 8 7 8 8 9 10 8 2 3 3 5 5 4 4 4 3 3 2 2 2 1 -1 -1 -2 -3

GFSWCAN_sfc_dewp_033.txt.gz
Dewpoint
40 40 41 42 42 43 42 44 44 44 45 45 45 47 47 47 47 45 45 48 48 48 49 48 42 40 42 45 40 44 46 43 42 36 35 32 30 32 32 36 34 31 31 27 31 29 26 32 29 24 36 35 33 33
41 41 42 42 43 43 43 44 45 45 46 46 47 46 47 47 47 47 43 48 50 48 49 54 51 52 48 47 47 45 44 44 45 41 40 38 36 34 32 27 36 31 37 33 33 33 38 31 30 34 34 36 38 39
41 41 41 43 43 44 44 45 45 45 46 46 46 46 46 46 47 46 44 49 50 48 47 51 48 50 51 51 52 45 47 46 45 50 45 41 35 36 30 32 33 34 36 34 32 33 32 32 40 41 41 41 40 37
42 42 42 42 43 44 44 45 45 45 46 46 46 46 46 46 47 47 44 47 51 47 41 48 52 49 50 52 52 51 50 52 52 50 41 37 36 42 34 35 35 36 34 33 32 34 40 40 41 39 39 39 36 35
43 43 43 43 44 44 45 45 44 44 44 46 47 47 47 47 47 48 49 50 53 49 44 46 49 49 50 51 51 53 51 50 48 40 35 37 42 40 38 37 34 36 35 32 32 40 38 38 38 38 37 36 36 35
43 43 43 43 43 44 44 44 44 45 45 46 46 47 47 49 50 50 45 51 53 53 47 39 48 48 47 48 48 49 50 48 49 45 40 43 43 39 33 31 37 38 39 40 40 40 39 38 37 37 36 35 35 34
41 41 42 43 42 42 43 43 44 45 45 47 47 47 48 49 51 47 45 51 51 51 47 39 40 47 49 49 49 48 49 50 48 45 40 41 40 43 34 32 37 37 38 38 39 39 38 38 35 35 35 34 34 34
43 43 42 42 44 43 44 44 45 47 47 48 48 48 49 50 51 49 53 50 49 51 48 38 38 43 49 45 41 47 46 45 44 42 40 38 40 36 32 36 36 38 37 38 37 38 36 36 35 34 33 33 33 32
46 46 46 46 45 44 44 46 47 47 48 48 48 49 51 51 49 50 50 47 53 49 39 35 37 36 46 43 42 44 44 37 44 36 37 38 33 33 37 36 37 38 38 37 36 35 35 34 33 33 33 32 31 32
45 46 46 46 46 46 46 47 47 48 48 49 50 50 43 50 48 48 48 43 43 44 41 37 42 38 43 38 37 37 37 36 35 37 40 35 33 35 35 36 37 38 37 36 34 33 33 32 32 32 32 32 31 31
45 45 46 47 47 47 47 47 47 48 48 50 47 43 48 48 48 42 35 35 37 34 36 38 41 40 43 36 35 37 35 35 32 34 34 33 32 35 38 38 37 38 38 37 35 35 34 33 32 31 31 31 31 30
44 44 45 46 47 47 47 47 48 50 50 49 48 50 48 46 38 34 33 34 35 34 35 36 38 41 38 43 35 36 33 32 31 37 34 31 33 35 35 35 36 36 35 34 34 33 33 32 31 31 31 32 30 29
43 43 44 45 45 46 47 47 48 48 48 47 42 38 41 35 33 32 29 32 32 33 35 35 35 36 38 39 35 35 34 33 34 32 30 31 34 35 35 34 33 34 34 33 31 32 32 31 32 31 31 31 28 26
42 41 42 43 44 44 44 44 45 46 44 38 35 31 33 31 30 30 31 32 32 33 34 35 34 35 34 34 34 31 32 33 31 25 25 31 34 35 34 34 32 31 30 31 30 30 30 30 29 28 26 26 26 25
41 41 41 42 43 44 44 44 43 42 39 33 32 28 28 31 32 32 33 33 33 35 34 35 35 36 33 33 33 32 31 28 29 29 31 33 35 35 33 31 31 30 30 31 32 31 30 28 26 26 26 25 24 22
41 39 38 42 42 43 43 43 43 40 36 33 32 31 32 32 31 32 32 32 35 34 35 34 33 33 32 32 31 31 27 26 29 31 33 34 34 33 31 31 32 33 31 32 32 31 30 27 24 24 25 23 20 18
40 38 41 42 42 40 42 41 38 35 32 32 30 32 32 32 31 32 32 33 35 34 32 32 30 29 32 31 29 31 27 30 31 32 34 35 35 34 32 32 33 32 32 31 30 29 26 25 24 23 19 20 22 19
38 39 42 42 42 40 40 40 35 33 30 31 30 31 32 32 32 32 33 34 34 33 33 31 33 31 27 26 26 30 30 31 32 33 34 35 36 35 35 35 35 32 30 29 27 27 25 24 22 19 18 19 20 19
38 39 40 41 40 37 32 34 35 30 31 32 32 32 33 33 34 35 35 35 36 35 33 31 26 24 24 27 27 30 32 31 31 32 33 35 35 35 35 34 31 29 27 26 25 21 19 19 19 18 18 19 19 18
38 38 40 38 40 33 30 32 36 32 30 31 33 32 32 32 33 33 31 31 31 30 27 26 25 26 26 26 28 29 32 33 32 31 31 32 33 33 33 32 28 24 22 22 23 22 19 17 17 18 18 17 14 12
37 36 40 40 36 34 32 31 30 32 32 31 32 30 30 31 31 29 27 27 24 26 24 26 27 27 29 28 28 31 29 30 29 32 31 31 32 31 30 30 30 29 26 24 22 20 18 16 16 17 12 7 6 8
34 39 34 35 32 30 29 31 31 32 30 30 29 30 29 25 26 29 27 23 23 26 27 26 26 25 24 24 25 27 29 28 27 25 26 28 25 24 25 24 21 20 20 20 20 18 16 15 15 14 6 4 9 10
37 36 33 30 22 21 20 30 22 25 20 25 26 23 24 24 27 30 22 24 24 27 27 28 26 24 22 21 22 24 24 24 23 23 23 22 21 20 19 19 20 18 17 18 19 17 16 13 12 6 8 5 4 1
35 31 27 25 23 23 23 20 26 23 23 24 22 19 23 23 27 20 19 21 22 22 23 25 26 23 20 19 18 19 22 21 20 21 22 20 17 17 17 16 17 17 18 17 15 14 13 7 7 5 -2 -5 -5 -4
19 20 22 15 23 17 14 17 17 21 22 22 18 17 22 24 16 20 18 20 18 17 19 22 19 18 19 18 18 17 19 20 17 15 16 21 18 17 16 15 13 12 13 10 8 4 -0 -2 -3 -5 -3 -8 -1 -5
18 24 20 21 22 21 22 19 21 22 23 19 21 24 21 22 14 11 17 18 14 17 16 17 19 16 15 16 15 14 15 20 16 13 13 13 13 14 13 11 9 7 8 1 -4 -5 -3 -4 -7 -6 -8 -3 -0 0
19 21 26 28 28 27 25 26 24 19 18 17 21 21 15 17 8 16 19 19 18 18 18 18 19 17 17 17 17 17 15 14 13 12 13 12 12 11 7 -1 -2 2 6 1 -5 -8 -9 -9 -9 -9 -9 0 -1 -5
24 25 21 23 24 24 21 22 22 20 22 24 22 12 11 12 9 17 18 21 21 19 18 17 16 16 16 15 14 13 11 13 9 11 13 13 11 8 5 2 3 8 4 2 -5 -1 -5 -3 -8 -10 -10 -10 -11 -11
23 26 20 11 15 20 22 22 20 23 23 23 17 12 11 14 16 18 19 20 19 17 16 15 17 16 13 11 10 8 6 5 0 -4 -6 -3 0 2 2 -1 -0 -1 -3 -3 4 5 1 0 1 -4 -9 -4 -2 -6
20 25 16 11 10 17 22 25 23 24 24 24 17 14 13 12 15 16 16 15 14 11 11 14 13 10 8 9 6 4 0 -3 -3 -8 -11 -12 -9 -2 -2 4 1 -4 -4 -6 -8 -5 2 -5 -4 -9 -10 -9 -3 -6
23 22 15 15 14 18 24 25 24 23 22 19 14 10 8 9 9 11 11 14 11 13 13 8 6 4 2 -0 -3 -6 -3 -3 -3 -2 -6 -8 -7 -7 0 -2 2 3 -6 2 -3 -9 -12 -12 -9 -7 -12 -12 -9 -8
18 15 11 12 18 17 22 22 19 21 20 16 7 6 5 9 1 5 11 12 9 9 8 5 2 2 -3 -3 -3 -4 -3 -4 2 -4 -6 -8 -9 -10 -10 -9 -8 -0 -0 -3 -3 -2 -4 -7 -10 -5 -7 -8 -15 -17
15 15 13 11 13 15 16 11 15 13 11 9 6 9 5 3 -1 5 11 10 4 0 1 4 7 6 1 -3 -5 -3 3 1 -1 6 6 5 -3 -5 -11 -10 -12 -14 -14 -14 -13 -14 -12 -7 -3 -3 -7 -13 -15 -14

GFSWCAN_sfc_dewp_039.txt.gz
Dewpoint
43 43 43 43 43 42 42 42 42 42 42 42 43 43 43 43 44 45 42 47 45 41 41 46 45 41 40 37 34 41 43 42 38 33 34 31 28 32 30 31 29 30 28 24 25 19 21 32 28 21 27 34 34 34
41 41 41 41 41 41 41 41 41 42 42 42 43 43 43 44 45 44 41 46 49 43 42 46 45 46 46 40 37 43 40 42 42 39 37 35 32 28 31 28 34 27 31 30 30 28 32 35 30 34 35 35 37 38
42 41 41 41 41 41 42 42 42 42 42 42 43 44 44 44 44 44 42 47 46 42 41 42 44 46 49 48 49 41 43 46 45 46 42 38 33 33 29 30 32 33 36 32 32 36 38 38 39 39 39 39 38 40
42 42 42 42 42 42 43 43 43 43 43 44 44 44 44 44 44 45 44 47 45 43 37 41 50 48 51 52 50 47 45 50 48 47 40 36 32 37 30 32 33 34 36 35 35 38 38 37 37 35 35 35 35 35
42 42 42 42 43 43 44 43 44 44 44 44 44 44 44 44 45 45 47 47 48 42 39 42 47 47 53 53 50 48 49 47 43 39 33 34 39 39 36 34 32 36 34 33 32 38 36 37 37 36 34 34 34 33
42 42 42 42 43 44 44 44 44 44 44 45 45 44 44 45 46 45 39 44 49 49 42 36 44 47 51 51 50 47 48 48 45 41 38 42 43 40 34 30 35 38 39 36 35 39 38 37 35 35 34 33 33 32
43 43 43 43 44 45 45 45 44 45 45 45 46 46 47 46 45 40 38 42 46 48 42 36 37 44 51 48 48 48 49 46 48 45 40 40 41 37 32 29 36 39 39 37 37 36 35 35 34 34 34 33 33 32
43 43 44 44 45 44 44 44 45 46 45 46 46 46 46 45 44 40 48 45 47 45 44 35 35 39 48 44 41 47 43 46 44 42 38 36 39 34 33 36 37 38 37 37 36 37 35 34 33 33 33 32 32 32
43 43 44 44 44 44 44 44 44 45 45 46 46 46 46 44 38 41 49 49 51 47 38 34 35 34 44 40 41 40 42 37 42 36 37 39 34 34 36 37 37 37 37 35 34 33 33 33 32 31 31 31 29 29
43 43 43 44 44 43 43 44 44 45 46 46 44 43 36 43 47 46 46 42 44 44 43 35 40 37 43 36 36 37 35 35 35 37 38 35 34 35 36 37 37 36 35 34 33 32 32 32 31 31 31 29 28 28
42 42 43 43 43 43 43 44 44 45 46 44 40 39 47 48 45 41 35 35 36 33 36 38 39 39 42 36 34 35 34 33 33 35 35 32 32 34 37 37 37 36 36 38 37 35 35 33 32 31 30 29 28 28
42 43 42 42 43 43 43 43 45 44 45 44 47 48 45 42 37 33 32 33 33 32 35 35 37 40 37 40 35 35 33 32 31 35 34 31 33 35 37 37 38 37 36 36 35 34 34 33 32 30 28 28 28 28
44 43 42 42 43 43 44 44 45 46 48 46 41 36 38 33 31 30 28 31 31 32 34 34 34 34 35 37 32 28 29 30 33 32 31 31 35 37 37 35 35 35 35 34 33 32 31 30 30 29 28 28 27 25
46 46 45 44 44 44 44 45 46 46 43 36 32 28 30 28 29 29 31 31 32 32 33 33 33 34 33 33 32 26 32 31 28 26 26 31 34 35 34 34 33 32 32 32 31 30 29 27 26 27 27 25 23 21
44 44 45 46 46 46 46 46 46 42 37 32 32 27 28 31 32 32 32 32 33 34 33 34 34 35 33 32 32 31 30 27 27 21 30 32 34 33 32 31 31 30 30 30 30 29 28 26 24 24 24 22 20 20
42 41 42 44 44 44 43 41 39 37 32 30 31 29 31 30 30 31 32 32 35 33 33 32 30 26 31 31 30 28 27 25 27 30 32 33 32 32 31 31 31 31 30 29 29 28 26 26 24 23 24 20 19 17
41 38 41 42 42 41 41 38 34 31 31 28 29 32 32 31 30 31 32 32 35 33 32 28 29 27 32 27 24 27 24 27 30 32 33 32 32 32 32 32 32 31 29 28 27 27 26 23 21 20 19 19 18 17
37 38 42 42 40 40 39 36 32 31 29 31 29 30 29 29 28 28 30 32 33 32 31 27 29 22 18 18 19 23 26 31 32 32 32 32 33 33 33 33 33 32 31 30 28 24 23 22 20 19 19 20 19 18
38 38 40 41 38 36 33 33 33 28 30 31 32 32 30 28 28 28 28 31 32 32 30 26 20 19 19 21 21 23 24 28 30 31 32 32 33 33 33 32 32 30 30 28 24 22 20 20 20 20 19 19 19 18
38 38 38 38 37 32 29 30 34 30 29 31 31 25 27 25 26 25 24 25 25 25 22 19 18 19 20 21 23 24 24 26 31 29 28 27 29 29 28 28 26 25 24 23 22 21 19 19 18 17 16 16 16 15
34 35 33 33 31 30 29 29 30 32 31 30 30 28 27 24 20 19 20 22 19 21 19 21 21 22 24 24 23 24 23 23 21 24 26 22 23 23 23 23 23 22 20 19 18 17 17 17 17 17 15 12 12 14
32 33 25 26 24 25 26 27 28 28 27 27 25 27 23 20 17 21 20 17 18 20 21 20 20 20 18 19 20 21 23 22 21 20 20 19 18 18 18 19 19 17 16 16 16 15 15 16 16 15 12 11 13 11
31 29 25 23 18 17 16 25 18 23 16 18 20 18 19 18 22 23 15 18 18 21 23 21 18 18 17 17 16 18 18 17 17 17 17 16 16 16 15 15 17 15 14 15 16 14 13 14 11 9 9 8 7 3
27 19 16 14 17 10 13 16 22 21 17 14 15 18 20 20 19 13 12 13 16 17 17 17 17 15 14 13 13 14 16 16 14 15 17 14 12 11 12 11 11 11 11 10 9 7 6 5 5 4 1 -4 -5 -8
17 16 13 9 13 11 6 6 9 14 7 8 8 16 20 16 7 6 7 12 12 12 13 14 13 13 11 12 12 13 15 13 11 10 12 15 13 11 9 7 7 7 7 3 1 -0 -1 -3 -6 -8 -6 -14 -5 -11
13 20 16 15 13 11 9 8 9 12 8 11 14 18 13 3 -1 2 11 10 9 12 9 11 10 11 11 12 10 10 11 14 9 7 7 7 7 5 3 1 1 4 3 -6 -10 -13 -12 -14 -17 -13 -16 -12 -11 -15
9 9 21 25 21 18 10 10 14 9 13 14 15 1 1 -6 -4 10 16 16 14 14 16 15 14 11 10 9 10 11 10 11 10 9 8 6 6 5 -0 -6 -5 1 3 -6 -12 -13 -10 -13 -16 -15 -16 -22 -21 -20
17 15 8 9 10 14 2 1 5 10 9 17 10 -2 -7 -6 2 12 13 18 17 16 14 11 8 6 5 4 4 6 7 7 6 5 3 3 2 1 -1 3 4 8 -0 -4 -7 -11 -16 -10 -9 -10 -15 -15 -12 -19
21 18 13 5 6 10 15 8 8 17 20 14 -1 1 2 7 8 9 13 15 14 12 9 6 5 4 4 2 0 -1 -2 -6 -10 -13 -17 -19 -16 -10 -8 -12 -12 -11 -10 -8 -3 4 5 -1 -7 -15 -15 -17 -12 -13
9 10 5 -3 3 10 13 11 4 5 13 8 8 7 6 6 9 12 11 9 6 3 0 -2 -4 -3 -10 -11 -11 -5 -6 -12 -12 -13 -17 -16 -12 -10 -20 -20 -20 -17 -18 -18 -16 -13 -4 -13 -10 -15 -17 -17 -20 -23
9 6 4 5 9 10 11 4 6 3 -1 -4 -6 -4 -3 3 4 8 8 5 4 -0 -2 -7 -12 -18 -14 -15 -18 -17 -14 -7 -10 -8 -9 -12 -13 -15 -13 -16 -22 -24 -25 -26 -26 -25 -21 -22 -23 -22 -19 -16 -15 -16
2 -4 2 3 8 11 17 12 9 1 -0 -2 -4 -11 -5 -9 -9 -1 2 -2 -5 -9 -7 -13 -13 -8 -11 -15 -17 -16 -10 -12 -14 -16 -16 -18 -16 -16 -18 -17 -22 -24 -23 -25 -27 -26 -24 -24 -24 -26 -27 -24 -19 -17
-3 -6 -8 -2 4 4 2 2 9 3 1 -2 -4 -5 -6 -9 -11 -4 1 -6 -9 -13 -13 -15 -17 -15 -8 -11 -13 -16 -15 -19 -19 -8 -7 -5 -9 -12 -19 -23 -24 -25 -22 -25 -25 -24 -24 -24 -27 -28 -24 -19 -17 -16

GFSWCAN_sfc_dewp_042.txt.gz
Dewpoint
45 46 45 45 45 45 46 45 45 45 45 44 44 43 43 44 44 40 40 44 40 40 41 44 44 38 37 36 33 36 36 39 37 34 34 32 29 32 31 31 32 32 29 24 24 20 24 29 28 23 27 33 32 32
43 43 44 44 44 44 45 45 45 44 44 43 43 43 44 44 44 42 39 44 45 41 42 45 44 44 42 42 37 39 37 39 38 38 35 32 30 28 30 29 33 29 32 30 30 30 33 32 28 30 32 33 33 34
40 41 42 43 43 44 44 44 44 44 44 43 43 44 43 44 44 42 41 43 41 39 39 40 39 46 45 45 46 37 41 44 42 43 39 37 31 33 30 30 32 32 34 31 31 33 35 37 38 38 39 37 39 40
42 42 42 42 42 42 42 42 42 42 41 41 42 43 43 43 43 42 40 44 41 42 34 36 46 45 50 49 47 46 42 48 47 44 38 35 33 38 31 34 33 34 34 34 32 37 37 37 37 36 36 36 35 34
42 42 42 42 42 42 42 42 42 42 42 42 43 43 43 43 44 43 43 43 46 41 36 38 43 45 48 51 50 49 47 45 43 39 33 34 38 37 35 36 32 36 34 32 30 35 34 34 36 36 35 34 34 34
42 42 43 43 43 43 43 43 43 42 43 43 43 43 43 43 44 42 38 45 45 46 39 34 43 43 47 52 51 49 48 45 43 39 36 41 43 40 36 33 34 36 38 36 33 38 37 36 35 34 34 34 34 33
43 43 43 43 42 43 44 44 44 43 43 43 43 43 43 44 42 39 38 43 47 48 40 34 34 42 50 50 48 47 46 44 44 41 36 39 40 39 31 31 35 39 40 38 37 36 35 35 34 33 33 33 33 32
43 43 44 44 45 44 44 44 45 44 44 43 44 44 44 44 43 39 44 47 47 44 42 33 35 39 46 44 43 46 42 42 43 39 36 36 39 34 33 36 38 37 37 36 36 36 36 34 33 32 32 32 31 31
43 44 44 44 44 44 44 44 45 45 44 44 43 44 45 42 39 39 46 46 48 42 34 32 33 33 43 40 42 41 40 35 42 34 37 38 33 34 34 36 37 37 37 34 34 34 33 32 32 32 32 31 31 30
43 44 44 44 44 44 44 45 45 45 45 45 43 41 35 38 46 46 44 41 41 43 43 35 39 37 40 34 36 36 36 35 35 36 40 34 34 36 36 37 37 36 34 34 32 31 32 31 31 31 30 30 31 30
44 44 43 43 43 43 44 45 45 45 44 40 38 37 42 47 44 40 34 34 36 34 36 37 38 39 42 34 34 34 33 34 33 35 33 32 33 35 37 37 37 36 35 36 35 34 33 32 31 30 30 31 31 30
44 44 44 43 43 43 44 45 45 43 40 40 44 46 44 39 36 33 32 32 32 32 35 35 36 40 37 41 35 35 32 32 32 36 34 32 33 36 37 37 37 37 36 35 35 33 32 32 31 30 30 30 29 28
43 43 43 43 43 43 43 44 45 45 46 46 40 36 35 32 30 29 27 30 31 32 34 34 34 35 36 37 33 32 31 31 34 33 30 30 35 37 37 36 35 35 35 34 34 33 32 31 32 30 29 29 27 25
42 43 43 43 44 44 44 45 45 45 42 34 32 27 25 24 28 29 30 31 32 32 33 33 33 34 33 33 32 32 32 32 28 25 26 31 34 34 34 34 33 33 32 32 32 31 30 29 28 28 28 26 25 23
43 43 43 43 44 44 45 45 44 42 36 32 31 26 27 31 32 32 32 32 33 34 33 33 33 35 32 31 31 31 30 26 27 25 29 32 33 33 32 32 31 31 31 30 29 28 27 27 25 23 22 22 22 21
45 44 44 45 45 45 44 43 41 39 33 32 30 28 30 30 28 30 30 31 34 33 33 33 31 31 30 30 26 24 25 21 25 29 31 32 32 32 32 32 32 31 30 30 29 28 27 25 24 21 20 19 20 19
41 40 44 45 44 43 43 39 36 31 30 28 28 29 28 29 26 27 29 30 33 33 31 31 22 22 27 23 19 22 19 25 26 31 32 32 32 31 31 31 30 30 30 29 29 27 25 25 22 19 17 16 16 17
38 41 44 44 43 41 39 37 31 30 28 30 25 26 26 25 23 24 27 30 32 31 27 25 26 18 15 14 15 20 22 24 30 31 31 32 32 32 32 31 31 30 29 29 27 26 25 24 23 20 18 17 18 18
39 41 43 42 41 37 32 32 32 26 27 29 27 28 27 25 24 25 27 29 29 28 27 23 17 15 15 19 18 19 21 21 26 28 26 28 31 32 31 31 30 29 27 27 26 24 24 22 20 20 20 19 18 16
37 37 38 41 41 34 30 31 33 29 28 27 26 20 21 20 21 21 21 22 22 21 18 16 15 17 18 19 20 21 21 22 25 25 21 22 24 24 24 24 23 24 22 22 22 21 20 18 18 18 18 18 17 15
32 33 31 32 31 30 29 30 31 31 31 28 29 27 23 20 17 16 16 18 15 18 15 18 18 20 21 21 21 22 21 20 18 20 20 18 20 21 21 21 21 19 18 17 16 16 16 15 16 15 14 14 14 15
30 31 26 27 24 25 25 26 27 26 26 25 23 24 19 13 13 18 18 14 15 17 18 18 18 19 17 17 18 20 21 20 19 17 17 16 14 14 15 17 16 14 14 14 14 13 13 14 14 13 12 12 13 11
29 28 23 22 17 16 16 25 17 22 15 15 18 17 15 17 19 19 10 14 15 19 19 19 18 16 15 15 15 15 16 14 14 14 13 12 12 12 11 11 12 11 10 11 12 10 9 10 9 7 7 7 6 3
25 17 13 12 15 7 10 12 21 19 15 12 13 14 17 16 15 9 8 10 14 15 14 14 14 12 12 11 11 12 13 13 12 12 13 10 8 8 8 7 6 6 7 7 5 4 3 1 1 0 -2 -6 -6 -9
17 16 12 7 10 9 3 4 9 12 4 6 10 15 17 12 4 2 4 10 12 10 10 12 12 11 9 9 10 11 12 10 8 6 7 11 9 7 5 5 5 5 4 0 -4 -6 -9 -12 -14 -16 -13 -20 -9 -14
14 18 16 6 9 10 6 4 13 3 5 8 8 14 7 -0 -4 -0 9 9 7 11 8 9 11 9 9 9 8 7 9 10 7 4 5 6 4 0 -2 -3 -3 2 2 -11 -14 -15 -12 -15 -18 -15 -18 -14 -15 -22
9 6 18 20 18 15 7 7 11 6 11 13 7 -4 -4 -10 -7 8 14 14 12 12 12 9 8 7 7 8 8 9 8 7 6 5 5 3 3 3 -1 -7 -6 0 3 -3 -8 -11 -11 -13 -16 -17 -19 -24 -24 -22
11 13 6 6 8 11 -2 1 6 5 9 15 2 -5 -13 -9 -1 9 12 15 13 10 9 7 5 4 3 3 4 4 3 1 2 0 -1 -2 -2 -4 -7 -8 -8 1 -11 -12 -10 -12 -13 -13 -9 -11 -14 -16 -15 -18
11 10 10 1 3 8 11 4 10 14 14 7 -9 -4 -1 5 5 6 10 12 12 9 5 4 2 0 -1 -2 -4 -4 -5 -11 -12 -15 -19 -20 -18 -10 -9 -18 -21 -19 -22 -18 -8 -2 1 -2 -5 -11 -13 -13 -12 -15
7 9 4 -0 3 10 8 6 1 -4 8 4 6 5 4 3 7 10 8 6 3 -3 -12 -15 -15 -10 -16 -15 -14 -9 -10 -18 -18 -16 -20 -20 -14 -11 -17 -21 -23 -22 -26 -28 -27 -21 -10 -19 -16 -22 -23 -22 -24 -24
6 5 3 3 5 6 4 -5 -6 -4 -8 -7 -11 -10 -6 -2 1 4 3 -2 -4 -11 -10 -13 -14 -20 -17 -18 -21 -21 -17 -16 -17 -15 -16 -19 -19 -21 -22 -22 -23 -27 -29 -29 -29 -29 -28 -29 -30 -31 -29 -25 -24 -22
-0 -6 0 1 9 7 5 5 -4 -3 -8 -11 -7 -16 -13 -14 -14 -5 -4 -7 -13 -13 -14 -19 -17 -12 -15 -17 -21 -22 -16 -19 -20 -20 -18 -19 -21 -23 -23 -23 -28 -29 -28 -29 -30 -29 -29 -28 -31 -32 -33 -31 -26 -27
-8 -11 -10 -4 3 4 3 5 3 -0 -5 -6 -7 -10 -14 -13 -13 -7 -4 -13 -14 -16 -16 -18 -19 -19 -14 -17 -19 -22 -20 -23 -23 -12 -10 -8 -14 -14 -24 -28 -30 -30 -27 -29 -31 -32 -29 -28 -30 -31 -31 -32 -30 -29

GFSWCAN_sfc_dewp_045.txt.gz
Dewpoint
45 44 44 44 45 45 45 45 45 45 47 46 45 45 44 44 44 41 41 45 41 38 39 42 43 38 36 34 32 37 37 39 39 34 35 34 33 35 34 33 34 32 32 31 29 32 28 32 26 28 35 32 34 35
45 45 44 44 44 45 45 45 46 46 45 45 45 44 44 44 44 42 39 44 44 39 39 44 45 45 42 37 37 39 36 37 38 38 37 36 35 34 34 31 33 34 34 34 32 34 37 33 35 33 33 34 35 36
43 44 44 45 45 45 45 46 45 44 44 46 45 45 45 45 45 41 41 42 40 35 36 40 40 45 47 45 45 39 41 43 42 45 41 39 35 36 33 32 34 34 35 36 36 35 34 36 36 38 36 36 35 37
42 43 44 44 45 44 44 44 44 45 45 45 45 45 45 45 43 43 41 42 40 38 32 35 45 41 48 48 46 45 44 48 47 45 39 37 37 38 35 36 36 36 37 35 34 35 38 38 39 38 37 38 37 36
42 42 42 43 44 44 45 45 44 45 45 44 45 44 45 44 43 43 43 42 42 37 34 36 42 45 46 49 48 47 46 46 45 42 37 38 39 38 37 38 36 36 35 35 34 36 38 35 39 38 38 37 36 34
43 43 43 42 42 42 43 43 43 43 44 44 44 44 43 43 43 41 36 43 45 43 37 32 42 41 47 50 50 49 48 47 46 43 40 42 43 41 36 35 35 37 40 41 36 39 37 36 36 36 36 36 35 34
42 42 42 43 43 42 42 42 42 42 42 43 43 43 43 43 41 38 36 41 44 44 38 33 34 40 45 49 48 48 48 47 46 43 40 41 42 41 35 34 35 39 40 39 37 37 36 35 35 35 34 34 34 33
44 44 43 43 44 43 43 42 43 43 43 43 43 43 43 43 42 40 44 44 44 41 41 33 33 38 47 43 43 47 45 45 44 42 39 40 40 37 36 37 38 38 38 37 36 36 36 34 33 33 33 33 32 31
44 44 44 44 44 44 43 43 43 43 43 43 43 43 43 41 38 39 46 47 48 41 34 32 32 33 43 40 41 41 43 37 43 38 40 40 36 37 37 36 37 37 37 35 34 34 34 33 32 32 32 32 31 31
44 44 44 44 44 44 44 43 43 43 43 44 41 38 34 38 44 46 44 41 40 40 41 34 39 37 40 36 37 34 37 36 36 38 40 36 37 37 36 37 38 36 35 34 34 32 32 32 32 31 31 32 32 31
44 44 44 44 45 44 44 44 43 43 42 40 35 34 40 45 42 39 34 33 35 33 37 37 38 39 42 36 34 35 34 33 33 35 36 35 35 35 37 37 36 36 36 37 36 35 34 33 32 31 32 32 32 32
44 44 44 44 45 45 44 43 42 42 41 41 42 44 44 39 35 32 31 32 31 32 35 35 38 40 38 41 35 34 33 33 32 36 34 32 33 37 37 37 37 38 37 36 35 34 34 32 32 31 31 31 30 29
44 43 43 43 43 44 44 44 44 44 45 44 38 34 34 33 29 28 28 30 31 32 34 34 34 35 36 37 33 34 32 32 34 32 29 30 34 34 36 36 36 36 35 34 33 32 32 31 31 30 29 30 29 28
43 43 43 44 44 44 44 43 43 43 39 33 32 26 28 26 28 29 30 31 33 32 32 33 33 34 33 33 32 33 32 33 29 26 26 30 32 32 34 34 33 32 32 32 31 31 30 30 29 29 29 29 27 25
43 43 44 43 44 44 44 43 41 40 35 32 29 25 27 31 31 32 32 32 32 33 33 34 34 35 32 32 32 32 30 25 25 24 28 31 32 33 33 32 31 30 30 29 29 28 28 28 27 27 27 25 23 23
43 43 41 43 44 44 43 42 41 38 34 29 25 24 27 26 24 26 26 28 33 32 34 33 32 31 28 27 23 21 22 19 22 25 27 32 32 31 31 30 30 30 29 29 29 28 27 26 24 22 22 21 21 21
43 41 44 44 43 42 42 39 36 32 31 28 24 25 24 25 23 24 26 27 31 33 28 27 20 20 25 20 17 19 16 19 22 24 31 32 31 31 31 31 30 30 29 28 27 26 24 20 20 19 19 19 19 19
40 43 43 42 41 41 39 37 31 29 25 27 23 23 24 23 22 23 26 28 31 29 25 22 22 15 14 13 13 17 19 21 25 25 24 29 31 32 31 30 30 29 28 27 27 26 25 24 22 21 20 19 18 18
43 43 43 43 42 36 32 32 30 23 23 25 23 24 22 21 21 22 23 25 26 26 24 20 14 12 13 16 15 17 19 19 21 23 22 23 25 26 26 26 25 25 24 24 22 22 22 22 22 21 21 19 16 15
44 43 43 42 40 33 30 31 33 27 23 23 23 18 18 18 18 19 19 19 18 18 15 13 13 14 15 17 18 19 19 21 25 20 18 19 21 21 21 21 21 21 20 19 19 20 19 17 18 18 19 19 18 16
36 37 42 37 31 30 28 29 30 30 30 28 28 25 20 18 15 14 14 16 14 14 12 16 17 18 20 20 20 20 18 17 16 18 17 15 18 18 18 18 18 17 16 16 15 14 14 14 14 15 16 15 15 15
31 30 28 28 26 25 25 25 26 26 24 24 22 23 20 14 11 15 16 11 12 14 17 16 16 16 15 15 16 19 19 17 16 14 14 14 11 11 12 14 13 12 12 12 12 11 10 10 12 12 11 12 12 11
29 26 23 21 17 16 15 25 18 21 15 16 18 17 14 14 17 15 9 11 13 16 17 18 16 16 14 15 13 13 13 12 12 12 11 10 10 10 8 8 10 9 8 8 8 7 5 5 5 5 6 5 6 5
24 16 11 10 14 7 11 12 19 18 14 13 14 12 16 13 12 8 6 9 12 14 13 14 13 11 10 9 9 9 11 10 9 9 10 6 5 4 5 4 4 4 3 3 3 2 1 1 -1 1 -0 0 -1 0
16 15 12 7 10 9 5 7 9 12 5 9 11 12 10 11 4 3 4 9 10 10 10 12 10 9 7 7 7 8 8 6 3 3 5 5 5 5 4 3 4 4 4 3 0 0 -0 -2 -2 -2 -2 -2 -2 -3
9 12 13 5 8 12 6 10 11 6 7 10 8 11 4 1 -3 1 7 9 9 10 9 9 10 8 7 7 6 6 7 7 4 2 3 3 3 2 0 -0 -0 1 3 -0 1 0 -0 -1 -2 -3 -2 -2 -8 -6
7 3 15 17 16 13 7 6 9 6 9 11 4 -3 -4 -10 -7 7 12 12 9 9 7 6 7 7 7 7 6 5 5 5 4 2 2 1 1 1 -0 -2 -2 -1 1 -1 -2 -3 -3 -3 -4 -4 -4 -4 -4 -7
9 12 4 4 7 9 0 3 9 6 9 12 0 -7 -13 -9 -1 7 11 11 9 7 6 5 4 3 3 3 4 4 3 2 2 1 -0 -0 -1 -2 -4 -5 -5 -2 -6 -7 -4 -4 -2 -3 -3 -4 -4 -5 -6 -5
7 6 8 -1 2 6 8 3 8 11 10 3 -8 -5 -1 3 4 6 9 11 12 8 4 2 1 -1 -1 -1 -4 -4 -4 -3 -4 -8 -9 -8 -7 -4 -4 -7 -7 -7 -10 -8 -6 0 2 -1 -2 -7 -9 -10 -10 -12
5 8 3 -1 0 3 -1 2 -4 -5 4 4 5 4 2 3 6 9 7 6 4 -1 -6 -7 -9 -5 -6 -6 -6 -4 -6 -9 -7 -7 -8 -8 -6 -5 -8 -9 -8 -8 -12 -11 -11 -9 -8 -10 -8 -11 -14 -13 -13 -13
5 3 2 4 4 2 -1 -8 -12 -7 -8 -6 -10 -8 -4 0 3 4 3 -2 -5 -10 -4 -6 -8 -13 -7 -9 -8 -10 -8 -7 -15 -11 -9 -9 -10 -9 -8 -10 -11 -13 -14 -14 -14 -14 -13 -12 -14 -15 -15 -16 -17 -17
-1 -4 0 0 6 3 -1 1 -10 -6 -11 -9 -9 -16 -11 -10 -12 -4 -3 -5 -6 -8 -12 -13 -11 -6 -9 -10 -15 -13 -16 -11 -9 -11 -11 -9 -7 -8 -10 -11 -14 -15 -14 -14 -15 -15 -16 -15 -15 -16 -16 -17 -18 -19
-9 -12 -8 -1 2 2 2 2 1 -2 -6 -8 -8 -12 -15 -11 -11 -6 -4 -11 -7 -8 -10 -10 -10 -12 -13 -14 -11 -11 -15 -13 -16 -10 -9 -7 -12 -9 -11 -12 -14 -15 -14 -13 -14 -16 -15 -16 -15 -17 -17 -19 -20 -19

GFSWCAN_sfc_dewp_048.txt.gz
Dewpoint
45 45 45 44 44 44 44 44 44 45 45 45 44 45 46 46 45 42 43 47 45 39 40 39 37 35 33 36 34 34 38 40 40 37 36 35 37 32 30 29 34 33 34 36 35 37 33 31 28 28 32 36 33 35
45 45 45 45 45 44 44 45 44 44 44 44 45 46 45 46 44 44 42 45 45 41 39 42 42 43 42 34 34 39 32 34 35 35 39 37 41 40 31 31 33 32 35 35 33 33 36 35 32 33 36 33 35 35
44 45 45 45 45 45 45 45 44 43 44 45 46 45 45 46 44 43 43 43 43 39 37 39 38 41 45 46 44 37 36 35 38 38 40 41 41 40 40 35 32 34 37 37 36 32 34 36 33 35 34 35 34 35
44 45 45 45 45 45 45 45 45 46 45 45 45 45 46 46 45 43 41 41 39 38 34 32 43 40 44 47 46 44 38 45 43 43 43 43 42 37 39 34 36 34 36 35 36 35 36 37 37 36 36 37 37 35
43 44 45 45 45 45 44 44 45 45 45 45 45 46 46 45 44 44 42 41 38 33 34 35 38 42 43 47 46 44 44 43 46 44 40 39 40 41 42 40 39 35 35 37 36 36 39 35 37 39 38 37 37 37
43 43 44 44 44 45 45 45 45 44 45 46 45 45 44 44 42 40 38 42 43 40 36 33 40 37 40 47 45 43 44 43 44 43 44 41 42 41 41 37 34 35 36 38 36 39 40 39 37 39 39 38 38 37
43 43 43 44 44 44 44 44 44 44 45 45 44 43 43 42 40 35 33 39 42 41 37 33 36 40 40 42 48 47 46 45 43 43 42 42 44 42 43 39 36 36 37 38 40 38 37 36 36 38 38 37 38 36
43 43 43 43 43 43 43 44 44 44 44 44 43 43 42 41 41 41 47 44 46 40 40 34 34 40 43 42 43 48 46 46 46 44 44 41 42 44 39 36 37 38 39 39 39 38 38 37 36 36 36 35 35 35
44 44 43 43 43 43 43 43 43 43 43 43 43 43 41 40 39 40 45 44 47 41 36 33 34 35 44 43 43 42 45 38 44 43 42 42 41 39 37 38 39 39 39 39 36 36 35 35 34 34 35 34 34 34
44 44 44 43 43 43 43 42 43 43 43 43 41 39 35 39 44 43 41 38 38 40 39 35 38 35 42 38 40 40 38 37 35 41 45 42 39 39 38 38 39 39 38 37 37 36 35 35 34 34 34 34 34 33
45 45 44 44 43 43 43 43 43 43 41 39 37 37 41 45 42 40 35 35 35 32 37 39 38 34 43 37 38 41 37 35 33 37 40 37 35 35 38 39 38 38 37 37 38 37 37 36 35 35 34 35 34 33
44 44 44 44 43 43 43 43 42 40 40 39 40 42 42 37 37 34 33 34 33 33 37 37 39 37 40 44 38 36 36 34 32 37 36 31 33 35 37 37 38 39 39 38 37 37 36 35 35 34 34 33 32 31
43 44 44 43 43 43 43 43 43 43 41 44 41 36 37 35 30 30 29 32 32 32 34 36 35 40 39 38 35 36 34 34 35 32 30 30 32 34 34 35 34 35 35 34 34 34 34 34 34 32 30 30 30 29
43 43 44 43 44 44 43 43 43 43 41 36 34 29 32 29 30 31 30 33 33 32 33 35 34 35 34 34 34 34 33 35 32 28 27 29 30 33 34 34 33 32 32 31 31 30 30 29 29 30 30 30 29 28
43 43 44 44 44 43 43 42 41 41 36 31 30 26 27 30 29 30 31 34 34 33 33 33 34 36 33 34 32 34 31 25 24 22 26 30 30 33 32 32 30 29 29 29 30 29 29 30 29 29 29 29 27 27
42 41 43 44 43 43 42 41 40 39 35 26 23 22 25 26 24 25 26 27 32 32 32 34 34 32 28 27 23 22 21 17 21 24 27 30 33 32 32 32 31 31 30 30 29 29 28 27 26 25 25 25 25 25
42 41 43 43 42 42 41 39 37 32 29 27 24 25 23 23 22 24 26 27 31 33 30 26 22 22 25 20 17 19 17 20 22 25 25 28 31 31 31 31 31 30 29 28 27 26 26 24 23 21 21 21 22 22
42 43 43 42 41 39 38 37 32 28 23 24 21 22 23 23 22 24 25 27 32 27 24 22 20 16 16 15 15 18 20 22 26 23 23 25 27 28 28 28 28 28 27 27 27 27 26 25 23 22 22 22 21 19
42 43 43 43 41 37 34 33 28 21 23 24 22 23 23 21 21 22 25 24 24 23 21 18 15 13 15 17 17 19 20 22 23 21 22 23 24 24 24 24 24 24 23 23 23 22 22 23 23 23 22 21 20 21
43 43 41 38 40 35 31 32 31 24 21 21 21 18 17 17 19 23 23 22 18 16 15 13 14 16 17 19 20 19 20 23 25 20 18 19 21 21 21 21 21 22 20 19 19 20 19 18 19 19 19 20 19 18
40 39 37 35 33 31 30 31 32 29 28 26 26 21 18 19 19 19 18 17 17 14 13 17 18 18 20 20 21 20 19 19 18 19 18 15 18 18 18 19 19 18 17 17 16 15 15 15 16 17 18 18 18 18
33 30 34 30 30 29 27 27 28 28 26 26 25 21 20 19 18 17 14 14 11 15 17 16 16 16 14 16 17 18 19 17 17 15 15 14 13 13 14 16 15 14 14 14 13 13 12 10 12 13 13 14 12 11
30 29 28 28 26 27 23 27 25 22 22 23 24 19 18 17 15 13 12 10 12 16 18 16 16 15 14 16 14 13 13 13 12 12 12 11 10 10 10 9 10 10 8 7 7 8 8 5 7 9 10 9 10 10
26 24 21 22 24 20 24 23 22 21 22 22 20 17 16 16 14 12 8 10 13 14 13 14 14 13 12 11 10 10 10 8 9 10 10 8 8 7 7 7 7 8 7 6 7 7 7 8 6 7 7 7 6 6
22 20 23 19 22 20 20 20 20 20 19 20 17 17 16 16 11 9 7 11 13 14 14 13 12 11 10 11 9 8 8 7 6 5 7 8 9 8 6 5 5 4 7 8 7 7 6 6 6 5 4 4 2 2
16 19 20 21 20 19 19 17 17 17 17 16 15 15 16 12 7 6 7 12 14 13 14 15 14 11 9 8 8 7 7 7 6 5 4 4 5 7 6 5 5 3 5 6 5 5 4 3 3 2 2 2 -1 1
16 17 19 17 18 17 18 18 16 16 14 14 14 10 10 4 4 7 11 13 11 11 11 12 12 10 8 7 7 7 6 6 5 3 3 2 2 3 4 3 0 1 2 2 3 3 2 1 1 1 1 2 2 1
17 17 12 15 15 15 12 13 12 12 13 13 10 4 3 2 5 10 11 12 11 9 9 9 9 9 9 8 9 9 8 6 6 5 5 4 3 4 3 3 2 1 2 1 2 2 2 1 0 -1 -2 -2 -2 -1
16 16 15 8 12 12 12 12 13 11 10 10 8 4 4 5 9 11 12 13 13 12 10 8 7 8 7 6 6 6 7 8 -2 -7 -6 0 2 2 3 3 3 2 2 1 -0 1 1 0 -1 -2 -4 -3 -2 -2
15 17 13 9 8 9 10 10 10 10 8 10 7 5 4 7 9 12 13 13 12 11 9 9 9 10 7 8 5 4 4 4 3 2 1 0 1 2 2 1 1 1 0 0 -1 -1 -2 -1 -2 -2 -4 -4 -3 -5
15 18 14 13 11 11 10 10 10 9 8 7 8 7 5 7 9 9 8 8 7 7 8 7 6 7 7 5 5 3 2 3 -1 -1 -0 2 2 3 1 -0 1 0 -1 -2 -3 -2 -4 -3 -3 -5 -5 -7 -8 -8
13 12 12 9 10 11 11 14 13 11 10 9 6 6 6 7 4 7 8 9 9 9 3 6 7 7 5 4 2 3 -7 1 1 0 -5 2 3 2 1 0 -1 -1 -2 -3 -3 -4 -6 -6 -6 -6 -7 -8 -9 -10
11 13 13 12 10 9 12 13 10 8 9 7 7 6 6 6 2 7 5 6 8 8 7 7 7 6 2 0 1 2 -2 2 -5 -3 -4 -4 -5 -2 -1 1 -1 -2 -5 -4 -4 -5 -7 -8 -7 -8 -8 -10 -10 -10

GFSWCAN_sfc_dewp_051.txt.gz
Dewpoint
44 46 46 46 44 44 44 45 45 45 46 46 46 45 45 46 47 45 43 45 45 40 37 36 37 37 31 31 31 34 33 38 39 36 34 29 33 27 24 22 35 35 34 38 37 35 33 33 29 28 32 35 32 31
45 46 45 45 44 44 44 45 46 45 45 45 46 45 44 45 46 45 42 46 47 42 41 43 43 43 41 35 32 35 38 36 34 32 34 33 40 41 29 29 24 33 36 36 33 33 37 36 35 33 32 32 36 34
45 46 45 45 45 45 45 45 45 45 45 45 45 44 45 46 46 46 47 47 45 41 40 40 39 41 43 44 43 38 37 36 35 37 32 37 37 34 39 34 29 31 33 36 35 34 33 36 35 34 35 35 35 35
45 45 46 45 45 45 45 44 45 45 45 45 44 44 45 45 46 44 42 44 42 40 37 36 38 36 41 44 45 45 44 41 39 36 40 42 40 29 37 31 30 29 29 32 32 31 31 32 37 39 35 36 35 34
45 45 45 45 46 45 45 44 44 44 45 45 45 45 45 46 44 44 44 45 43 33 35 33 37 35 38 42 43 43 44 44 38 39 44 39 33 30 36 38 33 28 32 36 35 29 39 38 37 39 37 37 38 36
44 45 45 45 45 45 45 45 44 45 45 46 45 46 45 43 43 43 38 44 40 38 33 34 40 35 35 40 43 42 44 43 39 38 42 35 32 35 42 35 27 25 29 33 33 35 40 42 38 38 38 38 38 37
44 44 44 44 45 44 44 44 45 45 45 45 45 44 44 42 40 40 36 37 40 37 34 33 35 37 37 37 40 42 44 41 43 42 42 39 37 39 44 37 25 26 34 35 36 40 38 37 36 38 39 38 39 37
43 44 44 44 45 45 44 44 44 44 44 44 43 44 44 44 42 41 42 41 39 34 35 31 35 37 38 38 37 43 44 44 42 40 40 40 40 44 38 32 33 32 34 38 40 40 40 38 37 37 38 38 37 36
42 43 43 44 44 44 44 43 43 44 44 43 42 41 40 37 37 43 44 44 43 38 34 35 33 34 42 38 41 42 43 40 41 42 40 39 39 37 37 38 38 40 40 40 39 38 37 37 36 36 36 36 36 36
43 42 42 43 43 43 43 43 43 43 42 40 38 35 34 40 45 42 41 38 39 40 39 36 38 36 41 41 40 40 40 40 37 41 42 41 38 38 37 39 40 40 39 39 39 38 38 38 37 36 36 36 36 36
43 43 43 43 43 43 43 43 43 41 41 37 37 37 41 44 41 39 34 34 34 34 37 37 37 37 41 38 38 42 35 38 36 38 39 38 34 31 35 37 39 40 40 39 39 39 39 38 38 37 37 37 37 36
44 43 43 42 43 43 43 42 42 40 40 40 39 39 38 38 37 34 33 35 35 32 38 37 37 37 42 43 37 39 37 36 33 37 35 28 30 31 34 34 35 37 37 37 37 37 38 37 37 37 36 35 33 32
43 43 43 43 42 42 43 43 42 41 43 43 38 35 35 35 30 30 28 32 33 35 35 37 37 41 41 39 35 36 34 33 34 33 29 29 32 31 34 35 34 34 33 33 32 31 31 31 32 31 30 31 30 29
42 42 42 42 42 42 42 42 42 42 40 37 35 31 32 29 28 28 28 31 33 33 34 34 36 37 35 33 32 33 33 35 32 29 25 28 30 33 34 34 32 31 31 31 30 30 29 29 29 30 31 31 30 29
43 43 42 41 42 42 43 43 43 42 35 31 30 26 28 31 29 31 32 33 33 33 33 34 35 35 34 32 33 34 31 25 24 23 26 28 31 33 32 32 31 31 31 31 31 30 29 29 29 28 29 29 28 27
42 41 42 43 44 43 42 41 41 38 31 25 23 25 26 28 25 26 26 29 32 33 33 34 33 30 29 29 26 25 22 19 22 25 27 29 31 31 31 31 31 31 31 30 29 28 28 27 27 27 27 27 27 26
42 39 43 42 41 41 40 38 33 27 25 24 24 25 25 24 23 25 26 27 31 33 31 30 25 24 29 23 18 20 19 22 25 25 26 27 28 29 30 30 30 29 29 28 28 28 28 28 27 25 23 24 23 23
41 42 42 42 41 38 33 33 29 25 22 23 23 24 24 24 23 25 28 28 32 29 27 24 25 19 19 18 17 21 24 27 25 24 24 25 26 27 28 26 27 27 27 28 27 27 27 25 23 23 23 24 23 22
43 43 42 42 41 37 33 32 27 22 23 25 24 25 25 25 25 26 27 26 24 24 23 19 17 15 17 19 21 22 25 26 23 23 23 23 24 25 25 24 24 24 24 24 23 22 22 23 24 23 24 23 22 24
41 40 38 37 39 35 31 31 29 24 22 22 23 21 21 20 23 26 25 23 18 16 15 14 15 18 19 20 21 22 23 28 25 20 19 21 23 22 23 23 22 23 20 20 20 20 19 18 19 19 20 20 19 19
40 39 37 36 33 31 32 30 28 26 26 25 24 21 22 23 22 21 21 17 19 15 15 18 19 20 21 21 21 20 20 19 19 20 19 17 20 19 19 19 19 18 17 18 17 16 16 16 17 17 19 19 17 17
37 31 36 35 31 29 28 29 27 28 25 24 23 22 23 22 20 19 16 15 15 17 18 18 18 17 16 18 19 20 21 20 20 18 18 17 16 15 16 17 15 14 13 13 12 12 10 10 12 13 15 15 13 12
31 32 32 32 32 33 27 29 27 22 24 24 23 19 20 20 17 15 15 12 15 18 19 17 17 16 16 15 13 13 14 13 13 14 14 14 13 14 13 12 13 13 11 10 10 11 11 8 10 12 13 12 12 12
29 30 28 28 28 25 30 26 23 22 24 22 20 17 17 19 18 15 11 13 15 15 15 16 17 15 14 12 10 10 10 11 11 12 13 11 10 10 9 9 10 11 10 9 10 10 10 11 8 9 9 8 7 8
24 23 27 23 27 24 23 23 23 21 20 20 18 17 18 20 15 12 10 13 16 17 17 15 14 14 13 13 11 9 10 9 9 7 9 12 13 11 9 7 6 5 8 11 10 10 9 9 8 7 6 5 3 4
19 22 22 23 22 22 21 19 19 19 19 17 18 19 22 17 11 10 10 15 16 15 17 18 17 13 11 10 9 8 8 10 8 6 5 5 6 10 8 7 6 5 7 8 8 7 6 5 4 3 4 4 1 2
18 20 20 19 20 20 21 21 20 19 17 16 19 16 16 9 8 10 13 15 13 15 14 16 13 11 10 8 8 8 8 8 7 4 5 4 4 5 7 6 3 3 5 5 6 6 5 4 3 3 3 4 4 2
19 18 15 19 18 18 16 16 15 14 15 15 15 10 8 8 8 14 13 14 15 13 12 12 12 11 10 10 11 12 11 10 9 8 8 7 6 6 5 6 4 1 4 4 4 5 4 3 3 2 1 1 1 2
19 20 16 12 15 14 14 15 14 12 12 15 14 9 8 7 15 13 14 14 15 14 12 11 12 13 11 10 11 10 11 10 5 -4 -6 4 6 6 5 6 5 5 5 5 1 1 2 2 2 1 -1 1 2 2
18 22 15 12 11 11 13 15 14 14 12 13 9 7 7 10 12 16 15 15 15 14 14 14 13 14 12 12 10 7 8 8 6 6 5 4 4 5 5 5 4 4 4 4 3 2 -2 1 2 2 1 -0 1 -1
21 21 16 14 12 14 15 16 16 15 14 13 15 13 9 10 12 13 13 13 13 13 12 10 10 12 11 10 10 7 6 6 2 2 3 5 6 6 4 3 4 4 4 2 1 1 -0 -0 1 -0 -1 -3 -4 -4
19 17 14 11 12 15 17 17 17 15 15 14 12 12 11 12 8 11 13 14 13 12 8 11 11 10 9 8 7 6 1 5 5 3 -5 4 5 4 4 3 3 3 2 0 1 0 -1 -2 -2 -2 -2 -3 -4 -6
18 18 16 15 13 12 16 16 12 11 13 12 11 11 11 11 6 12 11 14 15 13 11 12 11 10 6 4 4 5 3 5 -1 -1 -4 -2 -2 -0 1 3 3 1 -0 -0 -0 -0 -2 -3 -3 -4 -5 -5 -6 -6

GFSWCAN_sfc_dewp_054.txt.gz
Dewpoint
42 44 45 46 46 45 45 45 45 46 46 46 45 46 46 46 45 45 43 44 42 39 39 37 40 36 34 33 32 32 34 38 39 35 33 32 33 27 22 19 33 32 33 36 36 35 32 33 30 28 33 37 39 36
43 45 46 46 46 45 45 45 46 45 45 45 45 46 46 45 45 46 43 45 47 43 41 43 44 46 43 38 37 35 35 35 39 39 35 35 39 38 29 28 29 32 32 35 34 34 41 39 37 38 40 40 40 40
45 45 46 45 45 45 45 45 45 45 45 44 45 46 46 46 47 46 45 46 47 40 42 41 39 44 47 44 43 37 37 40 41 42 36 36 36 31 36 33 31 34 34 35 36 32 33 40 41 40 38 40 37 38
45 45 45 45 45 45 45 45 45 45 46 45 45 45 46 46 46 46 43 44 45 41 36 36 43 39 42 43 42 43 44 41 44 42 41 41 40 34 37 33 31 31 31 34 33 34 34 34 34 42 40 42 39 38
45 45 45 45 45 44 45 45 44 45 45 45 45 45 46 47 46 47 46 45 47 41 34 38 36 34 39 40 40 43 45 43 44 41 43 39 36 38 41 38 34 27 26 31 36 36 40 38 41 42 36 36 40 39
45 45 45 46 45 44 45 45 45 45 45 45 46 46 46 46 45 44 38 46 47 46 37 33 38 34 35 39 40 40 43 45 45 43 42 38 36 37 41 33 29 27 27 26 32 34 37 42 40 40 39 41 41 42
44 45 45 45 45 45 45 45 45 45 45 45 45 45 45 44 43 41 38 41 44 43 35 33 33 34 33 36 39 39 40 45 45 43 42 38 36 36 42 35 29 30 31 36 41 42 41 42 40 40 40 40 41 40
44 45 45 44 45 45 45 45 45 44 45 45 45 44 44 44 44 42 41 43 43 37 33 31 33 36 37 37 38 39 40 42 43 42 42 41 39 43 37 34 37 38 40 36 40 41 41 40 39 37 38 39 39 39
44 44 44 44 44 44 45 44 44 45 44 43 44 44 43 43 41 41 43 41 47 41 33 36 32 33 39 39 39 42 42 37 42 42 40 41 39 36 34 36 38 40 40 39 40 40 39 38 38 37 37 37 38 38
43 43 43 43 43 43 43 43 43 43 43 43 40 37 38 41 44 41 39 36 37 39 38 35 36 34 38 37 38 40 41 37 34 38 39 41 35 35 33 34 37 36 38 40 39 39 40 39 40 39 36 38 38 38
43 43 43 43 43 43 43 42 43 42 43 40 38 38 42 44 41 38 34 33 34 32 35 34 35 35 40 34 34 40 36 36 34 36 38 36 28 30 34 34 35 35 37 37 38 39 38 38 39 39 38 38 36 33
43 42 43 43 43 43 42 42 42 42 40 40 38 39 40 38 36 34 33 34 31 30 36 37 38 38 40 42 33 35 34 34 32 37 34 27 28 32 32 32 32 33 33 33 34 34 34 34 35 34 32 31 30 30
43 43 43 43 42 42 42 42 42 43 44 43 37 37 36 35 30 30 27 29 30 33 34 34 35 38 41 39 33 34 33 32 36 32 26 26 29 32 33 32 29 30 30 29 29 29 29 29 30 29 28 28 27 26
43 42 42 43 43 43 43 43 42 41 40 37 35 29 31 26 27 27 27 29 33 33 33 34 34 34 34 33 32 32 32 33 30 25 21 25 30 31 32 33 30 30 30 30 29 29 29 28 28 29 29 28 27 25
42 42 42 42 42 42 42 42 42 38 32 29 27 24 25 30 29 29 29 31 32 33 33 34 34 36 33 33 32 33 29 21 21 20 23 27 30 30 30 30 29 29 28 28 28 27 27 27 26 26 26 26 25 24
43 42 41 43 42 42 42 40 35 34 29 24 22 23 25 25 24 25 26 28 31 31 33 33 33 30 27 27 23 22 21 17 20 23 25 27 28 29 29 29 29 29 29 28 28 27 26 25 24 24 25 25 25 25
41 39 43 42 41 41 41 36 30 24 24 24 24 26 25 24 24 26 27 27 31 29 31 29 22 23 27 21 18 21 19 21 23 23 25 26 26 26 27 28 28 28 27 27 27 26 26 26 25 23 22 24 24 24
40 42 42 42 41 37 31 31 27 23 20 23 22 24 25 26 25 26 28 29 31 28 26 23 23 17 16 16 17 23 23 24 23 23 23 25 25 25 25 25 25 25 25 25 26 26 27 25 24 24 24 24 24 24
42 42 41 40 41 36 31 30 27 21 23 27 26 26 26 25 26 27 29 29 28 27 26 22 17 15 16 19 21 22 25 23 21 22 22 24 25 25 24 24 24 23 24 24 22 22 21 22 23 24 23 21 21 24
40 39 37 37 37 33 30 31 31 26 24 25 26 22 22 22 23 23 22 22 20 19 16 15 15 17 18 20 22 23 26 26 23 20 20 22 23 22 23 23 23 22 20 18 19 20 18 18 19 19 18 19 18 17
40 39 37 35 32 33 32 30 27 28 28 25 25 23 22 23 20 19 19 17 18 16 15 18 19 21 23 23 23 22 22 21 21 21 19 18 21 20 20 20 18 18 16 16 14 13 15 14 15 16 17 16 15 17
36 35 37 37 34 31 30 31 28 29 25 25 24 23 22 22 21 19 17 17 16 17 19 18 19 18 17 19 21 21 21 20 20 19 19 17 16 16 16 17 15 15 14 15 13 13 12 10 14 14 15 17 14 12
32 33 35 35 32 32 28 30 27 23 23 22 22 19 20 19 17 16 15 13 18 21 19 18 18 16 14 14 13 13 14 13 13 14 15 15 14 15 14 14 15 15 13 11 10 11 11 9 10 13 13 12 12 12
32 32 30 29 29 25 31 26 23 22 23 21 18 16 17 19 18 15 11 15 16 15 17 21 18 14 13 11 11 11 11 12 13 15 15 12 11 9 8 7 8 11 10 9 10 11 11 11 9 9 9 7 7 8
25 23 28 24 30 25 23 23 22 20 19 20 17 17 18 19 15 13 11 15 16 19 18 17 17 15 13 12 11 10 11 10 9 7 9 12 14 12 9 6 5 5 9 11 10 9 9 9 8 8 6 6 2 4
19 22 22 23 23 22 21 20 20 19 19 17 18 18 22 17 11 11 13 17 17 16 19 20 18 13 10 10 8 8 9 11 9 6 5 5 7 10 8 7 6 5 7 9 7 7 5 5 5 4 5 4 2 3
18 19 20 21 21 21 22 22 20 19 17 16 18 17 16 10 8 11 15 17 15 16 16 17 14 12 10 9 9 9 9 8 7 5 5 5 6 6 6 4 2 3 6 5 6 6 4 4 3 3 3 3 4 2
18 19 16 20 19 20 17 17 16 15 15 15 15 10 10 10 10 16 15 16 16 14 13 13 13 13 12 12 13 13 13 12 11 10 9 8 7 7 7 8 5 4 6 5 4 4 4 3 3 2 1 1 2 3
19 18 16 13 14 14 15 15 14 12 13 16 14 10 8 12 16 15 15 16 16 15 13 13 13 14 13 12 12 11 11 10 7 2 2 5 7 6 6 6 6 6 6 6 6 5 2 3 2 1 0 2 3 4
19 21 15 12 12 10 14 15 15 17 14 13 10 8 9 11 16 17 16 17 17 16 16 15 15 16 13 14 10 9 8 7 6 7 6 4 4 5 6 5 5 6 5 4 4 3 4 2 5 5 2 2 1 -0
21 20 15 13 11 14 15 18 18 17 16 16 17 12 9 10 13 15 15 15 15 15 13 12 12 13 11 10 10 8 8 7 3 2 4 5 5 6 5 4 5 4 4 4 2 2 1 -0 0 1 0 -1 -2 -2
21 17 14 10 12 15 20 21 18 16 17 14 12 12 13 14 9 11 14 15 14 14 9 13 12 11 10 8 7 5 2 6 6 4 2 4 6 5 4 3 5 4 3 1 1 2 1 -1 -1 -1 -1 -2 -2 -3
20 19 17 15 14 15 17 17 13 13 14 12 12 13 13 14 9 12 13 15 17 15 13 13 12 10 7 6 7 5 2 6 1 1 1 0 -2 -0 -0 3 2 1 -0 -0 0 1 -0 -1 -2 -3 -3 -4 -3 -3

GFSWCAN_sfc_dewp_057.txt.gz
Dewpoint
43 43 43 44 45 46 46 46 46 46 46 46 46 46 46 46 46 45 43 44 40 37 39 38 39 38 33 33 30 32 32 35 35 28 27 27 25 28 28 28 32 31 31 30 33 30 28 38 35 27 31 33 35 34
44 44 45 46 46 46 46 46 45 45 45 45 46 46 46 46 45 46 42 45 44 41 41 45 44 44 44 42 39 35 32 32 36 33 32 31 27 29 26 24 31 32 33 34 34 33 39 39 43 42 42 41 39 38
44 45 46 46 45 45 45 45 45 45 46 45 45 46 46 46 46 46 43 44 43 40 40 41 38 44 45 44 45 39 38 37 40 41 38 35 27 32 26 25 26 32 35 34 35 35 32 34 40 41 44 43 44 39
45 45 45 46 44 45 45 44 44 46 45 45 45 46 46 46 46 46 43 44 43 40 34 38 43 44 45 44 44 46 44 43 42 43 38 37 35 34 28 31 30 32 33 32 34 36 37 36 36 40 41 44 41 42
45 45 46 45 45 45 45 45 45 45 45 45 45 45 46 46 46 45 46 45 45 38 32 36 41 41 43 43 43 44 44 42 43 37 33 34 36 35 37 35 31 30 27 32 35 38 37 38 41 42 42 39 40 40
45 45 45 45 45 45 45 45 45 45 45 44 45 46 46 46 46 45 39 45 47 46 38 32 39 37 41 44 43 42 43 43 42 40 38 41 41 36 29 30 31 30 29 28 27 35 35 38 39 40 40 41 41 41
44 45 45 45 45 45 45 45 45 45 45 45 45 45 45 45 45 40 37 41 46 45 39 31 31 36 37 39 39 39 41 42 41 41 39 39 39 39 30 29 38 40 40 40 41 40 39 40 39 39 39 40 40 40
44 45 45 45 45 45 45 45 45 45 45 45 46 45 45 45 44 41 43 45 46 40 36 28 28 34 38 35 35 39 38 40 41 39 39 39 41 39 30 33 36 37 39 40 39 40 39 39 39 38 38 38 38 38
44 44 45 45 44 45 44 45 44 44 44 44 44 44 43 42 38 40 43 44 45 41 32 30 28 29 39 37 36 37 39 30 40 35 37 38 35 29 31 32 33 35 36 37 40 40 40 40 39 37 37 37 37 37
44 44 44 44 44 44 44 43 43 44 44 44 43 40 35 40 43 42 41 38 38 39 37 29 34 30 37 35 35 32 30 29 31 34 40 34 29 34 32 33 33 34 35 37 38 37 37 38 39 37 36 35 33 31
44 44 44 44 44 44 44 44 44 44 43 41 38 36 40 44 40 37 30 31 34 30 32 32 34 34 39 33 33 33 31 31 26 30 33 31 25 28 32 32 31 32 33 33 35 35 35 35 35 34 32 31 29 28
44 43 43 42 42 42 42 43 43 42 41 40 39 41 40 38 35 31 30 32 28 28 33 33 32 37 37 39 34 34 31 32 28 36 30 22 25 29 31 30 30 30 30 30 31 31 31 31 31 30 28 26 26 25
43 43 43 43 43 43 43 43 43 43 42 42 39 35 36 33 26 21 24 29 28 31 32 33 33 33 36 35 32 32 29 29 34 27 21 22 28 29 29 29 28 29 29 29 29 28 27 27 27 26 25 25 25 24
42 42 43 43 42 42 43 43 43 40 39 33 31 21 24 19 23 23 24 26 31 31 30 31 33 33 32 32 32 31 30 30 25 19 16 23 26 28 29 29 28 26 26 26 26 25 25 24 24 24 24 25 23 22
42 42 41 42 43 43 42 40 41 35 30 25 24 21 20 27 24 25 27 29 30 31 31 32 32 34 31 30 29 29 25 17 18 15 20 25 27 27 27 27 26 26 25 24 24 24 24 24 23 23 24 24 23 23
43 42 42 42 41 42 41 38 34 34 29 23 21 19 22 21 20 22 23 25 30 29 30 32 32 24 24 23 18 19 16 13 16 20 23 25 24 26 26 26 26 26 25 25 25 24 23 23 22 22 23 23 23 22
42 40 42 41 40 37 38 35 29 24 25 24 21 24 23 22 22 23 26 25 30 29 27 26 20 19 25 17 15 19 14 17 19 21 22 22 23 23 24 24 25 26 25 25 25 24 24 24 22 20 21 22 23 22
39 41 42 42 42 40 33 32 26 23 20 23 19 22 24 23 21 24 26 26 28 27 25 22 21 12 10 11 14 18 19 20 21 21 22 22 22 22 23 22 23 23 22 22 21 21 23 23 22 22 23 23 21 20
41 41 39 39 39 35 30 29 27 21 24 25 25 24 24 23 23 24 26 26 24 24 23 18 12 12 12 17 17 20 20 20 18 20 20 21 22 23 22 21 20 19 19 20 19 18 18 18 17 18 18 16 16 19
40 38 39 38 38 33 29 29 31 26 24 24 23 19 18 17 19 20 19 20 19 18 15 13 13 16 16 18 20 21 23 23 20 17 17 19 20 19 18 18 18 17 16 15 16 15 15 15 14 13 13 14 13 13
40 39 38 38 34 34 31 30 29 29 28 28 27 24 21 19 15 15 15 16 15 15 14 17 17 19 21 21 22 20 20 19 19 18 17 16 19 18 17 16 16 14 12 11 10 9 11 12 13 15 9 6 7 12
36 36 36 37 32 31 30 30 29 29 27 26 25 25 20 14 14 15 15 13 14 16 17 17 18 18 19 20 21 20 20 20 19 17 16 15 14 14 14 14 12 11 11 10 9 8 8 9 11 9 9 10 6 5
35 36 33 32 26 25 23 31 23 25 20 21 23 18 17 15 19 18 12 15 18 19 18 17 17 16 15 15 15 15 15 14 13 13 12 11 10 10 9 9 11 9 8 9 10 9 6 7 6 2 2 4 4 3
34 30 25 25 23 18 23 19 25 24 21 17 15 12 14 16 18 12 11 15 17 19 22 19 15 12 12 11 10 12 13 12 10 11 15 11 8 7 7 6 7 8 10 11 8 4 5 -2 1 3 -7 -8 -7 -8
18 17 21 18 24 16 13 13 15 17 11 14 10 13 14 19 9 10 9 14 17 17 16 18 17 14 11 11 11 11 12 9 7 5 7 9 12 9 6 5 5 6 8 2 4 -5 -8 -7 -5 -3 -4 -13 -5 -7
13 17 18 18 17 15 17 10 10 10 11 10 14 18 15 8 2 6 13 14 9 14 16 18 11 9 9 9 8 8 8 11 7 5 5 6 6 4 1 2 -0 2 4 1 -6 -3 -6 -6 -10 -9 -7 -2 -9 -13
11 14 22 24 24 22 16 17 19 14 9 8 10 11 5 -4 -2 11 16 16 12 15 16 16 14 11 10 10 10 10 9 8 7 6 7 6 7 5 0 -7 -8 -3 5 -4 -8 -6 -10 -10 -11 -10 -14 -13 -13 -13
19 19 11 16 14 18 10 10 8 7 8 15 11 -1 -2 1 6 14 14 14 12 14 13 12 12 13 13 13 14 12 10 7 4 7 7 6 4 0 1 1 0 5 1 -6 -10 -11 -11 -12 -13 -13 -15 -14 -12 -11
17 19 14 7 9 11 12 10 9 12 13 16 2 3 3 14 12 12 13 12 13 13 9 6 4 4 7 7 5 5 2 0 -6 -10 -11 -3 -4 -4 -4 -6 -5 -6 -8 -6 2 1 -5 -10 -10 -11 -13 -14 -12 -7
16 20 10 5 4 6 11 13 15 12 12 9 10 9 9 11 15 14 15 17 15 11 6 5 9 7 8 5 -2 -5 -5 -9 -10 -8 -8 -8 -8 -8 -7 -10 -7 -10 -9 -9 -10 -9 3 -10 -6 -6 -8 -9 -13 -17
22 17 9 9 7 8 7 9 13 12 10 10 7 2 4 4 6 12 9 6 5 2 2 1 3 4 1 -3 -2 -2 -9 -8 -11 -10 -10 -10 -7 -4 -11 -10 -7 -10 -10 -10 -13 -13 -12 -14 -16 -15 -14 -14 -14 -12
17 10 5 2 8 13 16 17 11 10 9 1 -1 1 3 5 -1 2 4 6 8 6 4 9 5 -3 -5 -6 -9 -11 -6 -6 -7 -8 -10 -9 -7 -13 -13 -10 -2 -5 -11 -13 -13 -13 -11 -12 -15 -15 -17 -17 -18 -18
14 12 10 9 8 8 13 12 7 8 6 3 0 4 3 4 -1 2 4 7 12 9 7 3 -0 -5 -6 -2 -5 -9 -5 -11 -9 1 -4 -6 -10 -9 -16 -15 -16 -17 -16 -17 -16 -14 -11 -11 -12 -13 -16 -18 -18 -19

GFSWCAN_sfc_dewp_060.txt.gz
Dewpoint
43 43 43 43 44 44 45 45 45 45 45 45 46 45 45 45 45 44 41 44 40 35 36 39 37 33 32 31 29 30 31 33 34 29 28 26 24 30 30 29 30 28 28 29 32 31 27 39 39 32 36 41 42 42
43 43 43 44 45 46 46 46 46 46 46 46 46 46 46 46 45 45 40 44 44 39 38 43 41 43 38 37 34 34 31 32 35 33 30 29 25 25 27 24 29 29 31 31 31 31 36 41 40 44 43 41 43 43
43 45 45 46 46 45 45 45 45 46 46 45 45 46 46 46 46 45 43 43 42 38 37 38 39 45 46 45 47 36 37 36 40 40 36 33 25 30 24 25 25 29 35 34 36 34 36 36 40 42 42 40 42 41
45 45 46 46 46 45 45 45 45 45 45 45 45 45 45 46 46 46 43 44 41 39 32 36 41 41 44 45 45 46 43 44 44 42 36 31 29 34 27 29 27 26 34 33 33 34 35 35 37 38 36 41 41 40
45 45 45 45 45 45 45 45 45 45 45 45 45 45 46 46 46 46 45 44 42 36 31 35 41 41 42 43 43 44 42 41 42 39 36 31 35 33 34 34 31 33 34 34 30 35 34 35 33 38 37 36 38 39
45 45 45 45 45 45 45 45 45 45 45 44 45 46 46 46 47 44 39 44 44 44 37 31 38 41 41 41 41 41 42 41 41 39 36 38 40 34 29 29 37 38 38 40 38 40 38 39 39 39 40 39 41 41
45 45 45 45 45 45 45 45 45 44 45 45 46 45 45 46 44 39 36 41 45 46 38 32 31 38 41 42 41 41 43 42 42 41 38 39 39 40 30 29 34 36 37 40 39 41 40 38 38 39 38 38 40 40
45 45 45 45 45 45 44 44 44 45 45 45 45 45 45 44 44 42 45 43 45 41 36 29 29 32 39 35 36 41 39 40 40 39 40 38 40 39 32 30 32 34 35 38 38 39 40 39 38 37 38 38 37 33
45 45 45 44 44 44 44 45 44 44 45 45 45 44 43 43 40 42 45 45 45 39 30 26 25 28 39 37 36 37 38 30 38 30 35 37 33 25 28 30 31 32 34 36 38 38 38 38 36 35 36 34 32 30
44 44 44 44 44 45 45 44 44 44 45 45 43 38 33 40 45 43 39 36 35 37 36 28 32 30 37 33 32 32 30 29 31 33 38 29 26 30 30 31 30 31 33 34 35 35 36 37 34 32 30 29 28 27
43 43 43 43 43 42 43 43 43 43 43 39 35 36 41 43 38 35 31 30 33 29 31 31 33 32 37 32 33 31 32 32 27 31 29 24 21 26 30 28 29 29 31 31 32 33 34 34 33 31 29 27 26 25
43 43 42 43 43 43 43 43 43 40 39 39 39 41 39 37 35 28 29 29 28 30 33 33 35 36 35 37 33 34 29 31 26 32 21 16 24 28 28 27 28 28 28 28 28 27 27 27 27 25 24 23 23 23
43 43 43 43 43 43 43 43 42 42 43 41 37 35 30 26 18 17 22 26 26 30 30 32 32 33 35 35 32 32 29 29 32 22 17 20 25 26 26 25 25 26 25 24 24 25 25 25 25 25 23 24 23 22
42 42 43 43 42 42 40 40 41 38 35 29 26 17 18 14 19 19 20 20 27 28 28 30 31 32 32 31 31 28 27 26 16 13 12 21 24 25 25 25 23 23 24 23 23 23 23 22 22 23 23 23 22 21
42 42 42 42 41 40 39 38 36 31 27 22 21 14 17 22 20 22 23 24 27 27 29 30 32 32 28 26 25 26 20 12 14 10 18 22 24 24 24 25 24 23 22 22 23 22 22 22 22 22 23 23 23 22
43 41 40 42 41 38 39 33 32 32 28 23 21 17 20 16 16 18 18 22 27 28 30 30 27 23 22 21 18 16 12 9 14 18 21 22 21 22 23 24 24 24 23 23 23 23 23 22 21 21 22 21 21 21
41 39 42 42 42 36 37 31 28 25 24 22 20 23 21 21 20 21 23 23 28 27 22 23 15 16 21 17 14 16 12 15 18 19 20 20 20 21 21 21 21 21 20 21 22 23 23 24 22 20 19 20 20 20
39 39 41 41 40 37 33 29 26 23 20 22 20 20 22 21 19 20 23 24 25 25 22 17 18 10 10 10 9 15 16 17 18 19 20 20 19 19 19 18 19 20 19 19 19 18 19 18 17 18 20 18 17 17
40 38 39 40 38 32 28 28 27 21 22 22 20 21 21 21 22 24 24 22 21 21 19 15 7 8 9 14 15 17 17 17 16 17 17 18 20 19 18 18 17 16 16 17 17 15 15 15 15 15 15 15 15 15
40 39 39 39 38 30 27 28 30 24 22 21 20 18 18 18 18 18 18 17 15 16 13 10 11 13 13 18 20 19 20 20 17 14 14 16 18 17 16 16 14 14 13 12 12 13 12 10 10 11 11 11 10 10
38 36 38 36 33 31 29 29 27 26 24 23 24 20 17 16 14 13 13 14 12 14 13 16 16 19 20 20 20 19 19 18 17 16 15 13 16 15 14 13 12 11 9 8 8 8 9 9 10 8 4 2 5 6
33 36 33 34 30 28 27 29 28 28 26 25 24 23 18 12 12 14 14 12 13 15 17 17 18 19 17 17 18 18 17 16 15 14 13 12 10 10 10 10 10 9 8 6 6 3 4 5 6 6 4 0 2 1
34 34 30 27 24 21 20 28 21 25 18 19 20 15 12 8 16 16 9 15 16 18 16 14 14 15 17 17 16 15 14 12 11 10 9 8 7 7 7 7 9 4 5 7 7 4 4 0 -2 -5 -2 0 -2 -6
32 28 26 20 20 17 18 16 23 21 16 14 12 9 12 11 14 8 9 12 18 19 15 14 12 11 11 11 10 11 11 10 10 11 10 6 5 5 6 6 6 7 8 6 3 -1 -2 -7 -6 -7 -11 -10 -12 -13
17 16 18 13 18 12 5 4 9 12 7 9 7 8 9 14 4 2 4 12 12 13 14 14 12 11 9 9 8 9 10 8 6 6 8 9 6 5 4 4 4 4 5 -2 -6 -11 -15 -11 -9 -12 -12 -16 -9 -18
10 12 13 11 11 12 11 5 4 5 6 6 9 14 9 1 -4 1 10 8 6 10 7 2 8 8 8 8 7 6 8 9 6 4 5 6 5 -1 -3 -7 -8 -3 -0 -9 -11 -14 -12 -15 -16 -12 -14 -13 -16 -19
7 9 19 21 22 18 12 12 14 9 5 5 5 3 -3 -11 -10 8 13 12 11 8 11 12 11 9 8 8 8 8 7 7 6 5 6 4 3 2 -6 -11 -10 -3 -2 -9 -12 -15 -16 -17 -18 -20 -21 -20 -21 -18
18 13 6 7 9 13 4 4 3 2 4 14 4 -6 -9 -7 2 9 9 11 9 12 12 12 12 11 10 10 8 5 4 2 4 4 5 3 1 -5 -6 -6 -5 3 -5 -11 -15 -18 -18 -19 -19 -20 -21 -19 -20 -13
9 13 9 1 4 7 8 3 4 11 12 11 -6 -5 2 12 4 9 11 9 9 9 6 6 0 0 2 2 -2 -4 -9 -0 -3 -9 -11 -13 -11 -5 -11 -13 -11 -15 -17 -14 -1 -1 -6 -14 -15 -13 -11 -12 -12 -12
11 14 5 -1 -0 3 7 7 0 -2 9 6 10 9 8 9 13 11 12 13 5 -3 -5 -4 -4 -3 -8 -9 -14 -10 -13 -19 -16 -11 -13 -15 -11 -8 -18 -17 -15 -17 -19 -18 -19 -15 -4 -15 -12 -18 -18 -16 -19 -22
15 8 4 4 4 4 0 -3 5 4 -2 -4 -7 -6 -2 3 5 9 6 3 2 -2 -1 -4 -3 -13 -4 -8 -16 -19 -16 -15 -19 -16 -15 -13 -10 -19 -20 -20 -15 -15 -15 -19 -21 -22 -18 -17 -22 -23 -23 -22 -22 -25
6 -1 1 1 6 7 5 4 -4 -5 -10 -9 -10 -13 -6 -8 -9 -5 2 -4 -1 -5 -8 -9 -7 -10 -15 -18 -20 -19 -12 -15 -17 -16 -15 -18 -20 -22 -21 -18 -21 -21 -22 -23 -23 -23 -22 -18 -19 -19 -20 -22 -25 -25
4 7 1 3 2 1 3 3 -1 2 -2 -7 -4 -4 -4 -4 -8 -1 3 -3 -2 -1 -6 -10 -14 -14 -12 -12 -13 -15 -13 -17 -17 -3 -9 -11 -16 -13 -23 -25 -25 -25 -23 -24 -25 -24 -20 -19 -23 -24 -27 -28 -28 -30

GFSWCAN_sfc_dewp_063.txt.gz
Dewpoint
44 44 44 43 43 43 44 44 44 44 44 44 44 44 44 45 45 46 43 44 40 35 36 39 39 35 32 31 28 31 32 32 31 26 26 26 23 26 25 27 30 30 28 26 29 27 25 39 36 35 38 40 42 41
44 44 44 44 44 43 44 45 45 45 46 45 45 45 45 45 44 44 41 45 44 38 36 41 38 39 40 35 32 33 30 33 34 29 28 28 24 23 27 24 30 27 28 28 30 30 35 38 38 40 42 44 40 43
44 45 45 45 45 46 46 46 46 46 46 46 45 45 46 46 45 44 41 43 42 37 37 37 35 42 45 45 41 34 34 35 37 37 33 31 24 28 22 25 25 26 32 31 32 32 32 33 38 40 44 43 43 42
45 46 45 46 46 46 46 45 45 45 45 46 46 46 46 46 46 45 42 43 40 39 33 32 38 36 42 45 46 44 40 42 40 40 34 32 32 33 26 26 26 26 28 26 26 31 32 36 35 37 39 42 41 43
45 46 45 45 45 45 45 45 45 45 45 45 45 46 46 46 46 46 44 44 39 34 29 30 40 37 38 44 43 44 43 42 39 36 34 34 34 35 36 34 30 37 34 32 30 38 39 37 37 39 39 39 40 40
45 45 45 45 45 45 45 45 45 45 45 45 46 46 46 46 46 44 38 44 42 43 35 27 37 39 38 42 41 41 41 41 41 39 34 38 40 37 29 27 35 36 37 37 38 39 39 41 39 39 39 40 41 41
45 45 45 44 45 45 45 44 44 44 44 45 45 46 45 45 45 38 36 41 43 44 36 32 29 40 41 41 40 39 42 41 39 38 36 36 37 40 31 28 32 33 34 36 39 39 40 41 39 39 39 38 35 32
45 45 45 44 44 45 45 45 45 45 45 45 46 46 45 45 45 43 44 43 44 41 39 31 32 35 42 37 36 41 38 39 40 37 39 37 38 37 26 30 31 31 33 36 35 39 39 39 36 35 34 33 31 29
44 44 44 44 43 44 45 44 44 45 45 45 45 44 43 42 39 41 44 43 45 40 32 28 26 29 39 36 36 37 38 32 39 33 34 37 30 23 26 29 28 30 31 33 34 37 38 35 33 33 30 31 28 26
42 42 42 43 43 43 43 44 44 44 43 43 41 37 33 41 46 44 41 37 36 38 34 26 30 33 37 33 30 32 33 32 30 33 35 27 24 27 28 26 29 30 32 33 33 33 33 35 32 30 28 27 26 24
43 43 43 43 43 43 44 43 43 44 42 40 37 35 41 44 40 36 31 31 32 26 29 31 31 31 36 33 32 33 32 31 27 31 27 23 20 25 26 24 25 28 30 30 32 29 28 28 28 26 25 25 24 23
44 43 43 42 42 43 43 43 42 40 38 37 39 40 39 34 28 26 23 26 28 28 32 34 35 35 34 38 33 33 31 31 23 28 22 16 22 25 24 23 24 25 25 25 25 24 24 23 23 22 21 21 21 22
43 43 42 42 40 40 40 42 41 42 42 38 33 27 25 21 14 14 21 25 24 28 28 31 32 33 35 35 32 32 28 28 29 19 15 18 23 23 24 22 22 24 23 23 23 23 22 22 23 22 21 21 21 20
41 41 41 40 41 39 38 37 37 34 31 27 23 14 15 11 17 18 19 21 25 27 27 30 32 32 32 31 29 24 24 23 14 10 11 18 22 23 23 23 21 21 22 22 21 21 21 21 20 21 21 21 19 18
41 41 41 42 39 39 36 38 34 30 27 22 19 12 15 21 21 21 23 25 27 28 29 31 31 29 25 24 23 22 14 9 12 7 13 20 22 22 22 22 22 21 21 21 21 21 20 20 19 19 21 21 20 20
42 39 40 42 40 38 34 32 31 30 26 22 19 15 17 13 14 15 17 20 26 26 28 27 23 22 20 20 16 14 9 7 10 14 19 19 19 19 19 20 21 22 22 22 22 22 21 20 19 19 19 19 19 18
40 38 41 41 41 35 34 30 28 25 24 21 19 21 17 10 11 15 19 21 26 24 21 20 13 14 21 16 10 13 10 13 16 16 17 19 18 18 19 20 20 19 19 19 20 21 21 22 21 17 16 18 18 18
35 37 41 41 39 34 32 30 26 23 17 19 16 17 20 16 13 14 21 21 22 22 20 16 16 9 9 8 6 12 14 16 18 18 18 17 17 17 18 17 18 18 18 17 17 17 17 16 16 16 16 15 14 14
39 38 40 40 36 31 28 28 26 17 18 20 19 20 19 17 19 19 20 20 19 20 17 14 7 7 8 11 11 14 15 16 14 15 16 17 17 17 16 16 15 14 15 14 13 12 12 13 13 13 13 12 10 10
40 39 39 39 36 29 27 28 29 21 19 20 21 18 17 17 17 16 17 17 16 16 12 9 8 9 12 17 17 17 17 18 16 13 13 14 15 14 13 13 12 12 11 11 10 10 9 8 9 9 9 8 6 5
36 35 37 34 32 31 29 28 25 24 23 21 18 16 15 15 13 14 14 15 13 13 11 14 14 17 19 19 19 18 18 17 16 14 12 11 14 12 11 10 9 8 6 5 5 5 6 6 7 5 2 -2 -0 1
31 37 32 30 28 27 26 28 27 26 25 24 23 21 14 7 9 13 15 11 12 14 16 16 17 16 16 16 17 17 16 14 13 11 11 10 8 7 6 7 6 4 4 3 2 -3 1 5 4 1 -3 -10 -2 -3
32 31 27 25 21 19 20 26 21 25 17 18 17 13 9 6 14 14 8 14 15 17 15 15 16 16 15 14 13 13 11 9 8 8 7 6 6 5 5 6 4 -0 2 4 4 1 -3 -4 -2 -3 -4 -6 -8 -13
29 24 22 17 20 14 16 15 23 18 14 12 10 9 10 8 12 7 8 12 15 16 14 14 12 11 10 10 10 10 10 9 8 7 7 5 3 4 5 5 5 4 4 3 -0 -5 -6 -14 -12 -9 -14 -17 -21 -18
16 15 17 10 15 10 4 2 6 11 4 7 6 8 6 11 1 1 3 9 11 10 8 12 11 9 7 5 7 8 10 8 7 6 7 5 3 3 2 2 2 3 3 -7 -15 -16 -16 -20 -20 -18 -18 -22 -13 -20
10 11 12 10 12 12 10 6 4 4 3 3 6 9 5 -2 -7 -1 7 5 3 7 -4 1 5 7 7 7 6 5 6 8 6 3 4 7 4 -3 -8 -10 -10 -4 -2 -11 -15 -19 -17 -19 -19 -17 -20 -18 -19 -24
7 7 18 17 19 16 10 10 12 8 4 4 5 -4 -6 -14 -14 4 12 11 9 9 12 11 9 7 6 6 6 6 6 6 4 3 4 2 1 0 -7 -12 -11 -5 -4 -12 -17 -18 -18 -21 -22 -23 -23 -23 -23 -22
14 11 4 3 5 10 -2 -2 -4 -2 1 11 1 -10 -13 -10 -0 7 8 10 8 12 11 11 10 9 8 6 3 2 -0 1 1 2 2 1 -1 -8 -10 -11 -9 1 -13 -18 -20 -23 -22 -22 -21 -22 -24 -22 -21 -23
6 9 5 -5 -1 3 6 1 3 9 11 5 -10 -8 1 9 4 6 9 7 7 8 5 3 -2 -5 -3 -4 -8 -7 -8 -5 -9 -13 -17 -18 -18 -8 -10 -17 -18 -19 -20 -15 -4 -4 -10 -19 -17 -19 -20 -19 -15 -18
6 9 -0 -7 -4 0 0 2 -3 -5 6 4 8 8 6 5 8 5 6 2 -1 -5 -9 -8 -11 -10 -14 -13 -17 -14 -19 -19 -12 -8 -16 -20 -14 -15 -22 -21 -20 -21 -22 -23 -22 -18 -6 -17 -14 -21 -22 -24 -26 -27
10 4 1 1 2 1 -1 -9 -7 -2 -8 -7 -10 -7 -3 -0 4 8 7 1 -5 -5 -3 -9 -12 -16 -13 -20 -21 -20 -16 -18 -23 -20 -19 -20 -21 -22 -22 -23 -23 -24 -24 -25 -26 -25 -23 -24 -25 -24 -25 -24 -26 -29
-0 -5 -1 1 3 3 0 -9 -11 -12 -15 -11 -13 -17 -11 -11 -12 -2 0 -2 -3 -8 -12 -15 -10 -11 -18 -21 -24 -23 -16 -16 -20 -19 -15 -20 -21 -25 -25 -23 -28 -27 -26 -27 -29 -28 -25 -25 -26 -26 -26 -27 -29 -30
1 4 0 -0 -2 -4 -2 -2 -4 -6 -10 -12 -7 -11 -12 -12 -11 -5 -0 -7 -5 -4 -7 -10 -15 -15 -16 -17 -15 -19 -19 -21 -20 -7 -12 -13 -19 -18 -27 -30 -30 -29 -26 -28 -30 -28 -27 -25 -28 -29 -30 -31 -32 -33

GFSWCAN_sfc_dewp_066.txt.gz
Dewpoint
45 44 44 44 44 43 43 43 43 43 43 43 44 44 45 46 46 45 42 45 40 35 38 40 38 37 36 33 29 31 32 33 32 29 27 27 24 25 24 28 30 29 28 28 29 28 24 35 35 30 36 37 34 37
44 44 44 44 44 44 44 45 44 44 44 43 43 44 44 44 45 46 39 45 45 38 37 40 41 40 38 35 33 32 31 33 32 28 27 27 24 23 26 23 30 26 29 27 29 27 32 36 33 37 37 35 35 41
44 44 45 45 45 45 46 45 45 45 45 45 45 44 44 44 45 43 40 43 42 35 36 38 36 39 41 42 43 35 34 36 35 34 31 29 24 27 22 25 24 27 31 30 30 29 31 31 33 36 38 38 38 42
45 45 45 45 45 45 45 46 46 46 45 46 46 45 44 45 45 44 42 43 41 38 32 33 40 40 43 42 44 43 38 41 42 40 33 29 27 31 25 26 26 27 28 28 28 27 34 29 36 40 40 40 42 44
45 45 45 45 45 46 45 45 45 45 45 45 46 46 45 45 45 44 43 43 40 34 30 31 38 37 43 43 41 44 42 39 40 36 33 30 32 32 33 34 32 36 33 29 24 37 37 37 39 40 39 40 41 41
45 45 44 45 45 45 45 45 45 45 45 45 45 46 46 46 46 43 37 43 41 41 34 26 35 36 36 37 41 42 42 41 40 37 34 36 38 33 25 26 34 36 36 36 36 38 38 38 40 38 39 36 34 32
45 45 44 44 45 45 44 43 44 45 45 45 45 45 46 46 45 38 36 40 41 43 35 28 28 39 37 40 40 40 42 41 40 38 36 37 36 38 32 26 31 32 31 33 37 36 37 38 37 34 34 33 31 28
44 44 44 44 44 44 45 44 43 45 45 45 45 45 46 45 44 40 43 43 42 40 38 31 31 36 39 36 36 41 38 39 39 37 38 35 37 35 29 27 29 29 30 33 33 34 38 36 33 31 31 29 27 25
43 44 44 44 44 45 44 45 45 45 45 46 45 45 43 42 39 42 44 43 45 40 31 30 27 30 40 36 38 38 38 33 38 34 34 36 28 22 25 26 27 27 28 29 32 34 35 34 32 30 28 27 26 25
43 43 43 43 43 43 44 43 43 44 44 43 41 38 34 41 44 44 39 35 36 37 37 31 33 33 36 34 33 34 34 31 28 34 33 26 22 27 25 24 25 27 30 30 29 30 29 30 28 25 25 25 24 23
43 42 42 42 43 43 43 43 43 43 42 40 38 34 42 45 39 35 31 31 32 30 32 32 32 33 37 31 30 32 31 31 28 31 28 22 19 24 23 22 23 24 25 26 29 27 26 27 26 24 22 22 21 20
42 41 41 40 40 41 43 44 42 40 40 40 40 41 40 31 30 30 27 29 29 27 31 33 34 32 35 37 33 32 31 31 22 28 21 14 20 23 22 21 22 23 23 22 24 23 24 23 24 22 20 19 20 20
42 42 41 40 39 39 40 42 43 43 41 35 31 24 23 18 11 14 22 23 22 26 27 31 32 33 34 35 32 32 28 24 27 18 14 16 21 21 22 20 20 21 22 22 21 21 21 21 22 20 19 20 20 19
41 42 42 40 37 39 37 34 37 34 31 25 20 10 9 6 14 16 17 19 24 26 26 29 31 30 31 29 26 22 21 20 13 9 9 17 19 21 22 22 20 20 21 20 19 20 20 19 19 19 19 19 17 16
41 41 41 40 39 36 35 35 31 30 26 21 19 10 12 18 18 18 21 22 25 27 28 31 27 27 24 22 21 20 13 10 10 5 11 18 20 21 21 21 21 21 20 20 20 19 19 19 18 18 19 19 18 18
40 39 39 41 37 35 32 31 31 30 26 20 18 14 16 14 14 15 17 17 24 25 29 26 25 21 19 19 15 12 9 6 8 14 17 19 19 19 19 19 19 21 21 21 20 20 19 18 17 17 18 17 16 16
39 36 40 41 34 34 34 29 28 22 22 19 15 16 10 10 11 14 17 19 25 25 20 20 15 14 21 13 9 11 8 11 14 15 17 17 17 17 18 19 18 18 18 19 19 20 19 20 19 16 14 16 16 16
36 37 40 41 38 33 31 30 25 19 15 18 13 13 12 12 12 13 18 21 22 21 18 14 14 10 9 8 6 11 14 15 17 16 16 16 16 16 16 16 17 17 16 16 17 17 17 16 14 14 13 12 11 10
38 38 40 38 34 31 27 27 23 15 17 17 17 16 15 16 17 18 19 20 20 20 17 14 8 7 6 11 11 12 14 15 13 14 14 15 16 15 15 15 15 14 13 14 13 11 11 11 11 11 9 8 7 8
39 37 39 38 35 29 27 27 26 19 17 19 19 17 17 16 16 13 17 17 16 15 12 9 9 9 10 14 15 15 16 17 14 11 11 12 14 13 12 12 11 12 10 9 8 8 8 7 7 6 6 5 3 2
33 34 36 34 31 30 28 26 24 23 22 19 17 16 14 14 13 13 13 14 12 12 10 13 13 16 18 18 18 16 16 16 14 13 11 9 11 10 9 9 8 6 4 2 2 3 3 3 4 2 -2 -8 -7 -4
31 35 29 29 27 27 26 27 25 25 24 22 21 19 13 7 8 12 15 10 10 11 15 15 15 15 14 14 15 15 14 13 12 10 10 9 6 5 3 2 3 0 -0 -5 -1 -6 -0 2 0 -2 -8 -15 -6 -7
31 30 26 24 20 19 22 27 21 24 14 16 17 11 7 6 13 14 8 13 13 17 16 15 14 13 13 13 12 11 10 8 7 6 6 4 4 2 3 3 -0 -4 -2 1 2 -2 -3 -2 -4 -10 -12 -12 -14 -20
27 22 17 13 18 13 15 13 21 16 13 12 10 8 6 7 11 7 6 8 14 16 14 14 11 10 9 9 8 9 9 8 6 6 5 4 2 2 3 3 2 1 2 1 -3 -8 -9 -19 -15 -11 -21 -24 -26 -24
16 15 13 7 12 9 2 1 5 9 4 6 5 5 4 10 2 0 0 6 7 2 5 10 9 8 5 5 7 8 9 8 5 4 4 4 2 1 1 1 1 2 1 -12 -18 -20 -21 -24 -24 -22 -19 -25 -13 -21
9 12 12 8 9 9 8 4 2 3 3 4 5 6 4 -1 -6 -3 6 -0 -1 2 -6 -1 2 6 6 6 5 4 5 7 6 3 4 6 1 -6 -10 -11 -10 -5 -4 -14 -18 -21 -19 -21 -22 -19 -22 -19 -21 -25
6 5 16 13 17 13 6 7 9 4 -2 1 2 -7 -9 -15 -15 2 10 7 6 7 10 8 9 7 6 5 5 5 4 3 2 1 2 1 0 -1 -8 -14 -12 -7 -6 -13 -20 -20 -20 -22 -23 -24 -24 -23 -27 -27
10 10 3 -0 3 7 -6 -6 -8 -5 1 9 -0 -11 -14 -12 -1 5 8 9 9 10 8 7 7 6 5 3 1 0 -2 -3 -2 -2 -2 -2 -3 -9 -13 -14 -9 -1 -16 -21 -23 -25 -23 -24 -23 -25 -27 -24 -22 -26
5 7 4 -5 -2 0 1 -4 -0 7 8 2 -11 -8 -1 6 3 5 9 7 5 7 3 0 -5 -8 -5 -6 -10 -9 -11 -11 -12 -16 -18 -19 -21 -12 -15 -19 -21 -22 -24 -18 -7 -8 -17 -21 -22 -24 -23 -21 -21 -26
1 5 -4 -11 -8 -5 -6 -1 -4 -5 4 3 7 7 5 4 7 6 2 0 -2 -7 -10 -10 -17 -17 -17 -16 -17 -13 -17 -21 -15 -9 -13 -18 -15 -18 -23 -23 -22 -25 -27 -25 -23 -20 -7 -18 -16 -25 -26 -27 -31 -31
6 -2 -4 -3 -3 -4 -5 -13 -12 -5 -10 -9 -12 -8 -4 -3 3 4 1 -7 -10 -10 -8 -15 -16 -22 -17 -21 -21 -20 -16 -20 -26 -22 -22 -25 -26 -25 -24 -25 -27 -26 -26 -27 -27 -27 -27 -28 -30 -29 -28 -26 -29 -32
-5 -9 -3 -3 -2 -1 -3 -15 -16 -13 -19 -12 -15 -20 -14 -12 -13 -5 -2 -5 -5 -8 -11 -16 -15 -12 -15 -20 -25 -25 -18 -20 -22 -22 -19 -23 -23 -26 -27 -26 -32 -31 -30 -30 -31 -30 -27 -27 -29 -30 -30 -30 -32 -33
-2 -2 -2 -2 -5 -6 -4 -4 -5 -10 -14 -14 -13 -17 -18 -14 -11 -6 -4 -8 -6 -7 -9 -12 -18 -22 -20 -21 -20 -23 -22 -24 -23 -8 -15 -15 -21 -21 -30 -33 -32 -31 -28 -30 -32 -31 -29 -27 -29 -31 -32 -34 -32 -34

GFSWCAN_sfc_dewp_069.txt.gz
Dewpoint
43 43 44 44 44 44 44 44 44 44 44 44 43 44 45 45 44 43 42 45 40 34 38 38 36 35 38 35 32 33 34 35 34 30 29 27 27 26 24 27 30 27 29 28 29 27 23 32 35 29 30 36 36 36
43 44 44 44 44 45 45 45 44 44 44 43 43 43 44 45 45 45 40 45 44 38 38 42 41 41 39 37 35 35 33 33 34 31 30 29 28 28 26 23 30 25 30 29 31 29 33 36 37 36 38 37 38 37
44 44 45 45 45 45 45 45 46 45 45 44 44 43 44 44 45 45 41 44 42 34 37 39 38 41 42 42 42 36 34 36 35 37 34 31 26 28 27 26 27 29 31 30 29 27 28 28 33 40 40 40 41 41
44 45 45 45 45 45 45 45 45 45 45 45 45 44 44 44 44 42 41 43 40 38 33 35 40 40 43 43 43 43 41 42 42 40 35 31 29 30 28 26 27 27 29 29 27 29 34 31 38 40 39 40 38 37
45 45 45 45 45 45 45 45 45 45 45 45 45 46 45 44 44 43 43 44 44 38 32 33 38 38 41 41 41 43 43 41 40 37 34 34 33 35 35 35 32 34 30 30 27 36 36 36 38 39 37 36 34 32
45 45 45 45 44 45 45 45 45 45 45 45 45 46 46 45 45 41 34 43 44 44 36 30 37 37 39 40 39 40 41 41 41 38 36 37 38 35 32 30 33 34 34 35 35 36 37 38 40 34 34 34 32 30
44 45 45 44 45 45 45 44 44 45 45 45 45 46 46 44 42 38 36 41 44 44 35 29 31 38 40 40 39 39 39 39 39 38 36 36 37 38 33 29 31 31 30 31 33 35 37 37 36 33 31 30 29 27
44 44 44 44 45 45 45 44 44 45 45 44 45 46 46 45 43 40 43 43 42 40 38 31 31 35 38 35 36 41 38 40 39 36 37 36 37 37 32 27 26 26 27 30 30 32 34 36 33 30 29 28 26 25
43 43 44 44 44 45 44 43 45 45 45 45 45 45 43 42 37 41 43 44 45 39 31 32 30 30 38 36 38 38 39 33 39 34 35 37 31 29 24 24 23 24 24 26 27 30 33 33 28 27 27 26 25 24
42 42 42 43 43 43 44 44 44 45 45 45 42 38 35 41 44 43 40 36 36 37 37 30 34 32 36 35 34 33 34 33 30 33 34 28 22 24 23 22 22 24 25 26 25 25 26 28 26 25 25 25 25 23
42 41 41 43 43 43 43 43 43 43 43 42 36 34 42 43 39 36 32 31 33 30 33 33 34 33 37 32 33 34 33 32 27 30 28 22 19 21 22 20 21 22 23 24 25 25 25 25 24 23 22 22 22 20
42 41 40 41 43 43 43 43 42 40 39 39 38 39 35 31 31 30 29 30 29 27 31 33 34 35 36 36 34 33 32 31 25 28 20 15 18 20 20 19 20 21 21 21 22 21 22 21 21 21 20 19 19 18
42 41 39 39 42 43 43 43 43 42 38 34 29 22 22 19 12 13 22 22 23 25 27 31 32 33 34 36 33 33 26 22 26 18 13 16 19 19 20 19 19 20 21 20 20 21 19 19 20 19 18 19 18 17
41 41 39 38 38 37 36 38 36 33 31 25 21 11 11 8 15 16 17 19 24 26 26 29 30 29 29 27 26 21 22 21 13 10 9 16 19 20 21 22 19 19 20 19 20 19 19 18 18 19 19 18 16 15
40 40 38 38 36 36 35 33 31 30 25 20 17 10 13 18 18 19 21 23 24 26 28 31 26 25 23 20 21 19 15 10 10 9 14 18 20 21 21 21 20 19 20 19 19 18 18 17 16 16 18 18 17 16
40 40 38 36 36 32 31 31 31 29 25 18 15 11 15 14 14 16 18 19 24 24 28 27 24 20 18 17 13 10 10 6 9 14 18 19 18 18 18 19 19 21 20 20 20 19 18 17 16 16 16 16 15 15
39 36 39 36 33 32 32 29 25 19 18 16 14 15 12 14 14 16 17 19 23 24 20 20 14 14 20 12 8 11 8 12 14 14 16 17 16 17 18 18 18 18 18 19 19 18 18 18 17 15 13 15 15 14
36 37 39 40 37 32 31 28 22 16 14 16 11 14 15 15 15 16 19 21 22 20 18 16 18 11 9 8 8 12 13 15 15 15 15 15 16 16 17 16 16 17 16 16 16 16 16 15 13 12 13 12 9 9
38 38 39 37 34 31 26 24 21 13 15 18 18 16 16 15 17 18 20 21 20 19 17 14 10 8 9 12 12 13 14 14 12 13 13 15 15 15 15 15 14 13 13 14 13 11 11 11 10 9 8 8 7 8
37 39 38 38 35 30 25 25 24 18 15 18 19 16 16 15 17 17 16 17 14 13 11 9 9 11 13 15 15 15 16 15 13 11 10 12 13 13 12 12 12 13 11 10 9 9 7 6 5 5 5 5 6 4
33 35 34 33 31 29 26 24 22 20 20 17 16 16 14 15 13 14 13 13 12 11 9 13 13 15 17 17 17 17 16 15 14 12 9 8 11 10 9 9 9 6 5 5 5 4 4 4 3 3 3 2 3 4
31 33 27 28 27 26 25 26 23 24 22 20 19 15 12 11 12 13 13 9 9 11 14 14 14 14 13 13 14 14 14 12 11 10 10 9 6 5 4 4 4 3 3 3 3 3 3 2 2 2 2 1 1 2
30 29 25 24 19 19 23 28 20 22 15 16 16 10 9 8 13 13 10 11 12 16 15 13 13 13 12 12 11 10 9 7 6 6 5 5 4 4 4 4 3 2 2 2 3 3 2 -0 -3 -1 -1 -1 -1 -1
26 20 14 13 18 13 14 12 19 15 14 13 12 9 7 8 10 8 7 9 13 15 13 13 10 9 8 8 7 8 7 6 6 5 5 4 3 3 4 3 3 3 3 0 -0 -0 -2 -3 -4 -2 -4 -4 -5 -3
15 13 12 5 12 9 4 2 6 10 6 7 7 6 6 10 4 3 3 8 10 9 8 10 9 8 6 7 7 7 9 6 5 4 4 4 3 3 2 2 2 2 2 0 -2 -3 -5 -8 -6 -4 -4 -4 -3 -5
9 11 11 7 7 9 7 1 0 3 4 2 3 5 4 1 -2 -0 6 7 7 7 3 4 6 6 6 6 6 5 6 7 5 3 4 4 1 1 -1 -1 -1 0 -1 -2 -3 -2 -4 -7 -6 -6 -5 -8 -16 -7
4 2 13 10 14 11 4 5 8 4 -1 1 1 -5 -5 -9 -11 3 9 9 9 8 9 9 9 7 5 4 4 4 3 3 3 2 2 1 0 -0 -1 -2 -3 0 -1 -3 -3 -2 -2 -5 -5 -7 -6 -6 -7 -8
8 7 -2 -3 1 4 -7 -4 -4 -4 3 7 -1 -11 -12 -10 -0 6 8 9 9 8 6 5 5 6 4 2 2 1 0 0 1 1 1 1 -1 -2 -3 -2 -2 -2 -4 -6 -5 -7 -5 -5 -5 -6 -8 -6 -6 -10
2 4 3 -7 -4 -2 -1 -5 -1 5 6 0 -9 -5 1 5 4 7 8 8 8 6 3 1 -2 -2 -2 -3 -5 -3 -1 -1 -1 -7 -7 -5 -5 -2 -5 -6 -5 -7 -7 -3 -7 -3 -5 -6 -6 -6 -8 -7 -8 -12
-1 4 -5 -13 -10 -5 -7 -1 -2 -2 2 4 7 6 4 4 7 8 7 7 5 1 -5 -4 -7 -3 -3 -2 -4 -4 -8 -9 -5 -2 -3 -4 -3 -6 -7 -5 -5 -8 -10 -6 -5 -4 -6 -6 -5 -9 -9 -9 -9 -9
3 -3 -5 -3 -4 -0 -3 -10 -11 -6 -8 -6 -7 -5 -3 -0 5 4 -1 -7 -6 -8 -5 -6 -9 -13 -8 -9 -7 -8 -5 -8 -16 -13 -11 -11 -11 -9 -9 -10 -12 -12 -11 -9 -9 -9 -9 -10 -11 -11 -10 -10 -12 -16
-7 -12 -6 -7 -4 -2 -4 -12 -13 -10 -13 -6 -10 -15 -9 -7 -8 0 -1 -2 -4 -4 -8 -7 -5 0 -8 -7 -12 -12 -16 -9 -10 -11 -10 -9 -8 -11 -12 -13 -16 -14 -13 -13 -13 -13 -13 -12 -11 -12 -13 -14 -15 -17
-6 -7 -4 -3 -5 -6 -5 -6 -7 -9 -12 -12 -12 -18 -17 -10 -8 -2 -3 -5 -0 0 -2 -5 -7 -11 -11 -12 -9 -11 -15 -11 -14 -4 -12 -12 -17 -13 -14 -15 -15 -14 -13 -12 -13 -14 -14 -15 -14 -15 -16 -18 -18 -18

GFSWCAN_sfc_dewp_072.txt.gz
Dewpoint
42 43 43 43 44 44 44 45 45 45 45 45 45 44 45 45 45 45 41 43 38 34 33 32 35 31 31 34 29 36 35 35 34 32 29 25 26 24 21 23 28 28 26 28 29 25 24 29 32 29 35 34 33 34
43 43 43 44 44 45 45 45 45 45 45 44 44 45 44 44 45 45 40 44 42 39 37 38 36 36 36 35 36 38 33 35 34 32 30 29 28 30 22 20 25 27 28 27 26 26 32 35 34 33 39 38 38 40
43 43 44 44 44 45 45 45 45 45 45 45 44 44 44 44 45 45 41 43 42 37 36 36 37 39 42 42 43 38 37 38 37 36 36 32 29 26 27 23 23 24 25 28 27 25 26 26 31 38 39 39 39 38
43 43 44 44 45 45 45 45 45 45 45 45 45 45 44 44 45 45 42 43 40 38 34 36 36 35 40 42 42 42 39 39 39 39 36 35 30 29 27 24 24 22 24 25 25 26 26 26 33 38 39 39 38 36
43 43 45 45 45 45 45 45 45 45 45 45 45 45 44 44 45 45 44 44 43 37 33 33 38 37 41 42 42 41 41 40 40 38 37 35 32 33 33 33 27 25 23 27 24 34 35 34 36 39 38 38 36 34
44 44 44 45 45 45 45 45 45 45 45 45 45 45 45 45 43 41 34 42 43 44 37 32 36 37 39 42 41 41 41 41 40 38 37 38 38 35 33 27 26 35 34 35 34 35 36 37 37 37 36 36 34 32
44 44 45 45 44 45 45 45 45 45 45 45 45 45 45 45 42 38 38 40 45 44 38 33 32 37 38 39 40 41 41 39 39 37 37 38 36 36 36 29 33 31 30 30 32 34 34 36 36 33 32 33 32 29
43 44 45 44 44 45 45 44 44 45 45 45 45 45 45 43 42 41 43 44 44 41 37 32 32 35 37 37 37 40 38 38 37 37 38 37 37 38 34 29 27 26 27 29 29 29 30 34 31 28 29 28 27 25
42 42 44 44 45 44 44 43 45 45 45 46 46 45 42 40 37 41 43 43 46 39 33 33 31 30 37 34 36 37 38 34 38 34 36 38 36 31 24 25 24 24 24 25 26 28 29 29 27 27 27 25 24 23
42 42 44 43 44 44 45 45 45 45 45 43 41 37 34 40 44 43 41 34 36 38 38 34 36 34 34 34 35 35 37 35 33 36 35 32 25 24 22 22 23 25 25 25 26 26 26 26 26 25 25 25 24 22
41 41 42 43 43 43 45 45 45 43 43 42 37 36 42 44 40 37 34 33 33 32 33 35 34 34 39 33 33 36 34 34 29 31 33 28 23 23 22 20 21 22 22 23 23 23 24 24 24 23 22 22 21 20
40 41 42 42 43 44 43 42 42 40 40 39 38 38 37 33 35 33 31 33 31 29 33 34 35 37 36 37 34 35 33 33 28 30 28 22 20 19 19 19 20 21 21 21 21 21 21 21 22 21 21 19 19 19
40 40 41 41 43 44 43 41 41 40 38 32 28 23 25 24 22 24 24 27 28 30 32 32 33 36 37 34 33 34 29 25 30 26 20 19 20 19 19 19 19 20 20 20 20 20 20 20 21 19 18 19 19 18
40 40 39 39 39 40 38 35 35 32 28 25 24 17 20 18 20 21 23 25 28 30 30 34 33 33 33 31 31 27 26 26 21 18 14 19 20 21 22 22 20 20 21 20 20 19 19 19 19 19 18 18 17 16
38 38 38 36 37 35 34 33 30 26 23 21 19 16 18 22 23 23 25 27 28 29 32 33 31 30 27 25 25 24 18 14 14 15 17 20 21 22 22 22 21 20 20 20 20 19 18 18 17 17 18 18 17 17
40 36 34 37 34 32 30 29 27 25 21 18 18 19 22 24 22 23 24 25 27 29 32 31 27 24 21 20 16 14 12 10 13 17 20 20 20 20 20 21 21 22 21 20 20 20 19 18 17 17 17 16 16 15
39 35 37 33 31 30 30 25 22 18 18 17 18 21 21 21 20 21 23 23 26 29 27 24 20 18 20 15 10 13 12 15 16 17 19 20 20 20 20 20 20 20 21 20 20 19 19 19 19 16 15 16 16 15
36 37 38 41 38 29 24 22 19 17 16 19 18 19 21 21 21 22 23 24 25 24 22 19 18 15 13 9 12 15 16 17 18 18 18 19 19 19 20 19 19 19 19 18 18 18 18 18 16 15 15 12 10 9
38 38 39 37 34 27 21 20 18 16 18 20 20 20 20 20 20 21 23 21 19 18 19 18 14 12 13 16 16 17 18 17 16 16 16 18 18 18 18 18 18 17 17 17 16 14 14 14 12 11 10 9 10 10
38 39 38 37 35 26 20 20 21 17 17 18 18 16 16 16 18 21 20 17 15 16 14 13 13 15 17 18 19 19 19 19 17 15 15 16 17 17 17 17 16 16 15 14 13 11 10 9 8 8 9 9 10 9
35 35 34 32 31 27 23 21 19 18 18 17 16 14 14 17 18 18 17 16 14 13 12 15 17 18 19 19 19 19 19 18 17 17 15 13 15 14 13 14 13 12 11 11 10 9 9 8 6 7 10 11 10 10
33 32 33 32 29 26 24 24 20 21 18 18 17 15 17 17 16 16 12 13 12 14 16 16 16 16 15 16 16 16 17 16 15 14 13 12 11 9 9 10 10 10 9 10 9 10 8 6 7 8 8 8 6 7
32 31 29 27 27 26 25 30 23 20 18 18 16 12 13 15 13 12 13 10 14 17 16 14 14 14 13 13 11 11 10 9 9 10 10 9 9 10 9 8 9 9 7 6 7 8 7 4 5 8 7 7 7 6
27 24 22 22 24 21 23 21 19 18 19 17 14 10 11 13 13 12 9 11 14 15 14 14 13 12 11 10 9 9 9 8 8 8 9 8 7 7 6 6 7 7 5 4 6 7 7 8 5 7 7 6 5 6
20 17 21 18 20 18 17 17 16 16 15 15 13 13 13 13 11 9 8 11 13 15 14 13 11 10 10 10 9 9 9 7 7 6 7 7 8 6 5 4 5 5 7 9 7 7 6 6 6 6 5 6 1 -1
14 15 17 17 18 17 16 14 14 15 15 12 11 11 13 11 7 7 8 13 15 15 16 16 15 12 10 9 9 9 8 9 8 7 6 6 6 9 8 7 6 5 7 9 8 6 4 4 4 -1 3 -2 -4 -1
13 13 14 11 15 15 16 16 15 15 12 11 10 7 7 4 4 7 12 14 13 15 13 14 12 10 9 8 7 8 8 8 8 6 6 4 4 4 7 7 -0 5 6 6 7 6 5 4 3 2 2 4 3 2
11 11 8 8 8 9 8 9 9 8 10 9 7 3 2 2 6 12 12 14 15 13 11 11 11 9 8 7 7 7 7 6 6 6 6 6 5 6 5 6 5 4 6 5 6 5 5 4 4 3 1 2 2 3
9 9 6 -1 4 5 5 6 7 7 7 8 6 4 5 7 10 12 13 13 13 12 10 9 8 9 8 7 8 9 9 10 4 -1 -5 5 7 6 6 6 6 6 7 7 -3 2 1 4 2 3 -3 2 3 2
8 10 4 1 -0 2 5 7 7 8 7 9 8 6 6 9 11 14 14 14 13 13 11 11 10 12 10 10 8 6 8 8 7 7 5 4 5 6 6 6 6 5 6 6 4 1 -4 2 -1 2 0 1 2 1
10 10 6 5 4 7 8 8 9 10 9 9 11 9 7 10 12 10 9 10 10 9 10 9 6 8 8 8 10 7 8 6 -1 -3 1 4 5 5 5 3 4 4 4 3 2 1 0 0 1 -1 -1 -2 -4 -5
9 5 4 3 5 9 9 11 11 9 10 10 9 9 8 10 7 10 9 11 11 11 6 9 11 11 8 8 6 5 -4 4 3 1 1 4 5 1 1 0 -1 1 0 -1 -1 -1 -5 -5 -3 -4 -4 -6 -7 -8
8 9 9 8 7 7 9 9 7 7 8 8 7 5 5 7 4 8 6 7 11 12 12 11 9 7 4 3 4 3 2 2 -0 -0 -3 -4 -6 -3 1 1 1 -0 -3 -1 -1 -2 -5 -5 -5 -6 -7 -8 -9 -9

GFSWCAN_sfc_dewp_075.txt.gz
Dewpoint
40 42 42 43 43 43 44 44 45 45 45 44 44 44 44 43 43 42 39 42 39 37 30 29 30 32 32 29 31 37 37 37 35 33 30 27 27 26 20 23 27 28 28 28 28 28 23 24 25 27 36 36 35 35
41 42 42 43 43 44 44 44 45 45 46 45 45 44 44 44 44 44 39 43 42 37 31 34 32 32 33 37 38 36 34 35 34 33 30 30 29 30 23 21 27 27 27 26 24 24 29 32 34 36 37 36 36 36
41 42 43 43 43 44 44 44 45 46 45 45 45 45 45 44 45 44 42 42 41 37 36 34 33 36 37 35 41 37 39 37 38 38 38 37 32 27 27 23 24 26 33 33 34 31 35 31 28 35 37 37 37 36
42 42 42 43 43 44 45 45 45 45 46 45 45 45 44 45 44 45 42 43 41 38 32 31 32 32 36 37 38 39 37 40 40 41 38 36 33 28 27 25 25 23 25 24 23 24 23 24 33 36 37 37 37 36
42 42 43 43 44 45 45 45 45 45 46 45 46 46 45 45 44 44 43 44 43 32 33 29 31 35 32 34 37 41 41 39 40 37 36 35 32 33 32 32 29 24 23 25 25 36 36 33 35 37 36 36 36 35
43 44 44 44 44 45 45 45 45 45 46 46 45 46 45 44 44 43 34 43 44 44 37 33 33 31 35 34 36 37 41 41 40 37 37 37 35 36 34 28 26 29 34 34 33 34 35 35 36 35 34 34 34 34
44 44 44 44 45 44 44 45 45 45 45 45 45 46 45 44 43 38 37 39 44 45 37 31 33 35 35 38 40 40 41 41 39 37 37 38 36 35 37 30 35 31 30 31 32 32 33 34 34 33 32 31 32 30
43 43 44 44 45 45 45 45 45 45 45 45 45 45 44 43 42 40 43 44 43 40 40 34 34 34 37 37 37 41 36 38 38 37 38 38 36 38 34 30 27 26 28 30 28 29 31 32 30 28 28 28 27 25
42 42 44 44 44 44 43 44 44 45 45 45 45 44 42 40 38 40 44 44 46 41 35 36 31 30 37 35 37 38 38 35 38 35 35 35 35 31 26 27 25 25 25 25 26 28 28 29 28 27 27 27 25 24
41 43 43 44 44 44 45 45 45 45 45 43 41 37 34 39 44 42 39 36 37 39 38 34 38 34 34 35 35 37 37 35 32 34 37 35 25 25 23 22 24 25 25 25 26 26 26 26 26 25 25 24 24 22
41 42 43 44 45 45 44 43 43 43 42 41 36 36 42 44 40 37 34 35 35 34 34 35 34 34 39 33 34 36 34 35 31 33 34 32 25 23 21 21 21 22 23 23 24 23 23 25 25 24 22 21 21 20
41 44 44 44 43 44 43 42 43 43 41 39 39 40 38 36 36 33 32 34 30 30 34 33 35 37 38 39 35 36 34 34 29 34 33 26 21 20 21 20 21 21 22 21 21 21 22 22 23 22 21 21 20 20
41 42 43 44 41 40 41 41 41 41 39 36 31 29 30 29 28 30 26 27 30 33 34 34 33 36 36 37 35 35 32 29 33 30 25 22 22 21 22 20 19 20 21 21 21 21 21 21 22 21 20 21 20 19
39 39 39 40 39 37 36 35 36 35 30 28 29 22 27 25 24 25 27 29 30 33 33 36 35 35 36 32 32 29 29 27 24 23 19 22 22 22 22 23 20 21 21 21 20 20 20 19 19 20 20 20 19 17
38 38 36 35 35 34 35 35 33 28 25 24 23 21 21 24 25 27 30 31 31 34 34 35 35 32 31 29 28 27 23 19 19 19 21 21 21 21 22 22 22 21 21 21 21 20 20 20 19 18 19 19 18 17
37 36 35 36 34 32 33 31 28 26 23 20 22 23 26 28 27 28 29 30 31 32 35 35 31 29 24 25 21 19 17 17 18 20 22 21 21 22 22 23 23 23 23 22 21 21 20 19 17 17 18 17 17 16
40 32 33 32 30 31 32 27 24 20 20 20 21 24 26 25 25 26 28 28 31 33 29 29 25 21 23 20 15 17 17 18 20 21 22 23 22 22 22 22 22 23 22 22 21 21 20 21 20 18 16 18 17 16
37 36 35 34 34 30 24 23 22 20 20 24 21 24 24 26 26 26 27 28 30 28 26 23 22 19 18 13 16 17 18 20 20 20 20 21 21 22 23 22 21 21 21 21 21 21 21 20 18 16 16 13 10 9
38 37 39 41 34 27 23 22 22 19 21 23 24 25 25 25 25 25 25 24 22 23 23 20 17 16 17 19 18 19 20 20 19 19 19 20 20 20 20 20 20 20 19 19 18 16 16 17 15 12 11 10 10 10
39 38 37 36 34 25 20 22 24 20 20 21 21 20 19 20 23 25 24 21 18 18 16 15 17 20 19 21 22 21 21 21 19 17 18 19 19 20 21 20 19 19 17 18 17 16 12 10 9 10 10 10 12 10
35 33 34 33 28 25 23 21 20 20 20 19 18 18 20 21 21 22 20 17 18 16 16 19 19 20 23 24 23 22 22 22 21 22 18 16 17 17 16 17 18 17 17 16 13 11 11 10 8 10 14 14 12 11
32 31 32 31 26 23 23 23 21 21 21 20 19 19 21 21 20 18 16 16 14 18 20 18 17 17 16 17 17 17 18 18 18 17 16 16 15 14 14 14 14 14 13 14 12 13 11 8 10 10 12 12 9 10
32 33 32 30 30 26 25 30 24 21 21 19 18 16 18 19 16 15 15 12 16 18 17 15 15 15 14 14 13 12 12 12 13 14 14 13 12 13 12 11 12 13 11 8 9 10 10 5 8 11 10 11 10 9
30 29 28 28 26 24 27 22 19 19 20 19 16 14 15 17 16 16 13 14 16 15 14 15 14 14 13 12 11 10 10 9 10 11 11 10 10 9 8 8 9 9 7 6 8 10 10 10 7 9 9 10 9 9
22 20 25 21 25 22 20 20 19 18 17 17 15 16 16 18 16 13 12 14 16 17 16 15 14 14 13 13 11 10 10 9 9 8 9 10 10 9 7 5 6 6 9 13 12 11 10 10 10 9 7 8 3 1
16 18 20 21 21 20 19 18 18 18 17 15 15 15 20 17 12 11 12 17 18 17 19 19 18 14 12 11 10 10 10 11 10 8 7 7 8 11 11 10 9 9 8 11 11 10 7 7 7 -0 5 2 -1 2
16 17 16 15 18 18 21 20 19 19 16 13 15 13 14 9 9 11 14 16 16 17 17 17 15 14 12 11 10 10 10 10 10 7 7 5 6 6 10 10 3 8 8 8 9 8 8 6 5 4 4 6 6 4
14 14 12 15 14 15 14 15 14 13 14 12 13 8 7 8 10 17 16 18 18 16 15 15 13 12 11 11 11 12 11 10 10 10 9 9 8 9 7 8 7 5 7 7 8 7 7 7 6 5 4 4 5 5
14 14 10 5 9 10 10 12 12 10 9 13 12 9 8 9 16 15 16 16 17 16 14 14 14 15 13 12 13 13 14 14 5 -1 -2 7 10 10 8 9 9 8 9 9 1 3 4 4 4 5 3 5 5 5
12 15 9 6 6 7 9 12 12 13 11 12 10 9 9 12 16 18 17 17 17 17 16 16 16 16 14 13 11 10 13 12 11 9 8 7 8 9 9 8 8 8 8 8 7 4 -0 4 2 5 4 4 5 5
14 15 11 9 8 11 14 14 15 15 16 15 16 14 11 12 14 15 15 16 16 16 15 13 13 14 13 12 13 10 10 10 5 4 6 8 9 9 8 6 7 7 7 5 4 3 3 2 3 2 2 1 -0 -1
15 10 9 6 9 12 16 16 15 15 15 14 13 14 14 14 11 13 14 16 15 15 12 14 14 14 13 12 10 9 5 7 6 5 -1 7 7 4 5 4 4 5 4 3 3 2 0 -1 1 0 -0 -2 -2 -4
14 14 12 12 11 12 13 15 11 12 14 12 12 12 12 13 9 12 13 15 17 16 14 15 14 12 8 7 8 7 5 6 2 1 -0 -1 -2 1 5 6 5 4 1 2 2 1 -1 -2 -1 -2 -3 -4 -4 -5

GFSWCAN_sfc_dewp_078.txt.gz
Dewpoint
36 38 40 41 42 42 43 44 44 44 44 45 45 45 44 45 45 43 39 42 38 35 30 29 28 28 30 31 31 35 36 37 36 31 29 26 28 26 24 24 28 25 28 28 28 25 23 26 27 30 38 39 37 36
38 40 41 41 42 42 43 44 44 44 44 45 46 45 45 45 44 43 39 41 42 37 30 34 33 32 30 33 37 38 35 35 33 30 29 31 31 34 25 22 30 30 27 27 25 25 29 34 38 37 37 37 37 37
39 41 41 41 42 43 43 43 44 45 45 45 46 45 45 45 43 42 40 42 41 37 36 34 31 34 34 33 41 35 37 35 37 41 38 37 32 32 28 25 25 30 34 34 33 28 31 41 39 37 35 36 35 35
41 41 41 42 42 43 43 44 44 45 45 45 45 46 45 45 44 43 40 41 40 37 30 29 33 33 33 34 37 40 39 37 39 40 36 35 33 35 32 28 28 28 35 33 35 37 36 39 40 36 35 36 35 34
41 42 43 43 43 44 44 44 45 45 45 45 46 46 45 45 45 44 43 43 43 35 33 30 31 29 32 34 32 35 38 39 39 37 35 33 32 34 33 33 28 31 33 34 35 35 38 37 35 35 34 34 34 34
42 43 44 45 45 45 44 44 45 45 45 45 46 46 45 45 44 43 33 42 43 41 36 34 38 29 29 33 33 35 40 40 40 37 35 38 36 35 33 29 35 34 32 33 32 31 34 36 33 32 32 32 32 31
43 44 43 43 44 44 44 45 45 45 45 45 46 45 46 45 44 37 37 40 43 43 37 32 31 33 31 35 37 36 39 41 39 36 36 37 35 37 37 29 35 33 32 31 29 30 33 32 31 30 30 30 30 27
43 42 42 44 44 45 44 45 45 45 45 46 46 45 46 45 43 39 44 44 43 40 38 32 34 34 35 37 36 41 38 38 38 37 38 35 34 36 33 30 27 26 28 28 27 29 31 30 29 28 28 27 27 25
43 42 43 43 44 45 44 45 46 46 46 45 46 45 42 40 37 40 44 44 45 40 33 35 32 31 38 37 38 39 37 33 38 35 35 34 33 28 27 27 25 25 25 25 26 28 28 28 28 26 25 25 24 23
42 42 43 44 44 44 44 44 45 45 45 43 41 37 33 40 45 44 40 34 37 38 39 34 37 34 34 37 37 36 37 34 31 34 37 33 26 25 23 23 23 25 25 25 25 25 25 26 26 24 24 23 23 22
42 44 45 45 45 45 45 45 44 43 42 40 37 36 42 44 40 36 33 33 34 33 34 35 36 34 38 33 34 37 34 34 29 33 32 30 24 24 23 21 21 22 23 23 25 25 25 26 26 24 22 22 21 21
44 43 43 44 44 44 43 43 43 44 43 40 39 41 41 37 35 33 32 34 32 28 34 34 36 37 38 40 35 34 32 34 28 35 33 23 23 22 22 20 22 24 23 22 23 24 24 24 24 22 21 20 21 20
43 44 40 41 43 44 44 44 44 42 42 40 35 35 35 32 30 29 26 29 29 34 35 35 34 35 36 37 35 35 30 29 33 31 23 21 22 20 21 20 19 19 21 21 21 21 20 20 21 19 19 20 20 19
41 41 39 39 38 38 36 36 36 36 34 31 30 23 28 24 25 25 27 29 31 33 33 37 34 35 35 33 33 30 29 29 26 24 18 20 21 22 23 22 20 20 21 20 20 20 20 19 19 20 19 19 18 17
38 37 36 35 36 36 36 35 34 33 27 25 25 22 21 26 27 30 32 32 32 34 34 35 35 33 32 30 30 27 24 22 20 18 20 21 22 23 23 22 22 21 21 21 21 19 19 19 18 18 19 18 17 17
39 38 34 34 33 33 36 33 29 28 26 22 24 25 29 28 28 29 31 30 33 34 36 37 32 27 24 25 21 21 21 18 18 21 22 21 21 22 22 22 23 23 21 21 21 20 19 18 17 16 17 17 17 17
40 31 33 34 34 33 34 28 26 26 22 21 23 27 29 27 26 28 30 30 34 34 30 31 24 21 23 20 17 18 17 19 20 20 21 22 21 21 22 22 23 22 21 21 20 20 20 20 20 18 16 17 16 14
38 31 34 33 35 31 26 25 24 21 21 25 23 25 25 29 27 27 28 31 31 28 26 23 23 20 19 18 16 18 20 21 21 21 20 21 21 23 23 21 22 22 21 21 20 20 20 19 17 16 16 13 10 10
38 36 36 37 38 28 24 24 23 19 23 25 26 27 26 26 26 26 28 27 24 24 24 21 18 17 17 20 19 20 21 20 19 20 20 21 21 21 21 21 21 21 21 21 19 17 17 17 16 14 12 11 10 11
38 37 36 34 33 25 22 23 25 22 22 23 24 21 22 24 26 27 26 23 19 19 17 17 19 22 22 23 23 23 22 21 19 18 18 20 20 20 22 21 19 19 18 19 18 17 13 11 9 10 11 12 14 12
33 31 35 33 28 26 24 23 21 22 22 21 22 21 23 23 22 22 20 18 20 18 17 20 21 22 25 26 25 23 23 25 23 23 18 17 20 19 18 19 20 21 19 18 15 12 13 11 9 12 15 14 14 11
32 33 32 31 27 25 24 24 22 23 23 21 22 22 23 22 20 19 17 16 16 21 21 19 19 17 17 18 18 18 19 19 19 18 18 18 17 17 16 17 16 15 14 14 13 14 12 10 11 12 13 12 13 11
32 32 32 30 29 25 25 29 25 24 22 19 20 19 20 19 17 17 16 13 17 19 17 15 15 15 15 15 14 14 14 14 14 15 15 14 13 14 13 12 13 13 11 9 9 12 10 5 8 11 10 12 11 9
32 31 31 29 25 23 27 23 21 20 21 20 17 16 17 18 18 17 14 16 16 16 15 16 15 15 14 13 11 10 10 11 11 12 12 11 10 9 8 8 9 10 8 7 9 11 10 11 5 9 9 9 9 10
23 21 26 23 27 23 20 21 19 19 18 18 16 16 17 19 17 14 13 15 18 19 17 16 16 17 15 14 12 10 11 10 10 8 9 10 10 9 7 5 6 6 9 13 11 11 10 10 9 9 7 8 6 5
17 19 22 22 23 21 19 19 19 19 18 16 16 17 21 18 14 13 15 19 20 19 21 21 18 15 13 12 11 11 10 11 10 9 8 8 8 11 11 9 9 11 10 12 11 9 8 6 7 4 5 3 -4 1
17 17 17 17 19 20 22 22 20 20 16 15 16 17 16 10 10 13 20 19 19 21 19 18 16 16 13 12 11 11 11 11 11 8 7 7 8 8 10 11 9 9 8 8 9 9 10 7 5 5 6 6 7 6
15 16 14 18 17 18 17 17 16 15 14 13 14 11 11 11 12 18 18 21 19 17 16 15 15 14 13 13 13 12 12 12 12 11 11 10 9 9 9 8 6 8 7 6 8 8 7 7 7 6 5 4 6 7
16 14 11 9 12 12 12 14 13 11 12 15 14 10 9 13 18 17 17 18 18 17 15 14 15 16 14 14 15 14 15 14 11 5 4 7 12 9 9 8 8 8 9 9 3 4 5 6 6 6 5 5 6 6
15 16 11 9 8 7 12 15 14 15 13 13 11 12 13 16 19 19 19 20 19 18 18 17 17 17 15 14 11 11 13 12 11 10 9 9 9 9 9 8 8 8 7 8 7 6 5 5 8 6 5 6 7 6
16 17 12 10 9 12 15 18 20 21 19 16 17 12 10 12 14 17 18 18 17 17 16 15 15 15 13 13 13 11 10 9 6 6 8 9 8 9 8 6 7 7 7 5 4 4 3 2 4 4 3 3 2 0
17 13 10 7 10 16 19 20 18 17 16 15 14 16 16 15 11 13 16 19 18 17 15 16 14 13 12 11 10 9 7 8 7 6 6 7 8 5 5 4 5 5 4 3 4 3 2 1 1 1 1 0 -0 -2
16 15 14 12 11 12 15 17 13 13 14 13 14 15 15 15 10 12 14 16 19 17 16 14 14 12 10 9 8 8 6 4 1 4 2 1 -2 1 4 6 5 4 2 3 3 3 1 0 -0 -1 -2 -2 -2 -2

GFSWCAN_sfc_dewp_081.txt.gz
Dewpoint
40 38 38 39 39 40 41 42 43 43 44 44 44 44 45 45 45 44 39 40 36 34 31 31 31 30 31 31 30 33 31 34 34 24 26 24 23 26 27 30 32 26 25 25 26 23 21 31 33 31 39 38 36 36
37 37 38 39 40 41 42 42 42 43 44 44 44 45 45 45 45 45 38 39 42 35 31 35 34 34 33 32 33 36 33 35 36 31 29 29 26 29 28 27 34 31 29 28 26 26 38 42 41 42 41 41 38 37
36 37 39 39 40 41 42 42 42 43 44 44 45 45 45 46 45 44 40 40 40 36 34 32 28 28 34 36 38 32 36 38 38 37 34 34 30 35 28 27 32 36 38 35 32 38 39 41 39 38 37 35 35 35
35 38 39 40 41 42 43 43 43 43 44 45 45 46 46 45 44 43 39 41 38 35 23 26 31 33 33 31 36 37 36 40 39 37 34 33 32 36 33 34 32 35 38 35 36 38 40 39 39 36 35 35 34 33
37 39 40 41 42 44 45 44 44 44 45 46 45 45 46 46 45 43 42 41 40 30 29 32 35 33 33 34 33 39 38 37 35 35 34 33 35 35 35 35 35 34 35 36 33 37 37 37 36 36 33 32 31 31
38 40 41 43 44 44 45 45 45 45 45 46 45 45 46 46 44 42 33 41 41 38 34 28 37 36 32 34 34 33 37 37 37 35 34 36 38 37 30 32 35 34 32 30 33 37 35 33 31 31 31 29 27 26
40 41 43 44 43 43 44 44 45 45 45 45 45 46 46 45 44 37 35 39 43 42 34 31 29 36 34 35 35 34 37 37 39 36 35 34 35 37 33 30 27 28 32 27 28 36 34 29 28 28 28 26 26 23
41 42 43 43 43 44 44 44 44 45 45 45 45 45 46 45 43 39 43 44 42 39 37 30 29 35 36 33 32 37 35 38 37 36 37 34 35 35 28 27 25 25 26 26 27 30 30 28 26 26 26 25 23 22
42 43 43 42 42 44 44 44 44 45 45 45 45 46 41 39 37 40 44 43 44 39 32 30 27 30 37 36 36 36 38 32 38 33 34 35 32 22 26 26 24 24 24 24 26 26 26 27 25 24 24 23 22 21
43 42 43 44 44 44 44 45 45 45 45 45 41 36 32 39 44 43 38 36 36 38 37 30 35 32 35 34 31 34 35 32 30 32 35 30 24 25 23 22 23 24 25 26 24 22 23 26 23 23 23 23 21 20
43 44 44 44 44 45 45 45 45 44 43 40 36 35 41 43 39 35 30 31 32 29 31 33 34 33 39 32 32 33 32 32 26 28 29 26 21 24 22 21 23 23 23 25 26 25 26 25 23 21 20 20 19 18
42 44 44 45 45 45 44 44 43 43 41 40 39 41 39 36 33 31 30 31 30 27 33 30 35 37 36 38 31 32 28 30 25 34 30 18 21 22 21 20 21 25 23 22 21 21 21 21 20 19 18 18 18 18
41 43 44 44 44 44 44 44 43 42 43 41 37 35 34 31 28 27 22 24 28 32 34 34 32 34 35 36 32 32 27 27 32 28 16 18 21 21 21 20 19 20 20 19 19 19 19 19 19 17 16 16 16 15
41 41 40 42 41 41 42 44 43 39 35 32 28 21 25 24 22 22 26 28 30 32 33 33 33 31 32 30 29 28 27 28 25 18 11 17 18 21 22 21 19 18 16 16 15 15 16 16 16 16 16 16 15 14
38 37 37 37 38 38 36 37 36 34 30 26 25 20 19 23 27 30 31 30 31 33 33 33 29 30 26 23 24 22 20 18 17 9 12 16 17 19 17 19 16 17 14 16 14 15 14 14 15 15 16 16 16 15
38 37 34 35 35 35 36 34 33 32 27 24 24 24 27 24 24 26 29 29 32 32 33 32 29 24 24 24 22 16 19 9 11 15 17 15 17 18 18 19 18 18 18 18 18 17 17 15 15 15 15 15 14 12
40 34 34 36 36 35 35 31 30 26 24 23 21 24 26 23 25 25 28 28 33 32 25 27 22 22 26 21 13 13 7 12 16 18 20 18 15 15 18 19 19 20 20 20 19 19 18 18 17 16 14 15 14 13
33 32 35 37 38 33 30 30 27 24 22 25 20 22 23 25 25 25 25 26 28 26 25 22 25 14 10 12 9 14 17 20 20 19 20 21 21 21 19 18 17 19 18 17 17 17 18 17 16 16 16 14 11 11
33 34 36 37 38 31 26 26 25 21 24 25 25 24 23 23 25 25 26 27 25 24 25 21 13 12 12 16 17 18 17 15 16 16 17 16 19 16 15 18 18 18 19 19 19 17 17 17 17 17 18 15 13 14
40 39 39 39 35 28 24 26 29 24 23 24 25 23 24 25 26 23 22 22 20 21 16 15 15 20 20 22 22 20 17 19 18 16 17 18 20 19 20 19 18 18 18 19 19 18 15 13 12 12 14 14 12 10
34 33 35 35 31 30 27 25 24 24 25 24 25 23 23 23 21 20 19 20 18 18 17 19 18 19 20 22 21 19 21 21 22 18 16 17 18 18 19 19 21 22 18 15 12 12 11 9 12 14 6 -2 -2 0
34 35 34 34 28 27 25 26 24 24 24 25 26 25 23 20 19 19 20 17 17 20 19 17 17 17 17 16 17 19 18 19 18 18 17 18 17 17 15 16 17 10 9 9 13 9 7 8 8 9 2 4 5 1
35 35 33 31 24 22 23 29 25 25 20 21 24 20 21 18 19 19 12 15 18 19 17 16 16 16 16 17 16 17 17 16 16 16 14 12 12 10 10 11 11 8 8 8 13 9 3 1 3 -1 1 3 -1 -7
33 29 25 24 23 21 26 21 24 23 24 22 18 17 17 17 19 15 12 15 17 17 16 17 16 16 16 14 12 13 15 14 13 13 14 13 10 8 10 10 9 8 9 10 10 7 6 -5 -4 7 -6 -6 -7 -1
18 16 21 15 22 16 13 15 17 20 13 16 14 13 13 22 13 11 9 15 16 17 16 19 21 20 14 11 12 12 14 15 12 9 10 12 10 10 9 9 8 8 10 10 8 1 -6 -6 -5 -2 -4 -6 -2 -9
10 12 17 17 18 16 18 12 12 13 14 11 11 16 19 15 8 9 14 18 17 14 16 16 13 16 15 15 12 11 11 13 14 9 9 9 9 4 5 4 7 6 7 -1 -2 4 0 -6 -6 -8 -10 -7 -11 -15
8 10 19 21 24 23 18 19 21 16 10 8 11 10 7 -1 -0 12 20 18 19 21 19 19 20 15 12 11 11 11 11 10 9 8 10 9 9 9 3 -2 0 3 6 2 -3 -6 -2 0 -4 -6 -10 -9 -2 -3
14 16 7 14 13 17 10 12 9 7 8 15 12 1 -1 0 7 15 19 19 17 16 15 14 15 14 13 12 10 7 4 4 4 7 8 7 5 1 -1 -3 -3 6 -5 -9 -9 -8 -8 -9 -7 -3 -3 -8 -12 -10
13 15 11 3 7 9 10 9 8 11 13 15 3 2 5 15 16 17 16 16 16 14 12 10 7 7 10 12 12 12 8 3 2 -7 -9 -0 -0 -2 -2 -4 -5 -6 -3 0 2 -3 -6 -8 -9 -10 -11 -11 -11 -12
11 17 7 2 0 4 10 15 6 10 12 11 14 14 13 15 18 16 15 19 17 12 8 8 7 6 3 3 -2 1 2 -3 -6 -5 -3 -4 -2 -2 -3 -4 -3 -4 -6 -7 -8 -4 5 -2 -3 -6 -5 -7 -6 -6
19 14 7 7 5 11 16 17 17 15 12 10 9 7 7 9 10 15 17 13 10 9 13 7 5 5 5 5 2 3 -6 -6 -8 -7 -6 -6 -1 -4 -9 -10 -10 -10 -9 -9 -12 -12 -13 -15 -13 -11 -11 -12 -15 -17
13 6 3 2 8 14 19 12 8 10 11 7 5 5 5 3 2 5 10 12 14 12 8 10 6 3 2 -2 -4 -3 -3 -6 -7 -7 -7 -2 -9 -10 -8 -7 -8 -6 -11 -12 -8 -9 -10 -13 -15 -16 -17 -16 -17 -17
10 9 8 6 4 5 11 10 9 10 9 7 7 10 6 3 -1 4 10 12 15 11 9 8 5 4 3 0 -1 -4 -7 -12 -9 -0 -4 -6 -11 -8 -10 -8 -11 -9 -11 -13 -13 -12 -12 -12 -14 -15 -17 -18 -19 -19

GFSWCAN_sfc_dewp_084.txt.gz
Dewpoint
36 36 38 39 39 37 37 37 39 40 41 42 43 44 44 45 44 44 40 38 34 29 29 31 31 29 30 33 30 33 28 30 33 26 25 24 22 25 25 27 27 28 27 24 24 22 20 38 37 32 37 37 37 37
35 38 40 38 37 37 37 38 40 41 42 43 43 44 44 45 45 45 39 40 40 33 30 34 33 33 31 31 31 35 33 34 36 33 30 30 24 25 27 24 34 29 33 28 26 24 38 40 40 40 40 39 38 38
37 39 38 36 36 37 39 41 42 42 42 43 43 44 45 45 45 44 40 40 40 35 33 31 28 29 32 33 37 29 34 36 34 35 34 31 28 33 26 28 34 34 37 34 33 37 38 39 38 37 37 35 35 36
38 37 36 34 36 40 41 42 43 43 43 44 44 44 45 46 45 45 40 41 39 34 25 26 31 32 33 31 36 36 35 39 37 39 33 31 28 34 30 32 33 36 38 35 35 37 38 37 37 38 32 34 32 30
37 36 35 36 39 40 41 43 44 45 44 44 44 45 46 46 46 42 42 42 40 32 26 29 35 35 34 33 32 36 38 37 36 35 31 29 33 35 36 35 31 34 33 32 30 34 36 34 37 37 33 29 28 27
35 35 37 39 40 41 42 44 45 45 45 45 45 46 45 46 44 41 33 41 41 40 30 24 33 36 36 35 34 34 37 38 38 34 31 36 37 36 31 31 31 35 33 33 34 34 33 33 31 31 29 26 24 24
34 36 38 40 41 42 44 44 44 45 45 45 45 45 45 46 43 38 33 37 41 40 33 29 27 33 37 35 34 32 36 38 36 36 35 34 34 36 32 27 29 30 28 29 33 37 30 31 28 27 25 23 24 21
37 38 40 41 42 43 43 43 44 45 45 46 45 45 45 46 43 38 42 43 40 38 37 28 25 33 35 31 34 37 33 37 35 35 36 34 34 33 24 26 24 25 26 27 28 29 27 26 25 25 25 23 22 20
39 40 41 42 43 43 43 42 43 45 45 45 45 45 43 39 37 40 44 42 44 38 30 30 24 24 38 34 37 35 37 31 35 33 33 32 27 19 23 23 23 24 24 24 26 26 27 24 23 23 23 21 20 20
39 41 42 41 42 44 44 44 45 45 45 45 41 36 31 38 44 43 40 35 36 37 37 31 31 30 36 32 32 33 33 31 28 31 35 26 21 24 22 22 23 24 26 25 22 22 25 23 21 20 21 21 19 17
41 41 44 44 44 44 44 44 44 45 44 39 34 34 40 43 39 35 30 30 31 29 31 31 32 33 39 32 31 32 31 31 26 27 29 24 19 21 22 22 24 23 23 23 23 23 23 23 21 19 19 19 18 17
41 44 45 45 45 45 45 45 44 42 40 39 40 41 39 35 33 30 28 30 27 24 30 28 32 36 36 39 33 31 27 31 24 34 24 13 19 22 20 20 21 21 20 19 19 19 19 19 19 18 17 17 17 16
44 44 44 44 44 44 44 43 43 43 42 41 37 34 33 30 26 24 23 26 26 32 34 34 31 33 35 35 32 31 26 25 32 20 13 16 21 21 20 18 18 19 19 17 17 18 17 17 17 16 15 15 15 13
43 43 43 44 44 43 43 44 42 40 38 32 28 16 25 16 15 18 23 27 30 32 33 32 32 32 32 29 27 26 23 25 19 10 11 15 18 19 21 19 17 13 13 12 11 11 12 13 13 13 13 14 14 12
42 42 41 40 39 39 40 39 36 33 29 25 24 14 12 18 21 29 31 30 31 33 33 31 28 29 26 23 24 22 20 15 14 7 8 14 16 17 15 17 15 15 11 12 9 11 10 11 13 13 14 15 14 13
39 38 35 37 37 37 37 35 33 31 27 24 23 22 24 20 22 26 28 28 32 32 33 30 25 19 18 20 15 11 15 7 6 8 15 12 12 11 13 15 14 13 12 13 14 14 14 13 13 13 14 14 13 12
39 31 34 36 36 36 36 32 30 26 25 22 21 22 21 20 19 24 26 26 32 31 22 24 18 20 24 14 8 9 1 4 13 15 14 13 15 13 14 15 14 14 13 11 11 12 12 15 15 14 12 13 14 12
31 32 36 37 35 32 31 30 27 24 20 22 19 19 16 19 20 22 24 26 28 24 23 19 21 11 4 5 3 8 13 17 17 16 14 10 12 13 14 12 13 14 14 14 14 15 16 17 16 15 15 16 13 11
30 32 37 38 36 30 26 27 26 20 21 19 21 22 23 22 23 22 23 24 23 24 22 18 11 7 7 10 12 15 16 14 15 13 13 12 14 13 14 17 18 18 18 18 18 17 17 17 16 17 18 15 14 13
37 37 37 37 35 27 24 26 29 24 21 21 24 24 24 23 23 20 21 21 20 20 15 12 11 12 14 18 16 16 15 16 15 13 10 14 13 13 13 17 16 17 18 19 18 17 15 14 14 14 13 12 9 8
34 33 36 33 30 29 26 25 24 25 25 23 25 23 21 22 19 17 17 20 15 16 13 15 16 18 19 18 18 20 17 18 13 14 13 10 11 17 18 19 20 19 16 11 7 8 8 6 8 8 -1 -8 -5 -1
32 36 32 31 28 26 25 25 23 24 25 25 25 26 20 15 15 17 20 15 15 17 18 18 16 17 17 16 17 19 18 20 19 17 15 14 14 14 13 14 12 7 9 9 10 6 5 7 6 3 -1 -7 -3 -2
36 34 30 27 21 19 20 28 22 24 19 21 24 20 17 16 19 18 12 16 16 18 15 16 17 17 16 17 17 17 17 16 15 14 13 12 11 8 8 7 6 4 4 6 7 3 1 0 -1 -4 -5 -5 -5 -11
31 27 22 20 20 19 21 17 24 23 23 20 18 16 14 15 18 11 9 10 11 16 15 15 15 14 13 12 11 13 15 12 10 10 11 9 8 6 8 7 7 6 8 9 7 1 -1 -10 -7 -3 -12 -8 -9 -4
17 15 17 11 17 13 11 11 15 17 12 15 12 10 11 20 9 6 3 10 10 8 11 17 17 15 10 8 10 12 14 12 9 7 9 10 6 7 8 7 8 8 7 0 -1 -8 -10 -14 -13 -11 -11 -15 -5 -7
8 9 14 12 14 15 15 10 9 11 11 8 8 15 15 8 2 2 10 9 6 7 8 16 18 13 13 12 10 9 10 12 10 7 8 10 8 2 -0 -1 -2 -0 3 -7 -5 -7 -8 -11 -13 -12 -15 -12 -14 -19
5 6 18 21 22 20 15 15 18 12 6 5 7 3 -2 -8 -7 8 16 12 15 11 15 17 15 13 10 10 9 9 9 9 8 8 9 8 8 6 -2 -2 -2 2 1 -6 -12 -10 -8 -8 -11 -12 -15 -11 -10 -11
14 13 8 9 8 12 2 5 3 2 3 13 6 -4 -6 -4 4 13 15 15 13 14 14 14 14 13 11 9 6 3 2 2 5 5 5 4 1 -5 -7 -8 -7 3 -11 -15 -15 -16 -15 -14 -11 -12 -14 -14 -16 -17
5 12 9 1 3 5 7 4 3 10 13 10 -4 -4 3 13 11 13 12 13 12 12 10 9 4 8 9 7 3 2 -4 -3 -3 -7 -11 -10 -9 -6 -10 -11 -12 -13 -13 -9 -1 -6 -10 -12 -14 -15 -16 -16 -17 -21
7 13 2 -3 -3 1 3 4 -1 -1 9 8 13 12 10 11 16 13 13 10 7 4 1 7 2 5 -2 -3 -12 -7 -10 -16 -14 -8 -11 -12 -7 -6 -10 -11 -12 -15 -18 -17 -16 -13 -2 -12 -8 -14 -12 -12 -13 -17
13 5 0 -0 4 8 9 9 10 8 1 4 -0 1 4 8 10 14 13 4 7 7 8 6 2 -4 -3 -10 -14 -15 -11 -11 -17 -14 -10 -9 -12 -15 -16 -16 -18 -19 -19 -19 -19 -20 -20 -20 -23 -22 -21 -21 -22 -23
0 -5 -0 -0 6 8 9 -2 -2 1 -5 -4 -4 -5 -0 -4 -3 2 10 6 2 3 -5 -1 -1 -7 -12 -14 -12 -11 -9 -13 -16 -15 -12 -15 -19 -20 -16 -14 -18 -19 -19 -19 -19 -17 -15 -17 -20 -21 -21 -20 -22 -23
1 -0 1 1 -0 1 2 4 2 6 4 2 3 3 -3 -8 -6 1 7 6 4 4 3 -5 -4 -4 -5 -5 -7 -12 -14 -18 -15 -3 -9 -11 -15 -13 -20 -23 -23 -23 -20 -21 -22 -22 -19 -19 -19 -20 -21 -23 -24 -26

GFSWCAN_sfc_dewp_087.txt.gz
Dewpoint
36 36 36 36 37 38 39 37 37 37 38 39 41 41 42 43 43 43 40 38 36 26 27 29 30 26 30 31 25 28 27 28 31 27 25 25 22 24 25 25 25 24 24 24 25 24 20 37 37 29 35 38 38 39
35 35 36 36 38 40 38 37 37 37 39 41 41 41 42 43 43 44 40 40 39 34 27 33 31 32 30 30 29 31 31 31 35 31 30 30 26 24 27 22 33 22 29 29 27 25 37 38 37 39 40 39 38 38
35 35 36 38 39 38 36 36 37 40 41 41 42 42 42 43 43 44 41 40 39 34 32 30 27 30 35 33 35 27 31 35 35 35 33 32 26 30 24 25 31 33 35 32 34 37 37 37 35 36 34 31 32 34
35 36 37 38 38 36 35 36 40 41 42 42 43 43 43 44 44 45 40 41 38 36 28 26 32 31 31 32 33 34 34 38 37 38 34 31 29 32 29 30 32 34 34 34 33 35 36 36 37 33 31 31 29 27
34 36 37 38 37 36 37 39 40 42 43 44 44 43 44 45 45 45 42 42 40 35 25 25 32 34 33 32 30 34 35 36 35 34 32 29 31 34 33 35 28 34 30 29 29 32 33 32 36 35 31 30 27 25
33 36 38 37 35 36 38 40 41 43 45 45 44 44 44 46 43 40 33 41 42 41 31 22 31 33 34 33 33 35 36 36 37 35 33 33 35 36 25 27 29 32 33 35 33 33 32 32 33 30 26 24 23 22
35 37 36 35 36 38 40 41 42 44 45 45 45 45 46 44 42 37 33 36 42 41 32 27 27 32 37 34 33 32 35 36 36 35 33 32 32 35 31 25 27 29 29 30 34 34 30 27 25 25 23 22 22 21
36 35 35 36 38 40 41 42 43 44 44 45 45 45 45 44 42 39 43 42 41 37 35 26 26 30 34 30 32 36 33 34 37 33 36 33 34 33 24 25 24 25 27 27 28 28 26 25 25 24 24 22 20 19
36 36 37 39 40 41 42 43 43 44 44 45 45 45 43 39 37 38 43 42 43 37 28 30 23 21 36 33 36 34 32 24 32 29 30 33 28 20 21 23 22 23 24 24 26 28 25 23 22 22 21 21 20 19
36 38 39 40 41 42 43 43 43 43 44 45 43 37 31 37 44 42 39 35 35 36 37 29 30 29 36 34 33 32 32 24 28 30 34 25 18 23 24 24 24 24 23 23 23 21 24 21 20 20 19 19 18 17
37 39 40 41 42 43 43 44 43 43 44 40 33 34 40 42 39 35 30 30 31 29 32 31 30 29 38 31 28 30 29 31 26 26 30 22 17 20 22 20 21 22 22 22 22 22 22 22 20 18 18 18 17 16
40 41 42 43 44 44 44 45 45 40 37 36 39 41 40 35 33 29 26 29 27 24 27 28 33 35 34 37 32 32 28 30 23 32 22 11 18 21 20 19 20 20 18 18 18 18 19 19 19 18 17 16 15 14
40 44 45 44 45 45 45 44 43 43 42 40 37 34 33 31 25 17 20 24 24 30 31 34 32 33 34 32 31 27 26 22 31 19 11 13 20 20 18 17 17 17 17 16 16 16 16 16 16 15 14 14 13 12
44 44 44 44 44 44 43 43 43 42 38 32 29 21 25 11 15 16 18 25 30 32 32 33 31 30 31 27 29 27 26 24 15 7 7 14 18 19 19 18 15 12 12 11 9 9 9 9 10 10 11 12 12 10
42 42 41 41 40 40 39 39 36 34 29 27 24 13 12 16 21 26 29 30 31 33 33 31 29 28 23 23 22 18 16 10 12 7 6 11 16 17 15 16 12 11 7 8 6 9 7 8 11 11 13 14 14 12
40 40 39 40 39 37 36 35 33 31 27 24 22 22 22 17 22 23 27 29 32 32 33 30 24 19 18 18 14 9 15 10 6 7 10 13 15 9 11 13 10 10 10 7 6 7 8 6 6 7 10 10 9 9
37 36 39 38 39 37 36 32 29 27 24 21 19 20 14 11 15 24 25 26 30 30 23 22 14 16 21 13 11 11 2 0 11 10 11 8 11 13 13 12 10 11 11 9 8 10 9 10 11 12 10 12 12 11
31 34 38 39 35 33 32 30 26 23 20 21 19 20 15 16 16 23 24 26 28 25 22 17 19 10 6 7 2 4 8 11 10 12 11 9 7 6 11 10 8 11 10 9 11 11 13 14 15 14 13 14 13 10
33 37 38 38 34 30 26 26 25 20 21 22 23 22 22 20 23 22 22 23 23 23 21 16 10 6 3 5 5 9 10 12 14 10 10 7 8 12 11 12 12 11 13 13 17 16 16 17 17 17 16 16 13 12
38 37 37 36 34 27 25 26 28 23 19 22 24 23 23 22 22 18 20 21 21 19 12 7 6 12 14 15 10 12 9 14 15 12 13 10 9 11 8 12 11 15 17 18 17 16 16 15 14 14 13 12 11 8
34 34 36 33 30 29 28 26 24 24 24 22 24 22 21 21 18 16 18 19 14 14 11 13 11 16 17 16 17 16 15 15 10 12 10 10 11 13 14 14 14 13 11 7 7 8 8 7 6 6 -3 -8 -7 -3
32 35 30 31 27 26 25 26 23 24 24 24 24 23 17 10 11 13 18 12 13 13 14 16 16 16 17 16 16 18 16 18 16 14 13 13 12 11 11 8 12 8 11 7 9 2 3 6 5 2 -7 -11 -7 -1
36 34 30 27 23 22 18 29 21 23 16 20 22 16 12 11 16 17 11 15 14 15 16 16 17 18 17 17 17 17 18 16 15 13 12 9 7 4 5 4 3 2 2 4 6 2 -1 -2 -2 -5 -8 -8 -9 -14
31 28 24 21 22 20 19 16 24 23 22 19 16 13 13 15 16 9 7 7 13 16 15 16 14 13 13 13 12 12 12 13 11 10 10 9 6 5 6 6 5 4 6 7 5 -2 -5 -12 -10 -7 -13 -15 -17 -12
18 16 17 11 17 13 11 11 15 16 10 13 11 9 11 17 5 1 3 6 9 6 9 15 15 12 9 7 9 11 14 11 9 7 8 8 4 6 6 7 5 6 5 -5 -7 -10 -12 -18 -18 -15 -13 -16 -3 -6
8 8 12 10 12 13 13 10 9 10 10 6 6 13 11 3 -3 -3 7 6 2 5 1 9 9 11 11 11 9 8 9 11 9 6 7 9 6 1 -2 -3 -4 -1 0 -9 -10 -11 -9 -13 -16 -14 -16 -14 -16 -21
4 7 18 17 19 19 13 14 16 11 5 4 8 3 -2 -10 -8 6 11 9 12 8 14 16 15 12 10 8 8 8 8 8 7 7 7 6 5 3 -3 -5 -3 2 -0 -9 -14 -14 -10 -9 -11 -15 -18 -19 -20 -19
14 13 10 7 7 10 2 4 4 1 3 12 5 -7 -7 -4 2 9 9 9 12 14 13 13 13 11 9 6 4 4 1 2 3 3 2 2 -1 -6 -9 -10 -9 1 -13 -18 -18 -20 -17 -15 -12 -11 -13 -12 -14 -18
6 11 7 -0 2 4 5 1 3 10 12 7 -6 -6 2 10 7 8 10 6 10 12 9 6 2 4 2 -0 -4 -4 -8 -3 -5 -10 -13 -15 -15 -8 -13 -15 -16 -17 -20 -14 -5 -10 -10 -10 -16 -18 -17 -17 -13 -20
8 11 2 -3 -2 -0 -1 2 0 2 8 6 10 11 9 10 13 12 10 8 6 2 -3 4 -2 1 -5 -5 -13 -9 -16 -20 -13 -6 -12 -17 -10 -12 -16 -13 -14 -18 -23 -21 -19 -16 -5 -15 -12 -19 -21 -22 -25 -24
9 2 -3 1 3 2 3 -0 7 3 -4 -2 -3 2 3 7 12 12 7 -3 2 3 3 -6 -10 -14 -7 -15 -16 -16 -13 -15 -21 -18 -15 -15 -18 -17 -18 -20 -23 -25 -25 -23 -23 -23 -23 -24 -27 -25 -24 -21 -23 -25
-4 -8 -3 -2 2 3 3 -7 -3 -3 -6 -3 -2 -6 -4 -5 -6 2 7 2 0 -3 -9 -5 -3 -6 -15 -18 -18 -17 -11 -13 -17 -16 -16 -19 -21 -22 -21 -20 -25 -25 -23 -23 -25 -24 -22 -20 -23 -24 -25 -22 -22 -23
-5 -8 -6 1 0 1 0 2 -2 1 -2 -2 -2 -5 -12 -11 -7 -2 4 3 1 1 -3 -11 -13 -10 -9 -7 -8 -15 -18 -21 -19 -6 -12 -13 -17 -16 -25 -27 -27 -26 -23 -25 -26 -26 -23 -21 -23 -24 -24 -25 -24 -27

GFSWCAN_sfc_dewp_090.txt.gz
Dewpoint
39 35 35 37 35 36 36 37 39 39 37 37 37 39 41 41 43 43 41 39 36 29 26 28 28 25 27 28 23 27 26 27 31 26 26 25 23 24 25 25 25 24 23 23 25 23 19 37 35 28 35 38 37 36
37 35 35 37 36 36 37 38 39 37 37 37 38 39 41 42 42 43 40 40 40 35 30 33 30 29 30 30 28 29 28 28 34 26 27 29 27 25 26 22 31 20 29 29 28 26 36 36 34 35 36 35 36 36
35 36 35 35 36 36 37 39 38 37 37 38 39 40 41 42 42 42 41 40 39 34 34 31 29 30 33 32 32 26 30 33 32 34 30 32 28 28 23 24 28 29 35 31 32 33 35 36 36 33 33 31 32 33
35 36 36 35 35 37 38 39 36 35 37 39 40 41 42 43 43 43 41 41 38 36 26 26 31 30 31 34 34 32 33 36 35 36 33 31 29 32 28 29 31 31 33 29 32 33 35 34 34 35 33 31 27 25
35 36 36 36 36 38 39 37 36 37 38 39 41 43 43 43 43 44 43 41 41 35 25 26 30 32 32 32 32 33 33 32 34 33 32 28 30 33 34 33 25 31 28 25 27 31 32 30 32 32 29 28 28 27
36 35 34 34 36 38 38 37 37 39 38 42 44 45 44 44 45 39 33 41 42 41 34 23 30 30 34 31 30 31 31 33 36 35 34 33 34 34 27 21 29 32 33 34 32 34 32 31 31 30 26 24 21 20
36 34 33 34 37 38 36 37 39 38 41 43 45 44 44 45 43 37 33 37 42 41 32 25 25 31 34 33 31 31 33 35 35 34 32 30 30 35 31 26 26 30 29 28 30 31 30 26 24 24 22 21 21 20
33 33 34 36 37 36 37 38 38 40 42 44 45 45 45 44 42 39 43 43 41 37 34 27 25 29 34 31 29 33 30 32 35 34 35 33 33 32 24 24 24 23 25 25 27 27 26 25 23 22 22 21 19 18
33 35 36 37 36 36 38 39 39 42 43 44 45 45 42 40 37 39 43 42 42 35 27 27 23 20 36 34 35 34 32 25 31 30 29 30 26 25 19 22 22 23 23 22 24 26 24 22 21 20 20 20 18 17
34 36 37 38 38 38 39 39 41 42 44 44 43 37 31 36 44 41 39 35 34 36 35 29 28 24 32 31 32 30 28 22 24 27 32 28 18 23 23 23 23 23 22 22 22 21 21 21 19 18 18 18 17 15
35 36 37 37 37 39 40 40 42 43 43 40 33 34 39 42 38 35 30 29 30 28 31 31 28 27 34 30 28 30 25 23 19 25 27 21 17 20 21 20 21 20 20 21 21 21 21 21 19 18 17 16 16 15
36 36 36 37 39 40 41 42 43 42 39 36 39 41 40 35 32 29 24 28 27 23 27 29 29 32 35 35 29 30 28 29 21 31 23 13 18 20 20 19 19 19 18 18 19 18 18 18 18 16 15 14 14 13
36 37 39 40 41 41 42 43 44 42 41 42 37 33 32 31 25 15 17 24 24 27 26 32 32 34 33 32 30 30 26 20 29 18 17 12 19 19 18 17 16 17 17 17 17 17 15 15 15 14 11 11 10 9
38 40 41 44 45 45 44 44 43 42 38 32 29 23 23 20 16 17 19 20 26 31 32 32 32 31 32 29 30 24 21 24 15 9 10 12 17 19 19 17 14 9 10 9 7 7 7 8 6 6 3 2 4 5
42 42 42 44 44 44 43 43 39 37 32 29 24 17 14 16 19 26 30 30 32 33 27 31 29 27 20 19 23 18 21 15 13 7 4 12 16 17 15 15 11 10 4 5 2 5 3 5 8 9 9 7 8 4
41 40 38 39 40 40 40 37 36 33 27 23 19 17 22 24 24 26 28 29 32 32 26 29 25 19 15 15 15 11 16 12 7 7 10 12 10 6 6 8 6 6 7 6 5 7 7 4 5 6 9 9 4 4
39 37 40 39 37 37 36 33 31 27 24 20 15 18 12 14 17 21 26 27 30 29 17 21 13 13 19 10 9 10 7 6 10 10 8 6 10 9 3 5 4 7 8 5 6 7 6 9 9 11 9 11 12 10
37 39 38 37 36 34 32 30 25 23 19 21 19 16 14 11 13 23 23 26 27 25 21 16 19 9 5 8 3 2 5 6 6 7 4 2 2 2 8 6 6 9 8 7 9 9 10 10 12 10 12 13 11 10
37 38 38 38 35 33 29 27 26 20 21 22 24 21 19 19 22 21 22 23 23 22 20 16 7 5 3 1 0 2 7 7 11 8 8 5 5 9 9 9 10 10 12 13 15 13 14 16 16 16 15 14 13 12
37 37 37 36 33 28 25 25 27 23 20 23 24 22 22 21 21 16 19 21 19 17 12 7 4 4 10 10 7 9 6 13 14 12 9 10 11 9 7 12 13 15 15 16 13 12 13 13 12 12 10 10 10 8
36 36 35 32 29 29 26 25 23 23 23 21 24 22 20 21 17 16 16 18 14 14 8 8 11 17 14 13 16 16 15 15 10 12 10 13 9 12 11 10 13 12 8 6 5 5 5 4 5 5 -5 -11 -10 -6
33 34 29 30 27 27 24 25 23 24 24 24 24 22 16 10 9 14 17 12 12 11 10 14 17 17 16 14 14 16 14 15 14 13 12 13 11 11 8 6 10 6 9 6 9 0 1 4 2 -1 -8 -12 -8 -5
35 32 28 27 23 21 19 28 19 22 17 21 21 15 13 12 15 16 10 14 13 14 15 17 18 18 17 18 19 19 18 16 14 12 10 7 6 2 3 3 1 -1 -0 2 5 2 -1 -4 -4 -10 -10 -9 -8 -13
30 26 21 20 22 18 17 14 23 22 22 16 14 10 10 11 13 8 5 6 13 17 16 15 15 14 14 13 12 12 14 13 10 9 9 8 5 3 5 5 4 2 4 5 3 -4 -6 -13 -14 -9 -13 -14 -17 -12
21 17 18 13 18 13 9 5 10 12 5 8 7 5 9 14 4 -1 2 7 10 7 8 13 13 12 9 6 8 10 12 12 9 7 7 7 4 4 4 5 3 4 3 -7 -9 -10 -13 -18 -20 -18 -14 -20 -9 -13
12 11 13 11 10 10 9 5 3 4 4 2 4 11 6 1 -4 -4 5 5 -0 4 -0 7 7 10 10 11 9 8 8 10 9 6 6 8 5 -2 -5 -5 -4 -1 -0 -10 -12 -12 -10 -10 -14 -12 -16 -15 -17 -21
6 8 18 15 17 17 9 10 14 7 1 2 3 -2 -3 -8 -9 4 9 8 10 6 12 13 13 11 9 8 8 7 7 7 6 5 5 3 3 2 -3 -7 -5 -0 -1 -10 -16 -16 -15 -12 -11 -11 -12 -18 -22 -20
11 11 8 3 4 8 -2 -2 -3 -2 1 11 4 -6 -7 -5 1 7 9 9 11 13 12 11 11 10 8 5 4 3 0 1 1 1 1 0 -3 -9 -11 -13 -10 -0 -15 -19 -20 -22 -19 -18 -18 -18 -17 -15 -14 -18
3 8 6 -4 -1 1 3 -2 1 9 11 5 -6 -6 0 8 4 6 12 8 10 11 7 4 -2 -1 -1 -2 -6 -5 -7 -4 -6 -9 -13 -16 -17 -9 -15 -18 -18 -20 -23 -17 -9 -11 -14 -13 -17 -20 -20 -19 -17 -20
4 9 -0 -7 -7 -3 -3 2 -0 0 7 5 8 9 7 6 11 11 10 7 4 -0 -6 -1 -5 -2 -6 -4 -11 -9 -16 -20 -11 -5 -10 -15 -12 -15 -19 -17 -18 -22 -26 -23 -21 -18 -7 -17 -15 -22 -24 -23 -26 -26
7 0 -3 -2 -2 -0 1 -3 -0 -4 -8 -7 -4 -4 -1 6 10 10 5 -0 1 1 1 -5 -10 -16 -8 -15 -18 -16 -13 -14 -21 -19 -19 -20 -22 -21 -22 -23 -26 -29 -28 -25 -25 -25 -25 -25 -27 -26 -26 -23 -21 -27
-7 -11 -5 -6 -1 2 -1 -10 -8 -4 -6 -5 -5 -8 -5 -3 -4 4 3 -4 -3 -3 -8 -4 -3 -8 -16 -20 -22 -20 -11 -10 -19 -19 -18 -21 -23 -25 -24 -23 -29 -28 -26 -27 -28 -27 -26 -23 -25 -26 -26 -20 -20 -21
-10 -11 -9 -2 -2 -4 -3 -5 -5 -3 -6 -7 -6 -10 -14 -8 -4 -2 2 1 -0 0 -2 -10 -16 -14 -16 -15 -13 -18 -15 -21 -20 -7 -13 -14 -19 -18 -27 -30 -30 -28 -25 -26 -28 -29 -25 -25 -25 -26 -25 -26 -24 -23

GFSWCAN_sfc_dewp_093.txt.gz
Dewpoint
36 38 42 37 36 37 36 36 36 37 39 39 37 37 39 40 41 42 41 40 37 31 28 28 28 25 24 27 23 27 27 28 29 26 26 26 25 26 25 26 27 24 24 24 23 21 19 35 33 29 35 37 36 34
37 39 40 37 37 37 35 36 37 37 40 38 37 37 38 40 41 41 39 41 41 36 32 33 32 32 29 29 31 30 30 29 31 26 27 27 25 27 25 22 30 27 32 28 29 30 35 36 34 35 36 34 35 34
37 39 39 36 37 37 35 36 37 38 40 38 38 37 39 41 41 42 41 40 39 34 34 33 31 33 34 32 35 29 30 33 32 35 31 29 27 30 24 24 28 32 35 31 32 33 32 33 34 34 33 30 31 33
37 38 36 36 36 36 35 36 37 39 38 36 37 39 40 41 42 42 41 41 39 35 29 27 32 31 32 34 33 33 31 37 36 35 32 29 28 33 29 29 30 30 30 28 32 31 33 29 32 32 30 31 29 26
37 37 37 37 36 36 35 37 39 39 37 37 37 39 41 42 42 43 43 41 41 36 28 27 31 31 32 34 33 34 35 33 34 30 32 30 31 33 35 32 26 29 28 26 26 30 30 28 30 30 27 26 26 24
37 37 37 36 36 36 37 37 39 37 37 37 38 39 42 42 43 41 33 41 41 41 33 28 31 30 33 32 33 33 33 33 34 33 34 35 35 34 29 26 29 32 33 32 31 33 30 30 29 28 25 22 21 20
37 37 36 36 35 35 36 38 38 37 37 37 40 42 44 45 43 37 35 38 42 40 33 27 26 32 33 32 33 33 33 35 35 35 34 34 32 34 31 25 27 29 28 28 29 31 28 26 24 24 21 20 20 18
36 36 36 35 34 34 37 38 37 36 37 40 42 45 44 44 42 39 43 43 41 37 35 26 26 30 35 31 30 33 32 34 35 34 34 33 33 33 28 25 24 23 25 23 26 26 26 24 22 21 21 19 17 16
36 36 36 35 35 36 37 37 36 37 38 42 44 45 42 40 37 39 43 42 42 35 28 28 25 24 37 34 34 35 34 29 33 32 31 32 28 26 23 24 23 22 21 20 24 23 22 21 19 18 18 18 16 15
36 36 35 36 36 37 37 36 36 38 41 43 42 36 31 37 44 42 39 34 35 36 35 30 29 28 35 33 30 31 30 28 25 27 33 30 24 23 23 22 22 22 21 21 22 20 20 20 18 17 17 17 16 15
35 34 34 34 35 37 36 36 37 38 42 39 33 33 40 42 38 35 30 29 29 28 31 30 29 29 35 31 29 30 28 27 23 26 26 25 21 21 22 20 19 19 19 20 20 20 21 20 19 17 16 16 15 14
34 34 35 36 37 37 36 36 37 40 39 36 38 41 40 34 33 27 25 28 25 23 29 27 29 32 35 36 31 31 26 28 22 32 27 20 18 20 20 18 18 18 18 18 18 17 17 17 17 15 14 14 14 13
34 35 35 36 36 37 37 38 40 41 41 41 37 34 33 31 26 20 18 24 24 27 28 31 31 33 33 33 32 30 24 24 30 25 21 16 19 19 18 16 15 16 16 15 15 15 14 14 14 13 12 12 12 10
36 36 37 37 37 37 38 39 41 42 39 33 30 26 23 21 23 19 23 23 26 27 29 33 31 32 33 31 31 24 26 27 21 18 17 17 19 19 18 16 14 12 11 11 11 11 10 10 9 9 8 8 9 8
36 37 37 38 38 39 40 40 41 39 33 29 29 23 21 19 20 25 31 30 33 34 31 32 31 30 26 26 25 24 23 21 20 19 14 18 19 17 16 15 13 11 9 10 10 10 9 10 11 10 10 11 9 7
38 40 41 42 43 43 43 42 37 34 31 25 22 19 23 25 24 28 29 30 33 33 29 30 26 24 21 21 21 21 20 18 16 14 15 17 14 13 12 12 10 10 11 11 11 11 10 9 10 11 11 11 9 9
39 37 41 40 40 40 38 34 33 28 26 21 19 19 19 15 17 25 28 28 30 32 27 24 18 19 19 15 15 15 16 13 13 14 15 15 15 12 10 10 10 11 11 12 12 12 11 12 12 12 11 12 12 10
37 39 40 37 35 34 33 32 28 23 19 22 19 19 18 17 20 19 25 27 30 26 23 20 21 18 15 14 13 12 11 11 13 14 14 12 11 10 13 13 11 14 13 12 13 13 13 13 13 13 12 12 11 10
39 39 39 37 36 33 30 29 26 19 20 22 23 22 21 20 21 21 23 24 23 22 20 16 13 13 13 11 10 9 13 14 14 14 13 10 12 14 13 14 13 13 13 14 15 14 14 15 16 16 15 14 13 13
39 38 39 37 35 31 24 25 27 22 19 24 24 22 21 20 21 21 21 21 18 18 16 13 12 12 12 13 12 15 13 16 16 14 14 14 15 15 16 16 16 16 16 16 16 15 15 14 12 12 12 12 14 13
35 36 34 31 30 28 26 24 23 23 23 22 23 21 20 21 18 19 18 18 16 14 12 12 14 17 15 15 16 17 17 16 15 15 14 14 14 16 15 16 17 17 15 15 14 13 12 12 10 9 10 9 7 9
33 34 29 30 28 26 25 25 23 24 23 23 23 20 17 15 15 17 16 14 13 14 15 16 17 16 16 16 16 16 16 16 15 15 14 15 15 15 15 14 16 14 14 13 13 12 11 9 9 8 8 6 3 8
33 31 28 27 23 21 21 28 21 22 17 20 19 16 15 15 15 15 12 14 14 16 17 18 18 18 18 18 18 17 16 15 14 14 13 12 10 10 11 10 11 11 11 10 10 10 10 0 3 7 5 6 7 7
28 23 19 19 22 14 18 17 24 22 22 17 15 12 13 14 13 10 8 9 14 17 17 17 16 16 16 15 14 14 15 14 12 10 10 10 9 8 8 8 8 8 8 8 8 7 5 5 -4 5 3 4 3 3
17 13 16 11 17 11 9 6 10 12 6 8 9 8 10 14 7 3 6 10 13 15 14 15 14 14 12 10 11 12 13 12 11 9 9 9 8 8 6 6 6 6 7 8 8 6 5 0 1 2 2 2 3 2
10 12 13 9 9 11 10 6 3 5 6 3 6 12 8 5 1 2 7 10 10 10 9 12 12 12 11 11 10 10 10 11 10 8 7 8 7 7 5 5 5 6 4 4 5 5 3 1 0 1 1 -1 -9 -4
7 8 16 13 16 14 8 9 12 7 2 3 7 2 2 -3 -3 6 11 10 12 11 12 14 14 13 11 9 8 7 7 7 8 6 5 4 4 4 5 5 3 6 3 1 2 3 3 1 0 -0 -0 -1 -2 -3
12 10 8 2 3 7 -3 -2 -3 -3 3 10 5 -4 -3 -2 3 9 11 11 13 13 11 9 10 10 9 7 5 4 3 3 3 3 4 3 1 -1 -2 -1 1 1 -3 -4 -1 -4 -1 -1 -1 -1 -2 -1 -2 -4
3 7 5 -5 -2 0 2 -2 2 8 9 5 -2 -1 2 6 6 7 12 11 12 12 8 5 2 2 1 -1 -2 1 3 4 3 -2 -2 1 -1 2 -3 -3 -2 -4 -4 0 -4 -2 -1 -1 -1 -1 -2 -3 -4 -8
2 7 -1 -9 -8 -3 -1 2 2 3 6 6 8 7 5 6 10 11 12 10 10 7 3 3 0 3 1 2 0 0 -6 -6 -1 3 2 1 1 -3 -3 -1 -2 -5 -7 -3 -2 -2 -3 -4 -3 -6 -6 -6 -5 -6
4 0 -3 -2 -2 2 2 0 -1 -3 -4 -3 -6 -3 1 6 9 8 5 4 5 4 3 -2 -4 -4 -1 -2 -1 -1 -2 -3 -12 -10 -7 -6 -6 -5 -5 -7 -9 -10 -8 -6 -6 -6 -5 -5 -6 -7 -6 -6 -7 -10
-7 -11 -5 -6 -1 1 -0 -7 -6 -0 -1 2 -1 -8 -3 0 0 5 4 5 5 4 -0 2 3 2 -6 -8 -9 -7 -8 -5 -7 -8 -6 -6 -5 -9 -9 -10 -13 -11 -8 -9 -10 -10 -10 -9 -9 -9 -10 -11 -12 -13
-12 -13 -11 -4 -3 -4 -4 -4 -4 -2 -2 -1 -2 -8 -10 -4 -2 2 4 3 5 4 2 -1 -5 -5 -6 -5 -4 -7 -9 -9 -9 -2 -7 -10 -15 -12 -12 -12 -12 -11 -10 -9 -10 -12 -10 -11 -10 -12 -12 -14 -15 -15

GFSWCAN_sfc_dewp_096.txt.gz
Dewpoint
41 41 41 41 40 39 37 37 37 37 37 38 40 37 37 39 40 42 41 41 38 32 29 30 28 26 24 25 24 27 29 29 31 28 24 25 25 26 24 27 26 23 25 26 25 21 17 34 30 29 34 36 35 34
39 39 40 41 40 39 37 37 37 36 37 39 40 38 37 38 40 42 39 42 42 36 34 36 35 34 31 29 29 31 31 28 31 28 27 27 27 28 25 23 28 28 30 29 29 28 34 33 33 33 34 32 35 35
40 40 41 40 38 38 38 37 36 37 38 38 39 38 37 38 39 42 41 41 39 35 35 33 32 33 36 35 34 30 30 31 33 36 32 29 28 29 25 24 26 32 33 33 33 31 30 33 32 33 32 32 32 33
39 39 39 39 39 39 39 38 36 37 37 40 39 38 38 39 40 41 42 42 40 37 31 28 32 32 32 35 34 33 31 33 35 36 32 29 28 32 29 29 28 31 30 30 32 33 31 30 31 32 31 31 29 28
39 39 39 40 38 38 38 38 38 37 38 39 37 37 38 40 41 43 44 42 42 37 32 30 33 32 33 33 33 34 33 32 33 30 32 30 30 32 34 33 29 29 29 30 28 32 32 30 31 31 28 27 26 25
38 39 39 38 38 38 38 37 37 38 38 38 37 37 39 40 42 41 34 42 43 42 34 30 32 30 34 33 33 33 33 33 33 31 33 36 36 34 30 26 31 34 32 34 31 33 32 31 31 30 27 22 21 21
39 38 38 38 38 38 38 38 37 38 39 38 38 38 39 41 43 37 36 39 43 42 34 31 28 34 33 32 33 33 34 34 32 32 33 33 32 34 32 25 28 29 30 30 32 32 28 27 25 23 22 20 20 18
38 38 38 37 37 37 38 38 37 38 38 37 37 39 41 43 43 40 42 43 42 37 36 31 28 31 34 32 31 35 33 33 34 33 33 32 32 34 29 27 25 25 25 24 26 27 26 24 22 21 21 19 18 17
37 37 38 38 38 37 37 38 37 37 36 37 39 42 43 40 37 39 44 43 44 38 31 30 28 28 36 34 33 35 33 30 35 31 30 32 30 29 28 27 24 23 23 21 24 23 23 21 20 19 19 18 17 17
37 37 38 38 37 37 37 37 38 37 37 38 41 37 32 38 44 42 39 35 36 36 35 28 33 31 36 35 33 33 34 30 27 28 33 31 28 25 24 24 23 23 21 21 23 21 22 19 19 18 18 18 18 17
35 36 37 36 35 35 36 38 37 36 39 38 33 35 41 42 39 36 32 30 31 28 29 29 30 30 36 32 32 33 32 31 24 27 27 27 26 24 22 20 19 19 19 20 21 21 20 20 19 18 17 17 16 16
35 36 36 35 35 35 36 37 37 39 38 37 39 41 39 36 34 31 28 29 26 23 28 28 29 32 35 38 33 33 28 30 24 32 28 25 22 21 21 19 19 18 18 17 17 17 18 17 17 17 17 17 17 15
35 35 35 34 35 35 36 37 37 39 41 41 37 33 34 33 28 25 22 24 26 30 32 33 31 33 35 36 34 32 26 26 34 30 27 25 21 20 19 17 16 17 17 16 16 17 16 17 16 16 15 15 15 14
35 34 34 35 36 37 38 37 38 39 38 34 33 29 30 27 28 29 27 31 35 35 34 34 32 30 33 31 34 28 30 30 25 24 23 22 22 21 20 18 16 16 16 16 16 16 15 14 14 14 14 14 13 13
34 35 35 36 37 37 38 39 39 39 33 33 33 28 27 31 30 32 35 34 33 37 34 34 34 33 33 31 32 29 26 23 24 26 24 23 22 20 19 18 17 15 14 15 16 15 14 14 14 14 14 15 13 12
36 36 36 36 37 38 38 38 36 35 33 29 26 27 28 29 28 31 33 33 35 37 37 36 30 30 29 29 26 26 24 23 25 23 23 22 20 18 18 17 16 17 17 17 17 16 15 15 15 16 15 15 14 13
37 36 37 37 37 38 39 34 34 30 28 22 26 28 30 32 31 30 32 34 35 37 34 32 28 27 27 26 24 24 27 23 22 22 23 22 20 18 17 16 16 17 17 17 17 16 16 16 15 15 15 16 15 13
37 41 42 42 39 38 33 35 30 26 22 26 26 26 27 28 29 30 32 32 34 30 29 28 26 26 26 23 25 22 20 21 23 23 22 21 20 19 20 19 17 17 17 17 17 16 16 15 15 16 15 14 12 12
39 39 40 40 37 34 31 30 26 21 24 25 25 25 26 26 26 28 29 26 26 24 25 25 25 27 27 24 23 22 22 22 20 20 19 20 20 19 19 19 18 18 18 17 17 16 16 16 15 15 15 13 13 14
39 39 38 37 35 28 26 26 27 22 23 24 24 23 23 24 24 27 27 24 22 26 26 24 24 24 24 23 23 23 23 22 19 18 18 19 20 20 20 19 19 19 17 18 17 15 15 14 14 13 12 12 13 13
35 34 35 34 31 27 26 24 23 23 23 23 23 22 23 24 25 26 26 25 27 22 22 21 22 21 21 21 22 21 21 20 20 19 19 18 19 19 18 19 19 18 17 17 16 16 15 15 14 13 17 16 15 15
32 33 31 32 29 26 25 25 22 23 23 25 24 22 24 24 24 24 21 23 21 20 21 20 20 19 19 19 20 20 21 19 19 19 19 18 18 17 17 19 18 18 18 19 16 17 16 14 15 15 15 16 11 13
34 32 31 30 25 25 24 29 24 21 21 22 22 20 22 22 20 18 20 17 19 20 20 19 19 18 18 18 16 16 16 15 17 18 19 19 18 19 19 18 19 19 17 15 15 15 15 8 11 14 14 13 12 12
29 27 27 27 24 23 27 24 23 21 23 21 19 17 18 20 16 18 17 18 18 19 18 19 18 18 17 16 16 17 17 17 17 17 17 16 15 14 13 12 13 14 12 12 14 15 14 16 8 12 12 11 11 10
23 20 23 20 22 21 21 21 20 19 18 18 17 17 18 17 17 15 16 17 18 20 19 19 18 17 17 18 17 17 17 16 15 14 14 14 14 12 11 9 10 10 13 16 15 14 14 13 12 11 10 10 8 7
17 19 19 19 21 20 19 18 18 17 17 16 16 18 20 18 15 14 13 18 20 20 22 22 21 18 16 16 16 15 14 15 14 12 11 11 12 15 14 12 12 12 12 14 13 11 9 8 8 7 8 7 3 5
16 17 17 14 17 18 19 19 17 18 16 16 18 17 16 13 13 13 15 18 18 21 20 20 18 16 14 13 12 13 13 13 13 11 10 8 9 10 13 13 8 11 10 9 10 8 7 6 6 5 6 7 7 6
15 14 15 13 12 13 12 13 12 12 14 14 15 11 12 10 10 15 16 17 20 18 16 15 16 15 14 13 13 12 11 9 10 10 9 9 8 9 8 10 8 5 9 8 9 8 8 7 6 5 5 5 5 5
13 13 11 4 7 8 8 9 10 11 11 12 13 9 9 9 12 14 16 18 19 18 15 14 13 13 11 10 12 12 13 13 10 5 2 10 11 10 9 10 10 9 10 9 1 5 6 6 5 5 4 4 5 5
11 12 8 5 3 6 9 10 12 12 11 12 10 8 8 11 13 17 17 19 19 19 17 15 14 15 13 12 9 8 10 10 11 12 10 8 10 10 9 10 9 8 8 7 6 3 2 5 5 5 3 3 4 3
11 12 8 8 7 11 12 12 13 12 13 11 12 12 10 12 14 13 12 14 13 13 13 12 11 13 12 11 11 10 9 7 2 4 7 8 8 8 7 6 7 7 6 5 3 3 2 2 3 1 0 -2 -3 -3
11 7 7 6 8 12 13 14 13 12 13 13 12 13 12 13 10 12 10 13 14 14 11 12 10 10 9 7 7 7 6 5 5 5 5 6 6 5 5 4 3 4 3 2 2 1 -0 -2 -1 -2 -3 -5 -6 -7
9 10 9 10 9 9 11 11 9 9 12 11 10 9 8 10 8 10 11 10 14 13 12 11 10 8 6 6 6 5 4 3 3 3 -0 -1 -3 0 4 5 4 2 -0 0 0 -1 -4 -5 -5 -7 -7 -9 -9 -10

GFSWCAN_sfc_dewp_099.txt.gz
Dewpoint
43 43 42 42 42 42 39 39 39 38 37 38 40 40 37 38 40 41 42 42 39 34 30 30 30 27 26 24 24 26 28 30 31 28 24 25 26 24 25 23 24 26 27 26 26 21 22 31 30 29 32 35 35 34
42 42 42 42 42 41 40 40 39 39 38 38 39 39 38 38 40 40 39 43 43 37 33 37 36 36 34 31 29 27 29 28 30 28 27 28 28 28 24 28 26 28 30 28 29 28 32 32 31 32 33 32 35 35
42 42 42 41 42 42 41 40 40 39 37 38 40 41 38 38 39 39 41 42 39 36 34 32 31 33 35 37 36 30 28 30 34 35 32 30 28 28 26 24 26 33 31 34 32 31 30 31 30 31 33 33 34 32
41 41 41 41 41 39 39 40 39 38 38 39 39 39 39 38 38 40 42 42 40 38 32 29 31 31 32 34 35 35 33 32 32 34 31 30 28 29 30 28 28 30 30 30 31 31 30 29 31 30 30 30 29 28
41 41 41 41 40 39 39 40 39 39 38 38 40 40 39 38 39 41 44 43 41 36 32 31 32 31 33 34 33 34 34 32 29 31 31 30 31 31 31 31 31 29 30 30 29 33 32 30 32 31 29 28 27 26
40 40 41 41 41 40 40 40 39 39 39 40 39 37 37 39 40 41 35 41 42 41 36 30 34 30 34 34 33 32 33 31 30 29 31 34 35 33 29 29 31 34 33 36 33 34 33 32 33 30 26 23 22 22
40 40 40 40 40 39 40 39 39 37 38 39 39 38 38 40 43 39 37 41 43 43 37 31 29 32 32 32 32 31 32 32 30 30 30 30 30 33 32 26 29 29 29 30 35 33 30 29 26 24 23 21 20 19
39 39 40 40 39 39 39 38 37 37 38 39 38 38 38 38 39 39 41 43 43 38 37 32 30 31 34 33 32 32 31 31 32 32 32 31 30 34 30 29 27 27 26 26 27 27 26 25 23 22 21 20 19 18
39 39 39 39 39 39 39 38 38 38 39 38 37 37 40 38 36 40 44 43 44 39 35 32 28 30 34 33 36 33 31 30 34 32 31 31 29 31 30 27 25 25 25 23 24 24 23 22 21 21 21 20 19 19
39 39 39 39 39 39 39 39 39 38 38 37 39 37 32 38 44 41 39 36 35 37 36 30 31 31 33 34 32 31 32 29 28 30 32 30 29 28 26 25 25 25 23 23 24 22 23 21 20 19 19 20 19 19
37 38 39 39 39 38 38 38 38 38 38 38 34 34 41 42 40 37 33 33 34 29 29 29 30 30 36 32 33 33 32 31 23 29 28 28 28 26 23 22 22 21 21 21 22 22 21 21 20 19 18 18 18 18
37 37 38 39 38 37 36 37 38 37 38 39 39 41 40 37 35 32 30 29 27 24 29 29 30 32 36 38 34 33 28 31 25 32 29 25 25 24 22 21 20 20 19 19 19 19 19 19 19 18 18 19 18 17
36 37 37 37 37 36 36 37 38 38 40 39 35 33 34 34 29 28 24 26 28 32 34 34 32 34 35 39 35 32 28 29 35 30 28 27 24 22 21 19 18 18 18 18 18 18 18 18 18 18 18 17 17 16
37 37 37 37 36 37 37 37 38 39 36 33 32 29 31 28 30 29 28 32 38 36 34 34 34 32 35 32 34 30 33 30 27 24 23 26 25 24 21 20 19 19 19 19 19 18 17 17 16 16 17 16 15 15
36 36 36 35 37 37 38 38 39 38 34 32 34 30 29 34 35 36 38 37 36 38 37 34 33 33 32 33 34 32 28 25 24 28 27 26 25 23 21 20 19 18 17 18 18 17 16 16 16 16 16 17 16 14
36 35 34 37 37 37 39 39 37 35 35 33 30 30 32 32 31 33 35 33 37 38 36 35 32 30 29 30 28 27 25 24 28 27 26 24 23 22 21 20 19 19 19 19 18 17 17 16 17 17 17 16 15 14
35 32 36 37 38 38 38 37 35 34 33 27 28 32 34 35 34 33 37 35 37 37 34 30 28 25 30 26 25 30 28 27 26 25 25 24 22 21 20 19 18 19 19 19 19 18 17 18 18 17 19 18 18 16
34 35 37 38 39 38 36 36 33 31 24 28 27 28 30 32 33 33 34 36 35 34 31 30 30 29 29 27 28 28 26 26 25 25 24 23 22 21 21 21 20 20 19 19 19 19 18 17 16 19 16 15 13 14
37 37 38 39 38 36 33 32 32 25 26 27 27 28 29 29 31 32 33 32 31 30 31 30 30 29 31 30 30 28 26 25 23 22 22 22 22 21 21 21 20 20 19 19 19 17 17 17 16 15 14 13 13 13
39 39 39 38 37 31 27 27 30 24 25 26 26 26 26 27 28 32 32 29 30 32 32 30 30 30 30 28 29 28 27 25 23 21 20 21 21 21 21 21 21 21 18 19 18 18 15 14 13 12 12 12 14 14
39 40 38 38 35 32 27 25 24 24 24 24 24 25 24 27 29 30 30 29 31 30 29 29 29 25 26 27 26 26 25 23 23 22 21 20 21 21 20 20 19 19 19 19 19 18 15 15 15 13 17 17 17 15
37 39 37 35 30 28 25 26 24 24 25 25 25 24 26 27 28 29 26 29 28 28 28 26 24 22 21 22 22 22 24 22 23 22 22 21 19 19 18 20 18 20 18 21 17 18 18 14 14 15 16 17 13 13
35 36 35 31 29 28 26 30 26 23 24 25 25 24 25 25 25 23 27 24 25 24 23 21 20 20 21 20 18 17 17 18 19 20 20 20 20 20 19 19 19 20 18 16 14 14 16 12 13 15 15 14 14 14
32 31 31 30 26 25 29 28 23 22 25 25 23 21 22 24 22 24 24 24 23 21 20 20 19 19 18 17 17 17 18 19 19 19 19 17 16 15 15 13 14 15 13 12 14 15 15 16 14 13 14 13 12 12
27 23 27 24 26 25 23 23 23 21 22 23 22 21 23 22 24 24 23 22 21 23 22 21 20 19 19 21 20 19 18 17 17 16 16 15 16 13 11 10 11 11 14 17 16 16 15 15 14 13 11 11 9 9
21 21 24 25 25 23 22 21 22 22 22 22 22 22 25 25 23 22 19 23 23 23 25 25 23 21 19 19 18 17 17 17 15 14 12 13 13 17 17 15 14 16 14 16 15 13 11 10 9 7 8 8 7 7
20 20 19 17 21 21 24 23 22 24 21 20 22 23 23 20 21 18 21 24 22 24 24 24 22 20 19 17 16 16 16 16 16 14 13 11 11 11 16 16 9 14 12 11 12 10 10 8 8 8 7 9 9 8
18 19 18 19 19 20 18 20 19 17 21 20 22 20 19 19 17 19 20 23 27 24 22 21 20 18 17 17 17 17 16 15 14 13 13 12 12 13 12 12 10 8 11 10 10 10 9 9 8 8 7 7 7 8
19 18 16 10 14 15 15 15 16 14 14 19 20 16 14 12 16 19 20 24 22 21 19 19 19 20 18 18 19 18 18 17 13 8 1 13 14 14 13 13 13 12 12 11 5 6 7 7 8 7 6 7 8 8
16 19 14 10 10 11 14 15 16 16 14 16 13 11 12 14 17 22 23 25 23 22 21 20 20 19 18 18 16 15 16 17 16 16 14 12 13 13 13 12 11 11 11 10 9 7 6 7 7 8 7 7 6 6
17 19 15 14 12 15 15 17 18 17 17 17 19 17 14 15 17 18 18 21 21 21 20 20 20 20 19 17 16 14 12 12 9 10 12 12 12 12 10 9 10 10 9 7 7 6 5 4 5 4 3 2 0 -0
18 14 13 11 12 15 17 19 17 16 17 16 15 16 17 17 14 16 16 21 20 20 19 19 18 17 17 16 14 13 11 10 9 9 8 10 10 9 9 8 8 9 7 5 5 5 3 1 2 1 0 -2 -3 -4
15 16 16 14 13 13 15 16 12 13 15 14 15 17 17 17 11 14 16 17 22 20 19 17 15 14 13 12 11 10 8 9 6 5 3 3 2 5 8 9 8 6 3 4 4 3 1 -1 -2 -4 -4 -4 -5 -6

GFSWCAN_sfc_dewp_105.txt.gz
Dewpoint
43 42 43 42 42 42 42 41 41 41 41 40 40 40 39 38 39 39 40 41 38 34 32 34 34 31 30 28 25 27 27 28 28 26 25 24 26 26 28 28 26 26 27 24 25 22 18 29 27 24 31 34 35 34
43 43 42 42 42 41 41 41 41 41 40 40 41 40 38 37 39 39 39 41 40 34 32 37 36 36 34 32 31 30 29 31 32 25 26 27 25 27 27 26 29 26 29 25 26 25 32 31 31 34 35 34 35 35
44 44 43 42 42 41 41 41 41 41 40 41 41 40 40 37 39 38 41 40 37 34 32 32 31 35 35 35 37 30 35 35 31 33 27 27 26 29 26 29 32 32 33 27 29 30 30 31 33 33 36 33 31 30
42 43 43 42 42 41 41 41 41 41 41 41 41 40 40 38 37 37 37 39 38 35 26 31 34 32 34 34 36 36 34 35 33 32 29 26 25 31 29 31 29 30 31 30 29 30 29 30 31 32 29 28 28 25
43 43 43 41 41 42 42 41 41 41 40 40 40 40 40 38 37 36 37 40 40 37 30 29 32 31 33 35 33 33 34 33 31 29 28 27 29 30 31 33 28 29 29 28 25 33 30 29 32 31 28 27 25 24
42 43 42 42 41 42 42 41 41 41 40 40 40 40 40 39 38 36 32 38 41 40 33 26 34 35 34 33 33 32 34 32 31 29 27 29 30 31 25 24 31 33 32 34 30 32 30 31 33 31 24 22 21 22
41 42 42 42 42 42 40 41 41 40 39 40 40 41 39 38 38 35 34 39 43 42 32 28 27 36 33 32 32 33 33 34 31 30 28 28 29 32 28 26 32 31 32 32 33 31 31 33 26 24 23 22 22 20
41 42 41 42 42 42 41 41 40 39 39 40 40 39 38 38 37 35 40 43 42 38 34 27 25 31 33 30 29 33 30 31 31 29 29 28 30 31 28 29 27 26 27 28 28 27 26 25 22 22 22 21 20 20
41 41 40 41 42 41 41 40 40 39 39 40 40 39 38 35 32 34 43 43 42 38 30 29 25 22 36 32 33 31 33 25 32 25 28 29 25 25 29 28 26 26 26 24 25 24 24 23 21 21 22 21 20 20
40 40 40 41 41 41 40 40 40 39 39 40 37 32 28 34 40 42 39 35 34 36 35 29 29 24 33 30 32 29 29 26 27 29 30 24 26 28 27 27 27 26 25 27 26 27 27 22 20 20 20 20 21 20
39 40 40 41 41 40 40 40 39 39 39 35 31 30 37 42 38 34 31 29 29 28 31 30 30 28 34 26 26 29 28 26 23 29 24 23 25 27 25 23 23 23 23 23 23 22 22 23 21 20 20 20 18 17
38 40 40 40 40 40 40 39 39 37 35 35 36 39 40 36 33 30 25 26 26 23 28 27 28 31 33 37 33 31 24 24 18 30 22 16 25 24 23 23 21 21 21 20 20 20 21 21 20 19 18 17 16 16
38 40 40 40 40 40 40 39 39 39 40 38 35 32 32 31 26 23 20 22 24 26 29 28 29 32 34 34 29 27 19 17 29 24 21 24 25 23 22 20 20 21 21 20 19 19 18 18 18 17 15 12 10 8
39 40 40 40 40 40 39 39 39 40 37 31 29 25 26 24 23 23 24 25 28 29 29 30 28 27 27 24 29 25 24 26 17 13 23 24 24 22 22 20 19 16 15 15 12 12 11 10 7 6 5 4 5 4
39 39 40 39 40 39 39 39 39 39 34 29 30 24 23 29 33 33 32 30 31 30 30 28 27 30 28 25 27 27 21 15 20 23 24 24 23 21 20 19 17 14 12 12 9 8 6 6 8 7 9 7 8 2
39 39 36 39 39 39 39 38 38 35 32 31 30 27 32 31 31 33 32 33 32 29 30 30 26 26 24 25 24 17 23 22 24 24 24 24 21 19 16 14 12 18 20 13 11 10 10 7 8 8 9 8 4 3
35 32 39 39 39 39 38 37 34 30 28 30 29 32 30 32 31 32 33 32 32 31 29 27 21 24 27 24 22 28 24 25 25 25 25 23 20 14 14 20 20 21 19 13 11 13 11 13 13 15 13 11 12 15
33 37 38 39 38 38 37 36 31 29 27 29 28 30 31 31 32 32 33 34 32 30 29 26 28 25 25 21 24 26 26 26 26 24 22 19 15 13 15 12 21 20 15 14 14 14 15 13 18 19 21 21 18 19
36 36 38 38 35 34 30 30 33 28 28 29 29 30 30 31 32 31 33 33 33 33 31 27 26 23 26 27 27 26 26 22 21 22 22 21 18 21 21 21 21 17 16 15 19 20 20 20 17 16 16 15 13 14
38 38 38 37 37 30 28 29 35 29 25 28 30 29 30 29 31 32 32 31 30 29 28 23 26 27 27 28 30 28 26 23 21 19 20 22 22 22 19 18 18 20 19 20 20 15 18 17 20 17 15 13 10 10
37 38 38 37 36 35 33 29 30 28 27 28 28 27 27 29 29 29 29 31 31 29 25 25 26 28 29 29 29 27 25 22 20 19 19 18 19 20 21 24 21 19 20 20 16 18 11 15 16 16 7 4 4 5
36 37 36 37 33 32 30 28 27 27 27 27 28 27 27 27 28 29 30 28 29 27 29 28 26 26 26 25 26 25 24 25 24 22 19 20 21 17 17 16 18 15 13 12 15 11 13 13 12 10 5 3 6 5
36 35 32 32 29 28 26 31 25 26 22 25 28 25 25 27 28 29 27 29 27 24 25 25 25 25 24 24 23 23 23 22 21 21 20 20 20 20 19 17 16 12 12 15 16 13 9 8 7 4 4 3 4 2
35 30 26 27 30 21 28 24 27 26 26 25 25 23 24 26 26 25 24 26 24 24 24 23 23 22 21 21 20 21 22 22 21 21 20 19 17 17 17 15 15 14 14 16 14 10 8 3 5 5 -1 -2 -3 -4
22 22 28 24 28 23 24 25 23 23 18 24 21 22 24 23 22 22 24 23 18 20 24 23 22 20 19 18 19 20 22 20 19 17 18 19 15 13 13 14 14 13 15 9 4 2 1 1 -1 -4 -3 -7 -2 -5
17 19 23 23 20 22 22 22 20 19 22 22 23 24 22 24 22 21 23 21 19 24 26 25 19 20 21 20 18 18 19 20 17 15 16 17 17 14 13 12 12 11 12 4 0 -2 -1 -2 -5 -5 -6 -3 -3 -6
21 22 24 25 27 28 23 24 25 20 18 22 23 21 22 20 19 18 22 24 24 26 27 28 25 24 20 18 17 17 17 18 16 14 14 14 14 13 10 8 6 5 8 4 -1 -4 -5 -6 -7 -7 -7 -8 -7 -6
22 23 18 24 24 25 22 19 19 18 21 25 23 20 19 11 13 18 19 27 27 26 26 26 23 20 18 18 16 15 14 14 13 13 13 12 10 7 4 3 2 10 1 -3 -5 -5 -5 -7 -8 -8 -8 -9 -9 -7
21 23 21 15 19 20 17 16 17 17 18 21 23 16 12 15 18 19 22 25 22 21 19 18 18 19 18 17 17 16 13 9 8 3 3 2 1 5 3 4 3 2 -0 -0 5 1 -3 -5 -6 -7 -5 -2 -0 3
18 24 18 13 10 11 12 17 14 13 17 16 14 13 13 13 16 20 23 22 21 19 19 19 19 18 17 16 14 12 11 9 7 5 4 6 5 4 2 3 1 -1 -1 -3 -5 -4 3 -5 -3 -7 -7 -7 -9 -12
22 23 19 16 13 15 15 15 14 15 18 20 14 8 7 10 14 16 16 23 21 19 18 18 19 18 15 12 9 3 -0 4 2 7 10 10 7 4 3 1 -1 -1 -3 -5 -8 -9 -11 -11 -13 -14 -14 -15 -11 -14
22 17 13 9 11 14 18 18 19 11 12 9 9 8 7 10 6 11 16 19 19 18 20 20 15 12 12 10 9 8 7 4 0 2 5 6 4 1 2 2 0 -3 -7 -9 -10 -10 -11 -11 -15 -16 -16 -13 -19 -22
20 16 12 10 10 10 13 15 14 15 14 11 8 11 17 9 3 8 16 19 20 18 14 14 13 12 9 8 6 4 3 1 1 6 4 3 1 4 -0 -3 -5 -10 -12 -12 -11 -10 -9 -13 -15 -16 -20 -24 -26 -28

GFSWCAN_sfc_dewp_108.txt.gz
Dewpoint
42 43 43 42 42 42 42 42 42 42 42 41 40 40 40 40 41 40 39 38 33 28 29 34 35 30 30 28 24 26 24 27 26 23 23 24 25 26 28 28 27 26 26 22 24 19 16 30 28 23 31 34 34 32
43 42 42 42 42 42 43 42 42 42 41 41 41 40 38 40 40 40 35 39 38 30 28 35 35 33 33 32 30 30 28 31 30 24 24 26 25 26 29 23 31 25 27 24 25 24 31 34 32 35 35 34 34 32
43 42 42 42 42 42 42 41 42 41 41 42 41 40 38 38 40 40 37 36 34 26 28 31 29 34 36 35 35 29 31 34 30 31 25 27 25 28 26 29 29 33 32 25 25 29 30 32 34 34 33 31 29 28
43 42 42 42 41 42 42 42 42 41 42 41 41 41 39 38 39 39 35 36 36 33 22 28 34 32 35 35 36 35 33 35 33 31 27 24 25 29 27 32 28 29 30 28 28 29 30 29 31 29 28 27 24 23
44 43 42 42 42 42 42 42 41 42 41 41 41 40 39 38 38 37 36 37 39 35 28 27 31 32 32 34 34 34 33 32 30 27 24 24 29 29 30 32 27 30 29 28 24 32 30 29 31 30 26 24 24 23
42 43 41 42 42 42 42 42 42 41 41 41 40 40 40 39 39 35 26 37 39 38 32 24 32 31 33 33 32 32 33 31 30 29 26 27 30 30 25 25 31 33 32 33 29 31 26 27 30 30 23 22 22 21
42 43 42 42 42 42 42 42 41 41 41 41 41 40 40 39 36 35 30 39 42 41 31 26 25 34 36 33 32 32 34 32 29 29 28 27 28 32 28 24 31 32 31 31 31 31 30 30 23 24 22 21 23 22
41 42 42 42 42 41 42 41 41 39 39 40 40 39 38 39 35 34 40 43 43 35 32 27 24 32 33 28 28 32 29 30 29 28 29 27 29 31 26 30 29 30 31 31 32 26 23 22 22 21 21 20 19 18
42 42 42 42 42 41 41 41 40 39 40 40 40 40 36 33 29 31 42 42 40 37 29 29 25 25 34 30 31 30 31 22 30 23 26 29 26 24 28 27 25 26 27 25 24 23 22 22 21 22 21 20 19 18
41 41 41 41 41 41 41 40 40 40 40 40 36 28 21 30 38 41 37 33 34 35 34 27 28 22 31 26 27 29 26 24 24 28 29 28 26 31 30 26 26 26 26 28 26 24 22 20 20 20 20 20 19 16
41 41 41 42 41 41 41 40 40 39 38 33 30 27 36 39 37 32 29 28 30 27 30 28 28 26 32 25 25 26 22 24 22 29 23 22 23 26 23 22 22 23 22 22 22 22 23 21 20 20 19 18 16 15
39 41 41 42 41 40 40 40 40 36 33 33 34 38 38 33 31 28 25 26 25 23 26 26 27 29 31 34 29 28 23 22 18 29 24 12 21 24 22 21 21 21 21 20 21 20 21 20 20 18 17 16 15 14
40 40 41 41 40 40 40 40 38 40 38 36 35 31 31 29 23 20 15 20 17 23 25 25 28 33 31 31 29 24 16 16 27 23 19 18 23 22 20 20 20 20 20 19 18 18 18 17 17 15 12 7 6 5
40 40 41 41 40 40 39 39 39 38 35 28 27 24 24 22 23 20 21 21 25 25 26 26 25 26 25 21 28 19 20 24 14 10 19 19 24 22 21 21 18 14 13 12 10 10 9 10 5 2 2 1 2 2
40 40 40 40 40 40 40 40 39 37 33 27 28 16 24 25 29 32 32 27 27 27 28 26 26 26 21 23 27 26 22 14 17 15 15 22 23 20 19 18 14 12 9 8 5 6 2 3 7 5 3 2 5 -2
39 39 36 40 40 39 39 37 35 32 30 28 27 24 28 30 30 32 30 28 27 26 26 27 24 19 22 23 25 20 21 17 18 20 22 22 19 14 13 13 11 10 10 8 7 8 7 4 6 8 5 5 -1 -0
38 35 39 39 39 39 37 34 28 27 25 27 26 31 30 29 31 32 32 31 30 28 26 25 18 17 24 18 21 19 22 22 23 23 20 19 15 11 10 11 12 15 12 11 9 11 10 12 10 13 11 9 10 12
34 38 39 39 37 36 36 33 27 26 23 24 22 28 30 31 32 32 33 31 28 28 27 25 26 23 15 15 14 19 25 24 23 19 15 13 10 9 13 13 19 16 14 13 14 13 12 11 16 15 18 19 20 19
37 38 39 38 35 33 30 29 32 25 23 25 25 28 29 30 31 31 32 32 30 30 28 26 19 17 17 19 24 25 24 20 18 15 13 11 13 13 13 15 19 15 16 15 18 17 16 18 17 16 16 17 12 13
39 39 39 38 37 30 27 26 33 28 22 23 29 29 28 28 30 31 31 31 31 29 25 21 24 24 23 17 26 24 21 21 20 18 17 13 17 17 16 18 18 18 17 17 18 16 17 18 19 16 14 12 8 6
36 37 38 36 34 33 30 28 28 30 29 26 29 29 26 29 28 29 29 31 30 28 24 27 22 23 28 28 26 24 22 21 19 18 17 18 20 17 17 17 20 18 17 14 14 14 13 11 13 13 9 6 3 2
36 37 35 36 32 32 31 29 26 27 27 28 28 27 26 26 27 28 30 28 28 24 22 21 22 27 27 24 23 24 22 22 21 19 17 17 17 16 19 17 18 13 14 13 14 11 11 12 10 8 1 -1 0 2
36 35 33 33 28 23 22 31 24 25 23 25 28 24 21 25 23 29 25 28 26 25 23 23 25 25 24 24 24 24 24 23 21 20 19 18 15 15 15 13 13 13 11 13 15 12 8 6 4 -1 -3 -2 -2 -7
34 28 25 24 27 17 25 23 27 27 25 24 20 20 24 25 26 24 23 24 25 22 23 24 24 22 22 22 20 21 22 22 21 19 19 19 19 17 15 14 13 13 14 14 13 6 4 -1 -1 -2 -8 -10 -13 -12
22 19 22 19 29 20 18 19 19 19 12 14 16 20 23 22 21 21 21 16 13 14 22 23 22 22 18 15 17 19 22 21 19 18 17 17 14 14 14 13 14 13 12 6 -1 -4 -6 -9 -9 -9 -8 -14 -5 -9
13 16 22 16 11 19 18 13 11 11 14 13 14 19 20 22 16 13 19 13 10 14 20 21 18 19 19 19 18 19 18 19 17 14 14 16 14 12 11 10 5 5 7 1 -3 -7 -7 -10 -12 -9 -10 -8 -9 -10
14 17 22 26 25 25 17 17 22 15 10 11 16 16 21 18 18 14 18 20 19 21 26 25 22 21 19 17 16 17 17 16 15 14 13 12 11 11 10 9 4 4 5 -0 -7 -8 -9 -12 -12 -13 -14 -16 -15 -16
23 24 17 17 21 23 14 14 11 12 12 20 19 20 19 19 12 13 16 23 24 23 22 22 22 20 18 15 15 14 13 12 12 11 10 8 6 3 2 3 2 6 -5 -8 -8 -10 -10 -11 -12 -13 -15 -13 -11 -6
21 23 22 18 20 19 15 12 11 14 17 18 14 10 11 13 11 13 20 20 19 19 18 16 17 17 16 15 14 13 12 12 7 2 -4 -1 -3 5 -4 -4 -6 -7 -7 -2 5 -0 -2 -6 -10 -12 -12 -11 -12 -14
18 24 17 15 11 11 12 17 13 9 15 13 13 12 10 10 12 17 17 18 14 11 15 17 17 16 14 11 10 8 7 3 5 6 1 -1 1 -5 -9 -8 -7 -6 -5 -2 -5 -5 1 -9 -7 -14 -14 -16 -20 -23
23 22 18 16 13 12 12 7 5 9 11 6 5 5 5 6 10 13 13 15 18 19 18 17 17 15 12 11 9 8 6 5 2 5 6 5 1 -3 -7 -8 -7 -4 -3 -5 -7 -13 -16 -19 -23 -23 -21 -24 -28 -30
20 17 13 10 9 10 14 11 9 5 5 3 2 -1 0 2 0 8 15 15 16 15 15 16 12 8 11 9 6 5 6 1 2 2 1 -0 -4 -9 -4 -3 -4 -3 -5 -7 -10 -16 -19 -19 -23 -27 -30 -32 -33 -33
14 11 7 7 7 8 11 9 10 10 8 -1 -3 -1 4 -2 -2 5 11 14 11 11 10 10 10 8 7 5 4 1 0 -1 2 5 2 1 -3 -3 -7 -7 -7 -7 -7 -11 -17 -20 -20 -23 -29 -31 -33 -34 -35 -36

GFSWCAN_sfc_dewp_111.txt.gz
Dewpoint
42 43 42 42 42 42 42 42 42 42 42 42 41 41 41 43 43 39 37 37 32 27 28 34 33 29 28 26 21 24 23 26 25 21 22 22 23 26 29 29 29 24 25 22 23 17 15 30 29 23 30 33 31 29
42 42 42 42 42 42 43 42 42 42 42 42 42 41 41 42 41 40 34 38 36 30 28 34 34 33 32 28 29 29 27 29 29 23 24 24 24 27 27 25 32 24 26 23 25 23 31 34 32 34 34 31 34 29
42 41 42 42 42 42 42 42 41 42 42 42 40 39 41 41 43 40 35 34 32 27 27 29 29 35 35 33 34 28 30 33 29 29 24 23 22 27 25 27 28 31 31 26 25 29 29 31 30 32 33 27 26 31
42 42 42 43 42 42 42 42 42 41 42 41 41 39 40 41 41 39 36 36 34 30 24 29 32 31 35 35 34 34 32 34 32 31 26 22 23 29 28 32 27 29 30 27 26 29 27 29 29 28 26 24 23 23
42 42 42 42 42 42 42 41 41 42 42 41 40 39 39 40 39 36 36 37 38 31 26 26 31 32 34 35 34 34 33 31 29 27 23 23 27 28 32 31 27 30 29 27 21 29 29 27 30 27 25 24 23 22
42 42 42 42 42 42 41 42 41 42 42 41 40 39 39 39 37 31 26 36 40 36 27 22 30 30 33 33 32 32 32 31 29 27 25 26 28 28 26 25 32 32 31 32 30 30 27 29 31 25 23 22 22 22
41 41 41 42 42 42 42 42 41 42 42 42 41 40 40 40 37 32 28 39 41 37 28 22 25 32 36 32 32 32 34 31 29 28 27 27 28 31 27 24 32 31 30 30 31 30 27 23 23 23 23 23 23 21
42 41 41 42 42 42 41 41 41 41 42 41 41 39 39 37 35 35 40 42 41 33 30 20 26 32 34 30 27 31 29 29 28 26 27 26 28 29 23 31 31 31 31 32 27 25 23 21 21 20 20 19 18 18
42 42 42 42 42 41 41 41 40 41 41 41 40 39 35 32 31 33 42 41 40 31 22 22 21 25 32 31 30 29 29 21 28 22 25 27 27 23 27 29 27 28 27 24 23 22 22 22 21 21 20 19 18 17
42 42 42 41 41 41 40 40 41 41 41 38 34 27 20 29 37 40 34 29 31 33 32 24 26 24 30 25 24 28 25 23 23 27 28 28 25 29 25 25 25 25 26 26 23 22 21 20 19 20 19 18 17 15
42 42 42 41 41 40 41 41 41 40 36 32 26 30 34 38 33 30 27 26 26 25 29 26 26 26 31 24 24 25 21 23 22 26 24 20 22 23 24 22 23 22 22 23 23 24 23 21 20 19 18 16 15 14
42 42 42 41 41 41 41 41 40 35 32 32 36 36 38 32 29 25 23 26 25 22 25 25 26 28 31 31 24 26 24 21 18 29 26 13 18 22 22 21 21 21 21 21 21 21 21 20 20 18 17 15 13 13
41 42 42 41 41 41 41 40 38 39 38 35 34 30 31 29 22 19 14 18 21 23 23 24 27 28 29 31 29 27 17 15 28 20 16 15 22 22 21 20 20 20 20 19 19 19 18 17 17 15 10 5 4 2
41 42 41 41 40 40 40 39 40 37 32 26 21 23 23 21 22 18 19 19 24 22 24 25 27 28 24 21 19 13 18 26 17 9 18 18 21 22 22 21 18 13 12 12 10 9 9 9 3 1 1 -1 0 2
40 41 41 40 40 40 39 40 38 34 31 22 23 13 22 23 26 30 31 29 30 24 26 25 25 25 19 22 26 26 25 17 15 14 13 16 21 20 19 18 14 11 7 6 3 5 -0 0 4 3 0 -1 3 -4
40 39 37 40 40 39 38 36 34 30 29 26 25 21 27 28 28 32 31 31 31 24 29 27 23 16 16 19 24 21 19 13 14 14 19 20 18 13 12 12 9 7 7 6 5 6 5 2 4 5 4 3 -3 -3
38 33 39 40 40 38 36 32 29 25 24 24 21 26 29 27 26 32 32 32 32 25 24 24 16 16 22 22 22 21 19 14 20 22 18 17 16 11 10 10 9 10 9 8 6 9 9 9 8 12 11 7 9 11
32 38 40 39 36 34 34 31 26 25 20 24 25 22 23 30 32 32 32 32 29 27 27 24 25 21 10 13 12 20 22 22 19 18 13 8 9 9 12 11 13 13 11 10 12 11 11 10 14 13 16 17 18 18
37 38 38 36 34 31 25 26 29 22 23 27 25 23 23 28 30 31 31 32 29 29 28 25 19 16 18 18 21 14 16 16 17 13 8 5 11 12 12 14 14 11 13 14 16 15 14 16 15 15 15 17 13 12
39 38 38 38 36 29 26 26 31 27 21 21 27 27 25 26 30 30 30 31 31 28 27 22 22 16 21 17 20 19 17 19 19 16 12 9 11 13 12 16 15 15 16 16 16 15 16 16 18 17 14 13 11 10
37 37 38 34 33 32 29 27 26 28 28 25 27 28 26 26 28 28 28 31 30 29 23 27 26 16 22 22 22 22 22 21 18 17 15 14 14 16 15 14 17 16 14 12 11 10 9 9 12 13 9 7 3 -1
36 37 34 33 31 30 30 29 27 28 27 28 26 28 23 25 26 28 30 28 28 27 24 22 21 22 23 23 22 23 22 21 20 18 16 18 16 14 14 13 16 11 11 9 13 9 11 14 13 10 2 -3 -2 -1
35 34 31 31 28 26 26 28 25 28 23 25 27 25 24 25 24 29 25 26 24 22 23 23 25 26 24 25 24 23 22 20 19 18 17 16 15 12 12 12 13 10 9 11 13 11 8 5 3 -4 -5 -5 -4 -9
34 27 22 24 25 21 27 22 27 27 25 24 23 22 23 23 26 23 18 19 20 20 22 24 24 22 22 23 20 20 21 21 19 17 17 17 15 12 14 13 13 13 14 14 12 6 2 -6 -4 -2 -11 -14 -18 -16
19 18 17 9 23 22 16 17 19 17 12 18 18 16 21 21 20 18 15 15 11 11 16 23 22 22 18 14 16 17 21 21 19 16 14 17 14 14 13 13 11 11 10 4 -4 -7 -10 -14 -14 -13 -12 -17 -7 -12
11 10 20 15 13 18 17 10 8 9 10 16 12 16 15 14 13 14 16 13 7 10 9 18 16 18 18 19 18 16 16 20 18 14 13 16 15 13 9 7 4 4 4 -0 -4 -10 -11 -14 -13 -11 -13 -11 -12 -16
12 9 20 25 24 24 14 14 20 13 7 9 17 9 11 7 6 11 13 22 20 16 22 24 22 20 18 16 16 15 15 15 15 13 12 11 10 11 9 6 2 3 4 -1 -5 -8 -9 -13 -13 -13 -15 -20 -17 -18
20 21 14 13 16 21 12 8 7 11 10 18 15 9 9 10 9 8 13 16 23 21 20 20 21 19 17 15 14 12 11 9 9 8 8 8 6 4 2 4 5 7 -4 -7 -9 -14 -13 -10 -11 -15 -16 -16 -16 -16
19 22 23 18 18 15 15 13 9 12 16 15 9 6 5 10 7 7 11 17 22 21 16 15 14 14 13 12 12 13 12 11 8 3 -1 -3 -5 -0 -8 -5 -5 -9 -11 -7 3 -3 -4 -6 -12 -11 -19 -19 -25 -29
16 21 17 16 17 16 13 13 9 6 13 11 11 10 8 5 7 12 14 14 13 8 10 15 15 14 13 11 10 9 8 6 5 5 1 -2 -1 -4 -10 -5 -9 -13 -13 -10 -10 -6 2 -9 -11 -21 -23 -25 -30 -32
21 19 12 14 12 15 17 16 14 12 9 6 4 4 4 4 9 10 10 9 14 16 14 14 13 13 12 12 11 11 8 5 2 3 4 4 2 -5 -9 -11 -14 -14 -11 -9 -8 -11 -16 -22 -29 -30 -28 -31 -34 -37
18 18 14 11 12 15 17 16 14 13 11 4 -1 -2 2 4 2 6 10 10 10 12 10 12 11 8 12 9 7 8 8 3 5 4 2 0 -6 -10 -9 -10 -13 -8 -7 -8 -10 -16 -20 -23 -31 -34 -35 -36 -37 -38
12 13 13 12 12 12 14 15 14 10 6 1 -3 -4 -1 2 2 4 6 10 7 4 5 7 7 7 6 5 4 3 3 2 2 4 0 -2 -6 -6 -12 -13 -10 -8 -10 -14 -19 -22 -24 -28 -34 -36 -37 -37 -38 -39

GFSWCAN_sfc_dewp_114.txt.gz
Dewpoint
43 43 42 42 42 43 43 43 42 41 41 43 44 44 44 43 41 38 37 37 32 29 28 33 32 28 27 23 16 22 22 25 24 20 21 22 22 25 25 30 28 23 23 22 25 20 17 31 30 23 30 31 29 26
43 42 41 41 42 42 42 42 43 42 42 43 44 44 43 42 41 38 35 37 36 32 30 34 33 32 28 25 27 28 26 29 28 23 24 24 23 25 27 25 32 24 26 24 24 22 30 32 30 32 31 33 30 28
43 42 42 41 42 42 42 42 42 43 42 42 43 43 43 43 41 38 35 35 33 30 29 30 31 34 34 33 32 28 29 32 28 28 24 23 21 27 25 27 28 31 31 26 25 28 29 29 30 31 28 27 30 29
42 41 41 42 42 42 42 42 42 42 41 42 43 43 42 41 41 39 36 36 33 30 27 29 32 30 35 33 33 32 33 33 31 29 26 22 23 28 27 30 26 29 30 27 26 28 28 29 28 27 25 24 23 23
41 41 41 41 41 42 41 41 41 41 41 41 42 41 41 41 40 38 37 37 37 31 26 26 30 32 34 34 34 34 33 30 28 26 23 22 27 27 30 28 27 31 29 27 25 29 28 28 28 28 25 23 23 21
41 42 43 42 41 41 41 41 41 41 41 41 40 40 40 38 33 29 27 34 39 35 28 24 29 31 33 34 33 33 32 30 29 27 25 26 27 27 24 23 31 32 31 32 30 30 28 29 26 25 22 22 22 21
42 41 41 41 41 41 41 41 41 41 41 41 39 39 40 40 38 32 28 35 41 36 27 23 26 32 34 32 32 32 33 30 29 27 26 26 27 29 27 23 30 30 29 30 30 27 25 23 23 23 23 22 22 19
41 41 41 41 41 41 41 41 42 42 42 40 39 39 39 40 38 37 41 42 37 32 29 22 27 30 34 30 28 30 28 28 28 26 27 26 28 30 23 31 30 30 29 30 25 26 22 21 21 20 20 19 18 17
40 41 41 41 41 41 41 41 41 42 41 39 38 36 33 32 32 37 41 39 37 30 24 21 23 24 33 31 29 29 28 20 28 21 25 26 24 22 27 31 30 31 27 25 23 22 21 21 20 20 19 18 17 16
41 41 41 41 41 41 41 41 41 41 40 36 32 27 22 32 37 37 32 28 28 30 29 22 25 28 29 26 23 25 24 22 21 27 28 28 24 27 25 25 25 25 25 24 22 21 21 20 19 19 18 18 16 14
41 41 41 41 40 40 41 41 41 37 36 31 28 30 34 38 32 29 21 21 25 23 26 25 26 27 30 24 23 24 20 23 21 25 24 20 21 25 24 23 23 23 24 24 24 24 23 21 19 18 17 16 15 14
42 42 40 40 41 41 41 41 37 34 32 32 34 37 36 31 28 22 23 24 23 21 25 24 25 28 34 30 24 27 22 21 17 30 26 13 16 23 23 22 22 22 21 21 22 21 21 20 19 18 16 15 13 11
42 42 41 41 41 41 41 37 38 39 37 34 31 27 26 25 19 19 15 19 20 21 22 24 26 28 30 32 27 28 18 14 28 19 15 16 20 22 22 21 20 20 20 20 19 19 18 17 16 14 9 4 4 2
41 41 41 41 41 41 40 40 39 36 32 25 20 18 19 19 21 17 18 18 21 21 24 24 27 27 24 23 12 12 17 27 20 10 17 14 19 20 21 21 18 13 13 13 10 9 9 8 2 0 -0 -3 -1 1
41 41 41 40 40 40 39 38 36 34 27 25 22 18 21 23 27 26 25 28 30 23 24 25 24 25 18 19 24 24 24 15 15 13 13 12 20 21 20 19 15 12 8 6 3 5 3 2 6 1 -2 -3 0 -6
40 39 38 40 40 39 37 35 33 30 27 25 25 20 25 27 27 31 31 30 30 23 29 27 22 15 15 17 17 16 18 12 13 12 15 16 18 16 15 14 10 8 7 5 5 5 5 3 4 4 2 2 -4 -3
36 34 39 39 38 37 36 31 27 26 24 22 20 24 27 26 25 31 32 32 30 31 21 23 15 15 21 15 16 20 19 13 17 22 19 14 18 13 10 9 7 8 8 7 6 7 6 7 7 11 10 6 8 11
34 39 39 37 34 33 32 30 25 24 19 23 23 22 22 29 30 31 32 32 31 30 26 23 24 18 10 12 11 12 24 22 21 19 11 8 9 8 11 9 9 10 9 8 10 9 9 9 13 11 14 16 17 17
37 38 38 35 32 28 24 27 27 19 19 23 26 25 27 27 30 31 32 32 30 29 27 23 17 15 14 14 16 12 19 19 18 12 8 4 9 11 11 12 11 9 10 11 15 13 13 15 13 12 14 14 12 10
39 38 37 37 34 27 26 25 30 25 20 20 26 25 23 21 26 25 28 31 30 28 25 19 17 15 17 16 18 17 15 16 17 14 10 8 10 12 12 14 14 13 13 14 14 14 14 15 16 16 13 10 7 8
37 36 36 33 31 30 27 25 24 25 26 25 27 26 21 24 22 22 27 30 29 28 24 24 17 16 25 24 21 20 20 21 17 18 14 11 10 14 14 13 16 14 12 10 9 8 8 8 9 11 4 2 0 -2
36 36 32 32 27 28 27 27 27 27 25 26 27 27 19 14 21 27 30 27 27 27 22 21 22 23 23 22 21 22 21 20 18 16 15 16 14 13 13 11 14 8 8 6 10 6 10 13 11 7 -0 -6 -4 -3
35 32 28 29 20 18 22 28 23 27 19 22 26 22 19 21 23 28 23 27 24 20 21 23 25 27 24 24 23 22 21 19 18 16 16 15 14 12 12 10 11 8 8 9 11 9 8 5 1 -3 -6 -5 -5 -12
32 23 17 18 20 17 27 21 28 27 26 24 21 18 19 22 26 21 17 18 18 19 22 24 24 22 22 22 18 19 20 19 17 16 16 16 14 11 13 12 11 10 12 13 11 6 3 -5 -5 -2 -11 -16 -20 -18
15 13 14 7 21 18 14 13 16 21 18 18 15 14 18 22 14 12 15 13 12 10 14 21 21 21 18 13 14 16 20 19 17 15 13 16 13 13 12 12 11 10 10 6 -3 -6 -9 -9 -13 -14 -14 -18 -8 -13
7 11 12 10 12 17 16 11 8 13 13 16 14 16 16 14 14 12 14 14 9 7 6 13 15 16 17 18 16 15 15 19 18 14 13 16 15 14 10 8 8 7 5 1 -1 -4 -7 -13 -15 -13 -16 -14 -15 -18
10 8 19 23 23 23 17 18 18 12 10 9 20 15 10 5 3 10 17 21 21 22 21 22 23 20 18 16 15 14 14 14 15 13 11 10 11 12 11 9 6 7 4 1 -2 -4 -8 -15 -17 -18 -19 -21 -22 -23
18 15 10 13 20 20 8 9 9 8 9 15 13 8 7 8 9 7 10 14 22 19 17 17 19 18 17 14 12 11 9 10 9 9 9 7 6 4 5 6 6 7 -2 -5 -7 -9 -9 -12 -17 -20 -20 -21 -25 -29
15 19 18 13 13 13 13 13 12 11 15 14 9 7 6 10 4 5 8 15 21 21 14 12 10 12 11 11 12 12 11 12 10 5 1 -2 -1 3 -0 1 -1 -4 -5 -3 3 -3 -8 -13 -15 -17 -22 -25 -33 -38
19 23 19 17 18 17 15 15 8 3 10 9 10 9 7 3 3 9 12 12 18 18 15 9 11 7 9 9 9 8 7 5 5 7 4 1 3 3 -2 -2 -4 -12 -10 -1 -1 -0 -3 -16 -15 -26 -30 -31 -35 -36
20 18 15 15 14 14 13 10 8 8 4 4 1 5 5 5 7 7 7 6 5 8 11 8 8 10 11 11 11 10 7 5 3 3 5 5 3 -1 -4 -6 -12 -11 -8 -9 -11 -16 -23 -29 -33 -33 -32 -34 -38 -40
15 13 11 8 9 15 16 12 9 7 4 -2 -2 -4 -0 1 4 4 5 4 7 3 2 5 9 6 10 10 8 7 7 4 3 4 4 2 -2 -5 -7 -9 -10 -8 -9 -12 -14 -18 -20 -26 -34 -37 -38 -38 -40 -40
8 8 9 7 7 9 12 15 13 6 -1 -4 -5 -6 -3 4 4 -1 -0 5 4 8 7 5 6 6 6 5 4 3 2 2 2 4 1 -2 -6 -7 -10 -10 -9 -10 -13 -15 -19 -23 -26 -31 -36 -38 -40 -39 -40 -41

GFSWCAN_sfc_dewp_117.txt.gz
Dewpoint
42 42 42 42 43 42 42 41 41 43 44 44 44 45 44 42 41 37 37 37 34 32 32 33 32 28 26 22 21 25 25 28 26 23 21 22 24 25 27 28 27 22 23 22 24 22 19 30 32 25 28 31 28 27
42 42 42 43 42 41 41 41 43 44 44 44 44 44 43 42 41 37 35 37 37 34 33 34 34 33 27 24 30 29 27 30 27 25 25 26 25 27 26 25 29 24 25 23 24 22 30 33 30 32 34 30 29 27
42 43 43 42 42 42 42 42 43 44 44 44 44 44 43 42 40 37 35 35 36 34 32 32 32 34 34 34 34 31 32 32 31 30 29 29 24 27 26 26 28 30 31 26 27 29 28 30 31 28 29 30 30 26
41 42 43 41 40 41 41 42 43 43 44 44 43 43 43 41 41 39 36 37 35 34 30 30 33 33 35 35 35 35 35 34 32 31 29 28 26 29 29 29 26 29 31 26 26 28 28 28 29 27 25 25 24 23
42 41 42 41 41 42 42 42 42 43 43 43 43 43 42 41 40 39 39 39 38 35 30 28 32 33 34 36 35 35 34 32 30 28 29 26 28 30 31 29 25 30 29 27 25 29 28 28 30 27 25 23 22 21
42 42 41 40 41 41 41 41 41 43 43 42 42 39 37 35 31 31 32 34 40 36 32 27 31 34 34 35 35 34 33 31 30 29 28 28 28 30 27 24 30 31 33 34 30 30 30 29 26 24 23 22 21 19
43 42 40 40 41 41 41 41 41 41 42 41 41 42 42 42 40 34 31 36 40 37 32 28 31 34 34 33 33 33 33 32 30 29 28 28 29 32 28 23 30 31 32 30 29 28 27 23 22 22 21 20 20 17
42 40 40 41 41 41 41 42 41 41 42 42 43 41 40 40 39 37 41 41 37 33 31 27 29 32 34 30 30 31 30 30 29 28 28 27 30 30 25 30 28 28 29 29 29 28 25 23 22 21 20 19 18 16
41 41 41 41 41 41 41 42 41 41 40 38 36 34 35 34 36 37 41 38 38 33 27 26 26 26 34 31 32 31 29 26 29 28 26 29 27 25 29 30 29 29 27 23 22 22 22 21 20 19 19 18 17 17
41 41 41 41 41 41 42 41 41 38 36 36 34 28 28 35 39 35 33 29 30 31 30 26 27 29 31 29 28 29 28 26 25 28 30 29 26 27 26 28 29 29 25 23 22 21 21 20 20 20 19 18 17 16
41 41 41 41 41 41 41 41 37 35 34 32 30 29 35 38 34 30 25 25 26 24 26 26 28 30 32 28 28 27 25 26 23 28 26 24 23 26 24 24 25 25 25 25 25 24 23 22 20 18 16 15 15 14
41 41 41 41 41 41 40 37 36 35 33 32 35 37 35 30 27 23 23 24 23 21 26 26 27 32 34 32 28 28 26 25 22 30 27 22 23 25 24 24 24 24 23 22 23 22 22 21 19 18 16 16 15 13
40 41 41 41 41 39 37 39 39 39 34 34 30 28 27 26 17 16 16 20 22 25 27 29 28 32 32 33 29 28 23 21 29 25 22 23 22 24 23 22 21 21 21 21 20 20 19 18 17 16 14 12 10 8
39 40 41 41 40 40 40 38 37 35 32 26 22 19 18 19 20 20 21 22 24 25 27 30 28 29 28 27 23 21 23 27 21 18 20 23 23 23 22 21 20 19 18 18 17 16 14 12 9 9 9 8 8 9
40 40 41 40 40 39 38 36 35 34 29 25 23 20 22 25 28 28 25 29 30 26 28 28 27 27 23 23 24 25 23 18 19 20 23 21 23 22 21 20 18 16 14 12 12 11 9 8 10 8 7 8 8 5
39 39 38 40 38 37 35 34 32 30 28 26 25 23 25 26 28 30 30 30 30 28 28 28 23 21 21 21 21 18 19 17 21 22 22 20 21 20 19 18 16 14 14 12 12 11 10 9 12 13 9 10 7 8
38 37 39 38 37 36 35 30 29 26 24 24 23 25 28 27 26 30 32 31 28 30 25 25 19 18 23 20 20 22 21 23 23 24 22 20 21 19 16 14 12 12 12 12 11 12 12 12 12 14 14 15 12 14
36 38 37 36 33 32 32 29 26 24 21 23 23 23 25 28 30 32 32 33 32 30 28 26 25 21 17 17 19 21 25 24 22 23 19 17 17 15 17 15 12 13 13 12 13 13 13 13 16 16 16 17 18 18
37 36 37 35 31 28 25 27 27 21 22 25 26 27 27 29 31 32 32 33 31 30 29 26 22 21 22 21 23 21 24 24 21 17 14 11 15 15 14 14 13 13 13 14 15 16 16 17 17 17 17 17 17 17
38 37 37 36 33 27 25 26 29 25 22 23 27 26 25 26 27 25 29 33 33 29 26 24 25 23 25 25 24 24 22 20 18 17 15 14 14 15 15 15 15 15 14 16 17 15 16 17 18 19 18 17 16 17
36 35 35 32 30 29 27 24 23 25 25 24 26 26 23 25 24 24 26 29 28 28 28 25 25 23 25 26 25 22 21 21 21 21 19 14 15 16 17 17 17 16 16 17 18 17 16 19 16 15 17 16 13 13
35 34 30 30 27 27 27 28 26 28 26 26 27 26 21 17 18 23 28 26 27 27 27 26 25 26 25 24 23 22 22 20 19 17 16 15 16 17 17 17 17 17 18 18 17 18 18 17 15 14 14 10 8 9
33 30 28 27 17 16 21 30 23 26 18 22 25 21 19 19 23 28 22 26 26 23 23 25 26 26 24 23 22 21 20 19 18 17 17 17 17 18 18 18 19 18 17 17 16 17 16 11 8 10 8 8 8 7
30 23 16 16 18 13 24 23 27 26 24 23 21 19 21 23 25 22 19 21 20 20 23 25 24 23 23 22 20 20 20 19 17 17 17 17 16 16 18 17 17 17 17 16 15 13 10 8 6 7 5 4 2 4
16 11 12 5 20 13 16 17 16 20 16 17 18 17 20 21 15 15 19 19 18 17 19 22 23 22 21 19 19 20 20 19 17 17 17 17 16 15 14 14 13 13 13 13 10 9 5 4 5 4 3 3 3 -0
6 8 11 9 16 14 13 14 15 10 17 21 17 18 18 16 16 15 17 21 18 17 17 18 23 22 20 20 19 19 19 19 19 17 16 17 17 17 15 14 13 12 10 13 10 8 5 3 4 2 0 -3 -9 -3
8 9 19 22 22 22 15 15 18 13 13 17 20 17 14 14 11 14 19 20 21 22 22 22 23 22 20 17 16 15 16 16 16 14 13 12 12 14 16 15 13 12 9 9 8 7 5 3 1 -0 -4 -7 -9 -8
16 18 12 17 21 22 18 14 12 10 14 17 16 13 11 11 13 15 16 17 21 19 17 17 18 18 17 15 13 12 12 12 11 12 12 10 8 7 9 10 10 9 6 6 5 4 3 1 -1 -3 -4 -7 -13 -17
20 18 16 18 12 18 12 13 15 14 15 17 16 13 11 13 11 11 12 16 18 21 16 14 12 13 12 12 13 14 14 16 15 12 11 9 9 7 5 6 5 5 5 5 6 2 -1 -3 -5 -8 -11 -13 -19 -20
13 20 11 7 10 13 14 16 12 11 12 12 12 10 10 9 8 10 12 14 19 20 18 14 12 12 11 11 10 10 10 11 14 16 12 8 9 5 4 5 4 4 6 6 3 0 -1 -8 -9 -15 -17 -18 -17 -18
20 18 15 17 17 16 17 14 10 8 8 8 6 11 10 8 8 8 8 8 10 14 13 11 11 13 12 12 12 12 12 9 7 8 9 8 6 5 5 4 2 3 3 0 -3 -6 -10 -13 -15 -17 -18 -20 -23 -22
17 15 12 10 11 11 16 17 15 10 6 8 7 4 6 9 10 7 7 8 11 11 9 11 12 11 14 14 11 11 11 8 7 7 7 6 4 2 0 -1 -2 -1 -3 -5 -8 -10 -12 -15 -18 -19 -20 -22 -23 -24
12 13 12 11 8 8 13 15 10 6 3 4 4 2 5 7 7 6 5 6 8 12 10 8 8 7 7 6 5 5 5 5 5 6 3 1 -2 -1 -2 -2 -3 -5 -8 -10 -12 -15 -18 -20 -21 -22 -23 -24 -25 -26

GFSWCAN_sfc_dewp_120.txt.gz
Dewpoint
43 42 42 41 41 42 43 42 44 44 44 45 45 44 44 43 41 40 39 39 37 32 33 31 30 27 25 23 21 27 26 29 27 26 19 23 23 25 26 25 25 20 23 24 25 24 21 29 33 29 29 29 28 27
42 43 42 42 41 41 42 43 43 43 44 45 44 43 42 42 40 40 37 37 42 35 33 35 34 32 26 24 26 30 28 26 25 24 23 25 26 30 25 25 28 25 26 24 25 25 31 34 32 35 30 29 28 27
42 42 41 41 41 43 42 42 42 43 44 44 44 43 43 42 41 39 40 39 37 38 31 29 31 35 36 36 36 28 33 32 32 35 32 31 25 27 26 26 27 29 28 28 28 30 30 31 33 33 31 30 28 27
42 41 41 41 41 43 43 43 44 44 44 44 43 43 43 42 41 40 37 40 36 34 33 30 33 33 36 37 37 36 35 36 35 32 31 32 28 31 29 28 27 29 29 27 28 29 30 31 32 31 29 27 25 24
42 41 40 41 42 42 43 43 43 44 44 44 43 43 43 42 41 40 40 41 39 35 29 29 33 35 37 36 35 35 34 32 28 28 32 29 30 30 31 30 27 29 28 30 30 31 32 30 32 31 26 24 23 22
41 41 41 39 41 41 43 43 43 43 41 41 41 39 37 34 35 34 38 37 38 36 35 28 35 34 36 36 35 34 34 32 30 27 29 28 31 31 28 26 30 31 32 32 32 34 33 33 31 26 24 22 21 20
41 40 40 41 39 40 43 43 42 42 43 43 43 43 43 42 40 36 35 39 39 43 39 28 32 34 34 34 34 33 35 34 30 28 28 26 30 33 30 24 29 31 31 30 29 29 28 26 23 22 21 20 20 17
40 40 41 41 41 42 42 42 42 43 42 42 41 41 42 42 39 34 38 39 38 37 33 30 31 33 34 29 31 33 31 31 30 29 30 26 31 32 27 28 29 29 29 29 29 30 27 23 22 21 20 19 18 16
40 40 41 41 41 41 41 42 42 42 39 36 36 39 39 37 37 34 40 38 41 37 30 32 26 27 33 33 34 33 31 30 32 30 26 29 29 28 31 29 27 28 27 27 25 25 24 23 21 20 20 19 17 17
41 41 41 41 41 41 41 40 37 37 37 36 34 33 33 37 39 37 36 35 34 32 32 30 30 30 29 32 33 32 33 28 27 29 30 29 28 29 30 29 29 30 26 25 24 23 23 22 21 21 21 20 19 19
41 40 41 41 41 41 40 37 36 35 35 35 35 34 38 40 35 32 32 30 29 27 28 29 27 29 34 30 30 31 30 30 24 28 27 26 26 29 29 30 31 29 26 26 26 26 25 24 23 21 18 17 17 17
40 41 41 41 41 38 37 37 37 37 36 36 38 38 36 33 31 26 26 26 24 22 28 30 30 31 35 35 32 31 27 30 23 31 29 24 30 28 28 27 28 28 26 26 26 26 25 23 22 19 17 17 18 17
41 41 41 40 39 39 40 39 38 36 35 37 34 33 28 28 23 19 20 23 25 29 31 32 32 34 34 36 33 27 26 27 30 28 25 29 28 27 27 26 26 25 26 25 25 24 23 21 20 19 19 18 16 13
41 41 40 41 40 38 38 37 36 36 35 32 30 23 24 23 25 25 25 27 29 32 34 33 31 32 32 32 33 27 30 28 23 22 21 30 29 28 27 26 24 25 25 25 24 23 21 19 17 17 16 16 15 13
41 40 41 40 38 37 36 35 35 36 35 29 28 23 25 29 30 31 31 31 31 35 34 33 32 30 30 29 30 27 25 21 21 26 32 32 30 28 26 25 25 23 22 22 21 19 16 15 15 15 15 16 16 13
40 39 38 39 37 36 35 34 35 34 31 28 28 27 30 31 30 32 32 32 34 34 34 32 28 29 28 28 25 24 20 20 29 33 31 29 28 27 26 25 23 22 22 21 20 18 17 16 16 17 16 15 13 13
39 37 38 37 36 35 34 33 32 28 27 27 28 31 32 31 30 32 34 33 35 35 32 28 25 23 27 25 23 26 28 33 33 29 28 30 28 26 24 23 20 20 20 20 19 18 17 18 17 16 16 17 16 17
35 37 36 35 34 33 34 32 26 25 26 28 28 29 31 32 33 32 34 35 35 33 32 27 27 25 25 21 25 32 32 28 27 27 28 28 28 25 24 23 20 20 20 19 18 18 18 17 16 17 18 18 17 17
37 35 37 36 32 29 27 28 29 24 27 29 30 31 31 33 34 34 35 35 34 34 33 31 29 27 30 32 35 33 31 30 28 25 24 24 25 23 22 21 20 20 19 19 18 17 17 17 18 17 17 17 17 18
37 36 36 35 34 27 22 25 29 25 24 28 28 28 29 30 32 34 34 35 34 33 32 31 32 34 35 34 34 34 33 29 26 25 24 23 22 22 22 20 19 20 18 19 19 18 17 17 17 17 19 20 20 19
35 35 34 34 32 30 26 24 24 26 25 26 28 28 28 30 31 33 33 33 35 32 31 34 35 32 31 30 30 30 28 27 28 28 26 23 22 22 21 21 20 19 19 19 20 19 19 20 20 20 23 23 22 20
35 33 33 32 29 29 27 29 26 27 26 26 26 27 28 30 31 32 31 32 31 34 34 33 31 29 28 27 26 26 27 25 24 23 23 22 21 21 21 21 20 21 21 23 21 22 22 20 21 22 22 20 17 16
33 32 30 26 25 26 26 30 26 25 23 24 27 25 27 28 29 29 29 27 31 29 29 29 29 28 26 25 24 23 23 22 22 23 22 24 23 24 23 22 23 23 22 20 20 22 23 19 19 20 18 18 17 16
31 27 25 24 24 24 28 26 26 25 26 24 24 21 23 26 27 27 25 28 27 26 27 27 27 26 25 23 23 23 22 22 21 22 22 22 22 21 21 21 21 22 20 20 22 22 21 20 16 17 16 14 13 12
21 21 23 20 24 22 22 21 23 23 21 23 21 23 25 27 24 23 23 26 28 28 26 27 27 26 27 26 24 22 21 21 20 20 22 21 22 21 20 20 20 19 22 23 22 20 18 18 17 15 12 12 8 6
17 19 20 19 23 22 22 20 21 21 23 22 23 25 27 25 20 20 21 26 27 26 27 28 29 27 25 24 23 21 21 21 21 20 19 19 20 23 21 20 20 18 19 23 21 18 16 15 13 10 7 4 2 3
16 19 22 23 24 23 25 24 22 24 21 20 25 24 23 18 17 20 24 24 24 25 24 26 26 26 25 23 21 21 21 21 22 20 20 19 19 21 24 23 21 19 17 19 19 18 14 12 10 8 5 3 1 0
22 22 19 23 23 23 22 23 22 21 24 22 23 21 19 18 20 23 22 23 24 23 22 21 20 22 23 22 21 21 19 18 18 18 17 16 15 17 17 17 16 14 16 16 15 14 12 10 8 6 4 1 -4 -5
23 24 23 19 20 22 23 24 25 23 20 23 26 23 22 19 22 22 22 22 22 24 24 23 21 22 21 20 21 21 21 22 21 19 19 18 17 14 15 14 14 13 12 10 8 8 7 6 4 1 -1 -4 -7 -8
22 25 23 20 19 21 26 25 26 23 19 21 19 18 17 20 21 20 20 23 24 25 25 24 22 23 21 21 18 18 20 22 23 24 21 19 19 14 13 13 12 12 12 10 7 4 3 0 -1 -5 -6 -7 -6 -7
24 25 24 23 22 24 23 22 21 20 21 21 19 22 22 21 21 19 18 19 20 22 21 21 20 21 20 20 20 19 18 17 13 15 17 16 14 14 13 12 13 12 9 7 5 3 1 -1 -3 -7 -9 -11 -13 -11
24 23 22 19 20 20 21 22 22 21 19 19 20 17 18 19 20 17 14 16 19 20 17 20 20 19 21 21 19 19 18 14 13 13 13 13 13 12 11 10 10 10 7 5 3 0 -3 -5 -6 -8 -10 -12 -14 -15
19 20 19 18 17 16 19 20 16 16 16 15 16 15 17 18 16 14 14 13 15 17 18 17 16 16 14 14 14 13 12 12 11 10 9 8 8 8 9 8 7 5 3 1 -2 -5 -8 -10 -10 -11 -13 -15 -16 -18

GFSWCAN_sfc_dewp_126.txt.gz
Dewpoint
38 38 38 39 39 40 42 43 44 46 46 47 47 46 44 44 45 44 43 45 43 37 36 35 32 31 32 32 31 32 29 30 29 25 18 19 24 24 22 24 25 26 25 26 27 23 22 29 31 30 31 30 28 28
38 38 38 39 38 42 41 43 45 45 46 47 47 47 47 45 45 45 42 44 44 42 39 39 38 37 35 32 31 32 31 27 27 25 24 24 28 31 22 27 26 27 26 30 27 27 30 34 35 34 31 33 31 29
38 37 38 41 42 41 44 44 44 45 45 46 48 49 49 48 46 46 45 45 45 39 37 36 34 35 35 37 40 30 29 30 30 37 35 34 26 24 27 26 26 28 28 31 28 28 29 35 36 36 35 35 33 30
38 41 41 42 40 42 44 44 44 44 44 45 45 46 47 47 47 46 44 46 40 36 34 36 37 34 35 37 37 37 37 36 38 38 34 33 31 31 32 31 30 29 27 28 29 29 29 33 35 35 35 35 32 29
42 42 41 41 40 44 44 44 44 43 44 43 43 44 45 45 44 42 42 41 39 35 33 35 36 34 34 35 35 37 37 37 34 31 34 29 31 30 31 31 28 28 29 29 31 32 31 31 35 35 33 32 29 25
41 41 41 41 43 43 43 44 44 44 44 43 43 43 43 42 41 40 38 44 39 37 35 32 36 32 34 35 35 35 35 35 32 29 33 33 33 32 30 29 31 31 32 33 32 34 33 34 35 33 32 31 27 23
42 41 41 42 43 43 43 43 43 43 43 44 44 43 43 43 40 37 36 39 38 38 37 30 34 32 31 32 33 33 33 32 31 29 28 27 29 30 32 26 31 31 31 32 31 30 30 30 30 32 28 23 22 19
42 42 42 43 43 43 43 42 42 42 42 42 42 42 41 40 41 37 40 41 42 32 29 31 30 31 30 30 29 31 30 31 31 28 27 27 28 31 28 29 29 29 30 31 30 29 28 30 29 24 22 19 18 17
42 43 42 41 40 40 39 39 40 41 42 43 43 42 40 35 31 35 38 41 45 37 32 34 27 27 33 31 31 29 29 33 29 30 27 26 29 29 30 29 28 28 28 28 31 29 28 25 22 21 20 19 17 17
42 40 39 38 38 39 38 39 39 39 39 41 37 36 36 34 36 37 38 38 35 31 30 32 30 30 31 32 32 30 32 29 26 28 27 31 31 28 26 29 30 30 29 30 28 26 24 24 23 23 22 22 20 20
40 39 39 40 41 40 39 39 40 40 39 38 40 38 34 37 36 34 37 33 32 29 32 30 29 28 31 31 31 30 32 30 23 28 26 25 27 30 28 29 30 30 30 29 29 28 26 25 25 24 23 23 21 21
39 40 41 40 40 40 40 40 39 37 36 37 36 37 35 36 38 30 29 28 25 24 29 31 30 32 35 33 32 31 27 29 27 31 29 23 31 28 29 30 30 29 28 27 27 26 28 27 27 25 22 22 22 22
41 41 40 40 39 39 39 39 38 37 37 35 35 35 29 33 28 31 22 25 27 33 35 35 33 33 33 37 36 31 26 28 31 29 23 31 31 30 31 30 30 30 30 30 30 30 28 27 26 23 23 22 20 18
40 39 39 39 39 38 39 39 39 38 36 38 34 25 30 27 27 30 30 31 34 35 35 35 35 32 35 33 34 28 30 29 24 23 22 31 32 32 31 31 31 31 31 31 30 27 24 23 22 21 20 19 16 15
38 38 37 38 39 39 38 38 38 37 40 33 30 24 26 30 31 33 35 36 38 38 37 35 34 31 31 29 31 26 24 20 21 25 31 34 33 32 31 30 29 28 27 27 26 23 21 20 20 19 19 18 18 16
38 36 34 38 38 38 38 36 36 37 36 29 31 31 33 31 31 33 34 35 39 39 39 35 30 30 28 29 25 24 20 20 30 30 32 33 33 32 31 30 30 29 29 27 25 22 21 19 19 20 21 19 17 17
36 32 37 38 37 37 37 34 35 30 29 28 31 34 34 33 31 33 36 37 40 38 33 29 29 25 28 24 22 28 29 29 31 30 32 33 32 31 30 29 27 27 26 25 23 22 21 22 21 19 18 17 17 18
30 33 38 38 36 35 35 34 31 29 29 33 31 32 33 33 33 33 36 39 38 34 32 26 29 25 29 22 27 32 30 30 31 31 32 31 31 30 29 26 26 27 26 25 23 22 22 20 18 17 17 15 16 16
35 35 38 38 35 29 28 29 30 27 31 34 34 35 35 33 35 36 37 39 36 34 37 32 30 27 30 33 32 32 31 31 29 28 30 30 29 28 26 26 26 26 25 23 21 21 20 19 19 19 19 17 18 20
36 36 38 37 35 25 23 26 30 28 27 31 33 32 33 33 35 36 38 37 36 35 33 31 32 34 33 34 35 34 33 31 28 27 27 27 28 27 26 26 25 24 23 22 22 22 19 19 19 20 20 20 24 22
33 33 35 33 30 29 27 26 26 27 28 28 29 30 33 34 34 37 35 36 35 33 31 33 33 34 34 34 34 34 31 32 32 30 27 25 27 27 25 27 25 24 23 23 23 23 23 23 22 23 26 27 26 23
31 35 31 32 29 27 28 29 26 26 26 27 28 29 31 31 32 33 32 33 33 33 35 35 33 31 31 30 31 32 31 30 31 31 29 28 27 26 26 26 25 26 26 27 25 26 25 24 26 26 26 24 22 20
32 30 30 29 30 28 27 29 26 23 24 25 26 24 26 27 27 29 29 31 31 32 33 32 31 31 28 28 28 28 28 28 27 28 28 28 28 29 28 27 28 28 26 25 27 26 27 24 24 26 23 23 20 16
32 32 29 27 26 24 30 26 23 22 24 23 22 21 23 25 27 26 26 30 30 29 29 29 29 28 28 27 27 26 27 28 27 27 28 27 26 26 26 26 27 27 26 26 27 27 25 25 24 22 22 20 20 19
23 25 28 23 28 24 22 23 24 21 20 22 21 22 24 26 24 23 25 28 28 29 29 31 31 31 29 28 27 25 25 25 25 24 26 27 26 26 26 25 27 27 28 28 26 25 24 23 23 21 18 18 14 13
20 25 23 23 24 21 20 19 21 23 22 22 24 26 27 24 22 23 25 27 27 28 29 30 31 29 28 28 26 24 23 25 25 24 25 25 25 26 25 23 22 23 26 28 25 23 21 21 20 15 12 10 9 10
19 22 23 24 23 22 24 24 23 23 22 22 25 23 23 20 23 25 25 26 27 27 27 29 28 29 27 25 25 25 25 26 26 25 25 25 27 28 27 24 22 23 26 26 26 23 21 18 15 13 11 10 8 7
22 25 22 25 24 24 22 22 22 22 25 24 25 21 22 23 24 26 25 26 27 26 26 26 26 27 27 26 26 25 25 24 24 24 23 23 23 22 22 23 23 23 24 24 23 22 19 17 14 11 9 6 4 3
25 26 25 21 23 24 24 23 23 24 25 25 25 26 24 25 26 25 24 26 27 28 26 26 26 27 27 27 27 26 26 25 22 20 19 18 18 19 21 21 20 18 17 16 15 16 15 14 12 8 4 3 3 2
24 26 23 22 21 21 28 28 29 28 26 28 27 24 24 26 25 26 25 26 26 27 28 28 27 27 25 24 24 26 28 27 28 27 24 21 19 21 20 18 16 15 14 12 9 7 8 5 6 3 3 2 2 -0
24 25 22 22 22 28 28 27 27 27 27 26 27 27 28 26 24 24 24 24 25 27 27 26 26 28 27 25 23 22 21 24 24 23 23 21 21 21 20 19 17 15 12 10 9 8 7 5 3 2 -1 -3 -4 -3
24 22 23 19 24 26 26 25 25 25 27 24 25 26 25 24 24 21 19 21 23 24 25 27 26 26 26 25 25 25 22 23 23 22 20 21 20 19 18 15 15 14 12 10 9 7 5 4 2 -1 -3 -5 -6 -7
25 25 23 23 23 21 26 24 22 22 23 21 24 24 24 23 20 18 19 21 21 22 22 23 24 24 24 23 22 22 21 21 20 19 18 17 15 16 16 15 13 11 9 7 5 4 2 -0 -1 -3 -6 -7 -8 -9